[[{"header":{"parameterUnit":"m.s-1","parameterCategory":1,"la1":31.0,"la2":29.5877,"lo1":-88.7671,"lo2":-86.6584,"dy":0.0162,"dx":0.0185,"nx":115,"ny":88,"refTime":"2023-05-14T12:00:00:Z","depth":0,"parameterNumber":2,"parameterNumberName":"U-component_of_WINDS"},"data":[0.0,0.0,0.0,0.0,0.0,0.0,0.0,0.0,0.0,0.0,0.0,0.0,0.0,0.0,0.0,0.0,0.0,0.0,0.0,0.0,0.0,0.0,0.0,0.0,0.0,0.0,0.0,0.0,0.0,0.0,0.0,0.0,0.0,0.0,0.0,0.0,0.0,0.0,0.0,0.0,0.0,0.0,0.0,0.0,0.0,0.0,0.0,0.0,0.0,0.0,0.0,0.0,0.0,0.0,0.0,0.0,0.0,0.0,0.0,0.0,0.0,0.0,0.0,0.0,0.0,0.0,0.0,0.0,0.0,0.0,0.0,0.0,0.0,0.0,0.0,0.0,0.0,0.0,0.0,0.0,0.0,0.0,0.0,0.0,0.0,0.0,0.0,0.0,0.0,0.0,0.0,0.0,0.0,0.0,0.0,0.0,0.0,0.0,0.0,0.0,0.0,0.0,0.0,0.0,0.0,0.0,0.0,0.0,0.0,0.0,0.0,0.0,0.0,0.0,0.0,0.0,0.0,0.0,0.0,0.0,0.0,0.0,0.0,0.0,0.0,0.0,0.0,0.0,0.0,0.0,0.0,0.0,0.0,0.0,0.0,0.0,0.0,0.0,0.0,0.0,0.0,0.0,0.0,0.0,0.0,0.0,0.0,0.0,0.0,0.0,0.0,0.0,0.0,0.0,0.0,0.0,0.0,0.0,0.0,0.0,0.0,0.0,0.0,0.0,0.0,0.0,0.0,0.0,0.0,0.0,0.0,0.0,0.0,0.0,0.0,0.0,0.0,0.0,0.0,0.0,0.0,0.0,0.0,0.0,0.0,0.0,0.0,0.0,0.0,0.0,0.0,0.0,0.0,0.0,0.0,0.0,0.0,0.0,0.0,0.0,0.0,0.0,0.0,0.0,0.0,0.0,0.0,0.0,0.0,0.0,0.0,0.0,0.0,0.0,0.0,0.0,0.0,0.0,0.0,0.0,0.0,0.0,0.0,0.0,0.0,0.0,0.0,0.0,0.0,0.0,0.0,0.0,0.0,0.0,0.0,0.0,0.0,0.0,0.0,0.0,0.0,0.0,0.0,0.0,0.0,0.0,0.0,0.0,0.0,0.0,0.0,0.0,0.0,0.0,0.0,0.0,0.0,0.0,0.0,0.0,0.0,0.0,0.0,0.0,0.0,0.0,0.0,0.0,0.0,0.0,0.0,0.0,0.0,0.0,0.0,0.0,0.0,0.0,0.0,0.0,0.0,0.0,0.0,0.0,0.0,0.0,0.0,0.0,0.0,0.0,0.0,0.0,0.0,0.0,0.0,0.0,0.0,0.0,0.0,0.0,0.0,0.0,0.0,0.0,0.0,0.0,0.0,0.0,0.0,0.0,0.0,0.0,0.0,0.0,0.0,0.0,0.0,0.0,0.0,0.0,0.0,0.0,0.0,0.0,0.0,0.0,0.0,0.0,0.0,0.0,0.0,0.0,0.0,0.0,0.0,0.0,0.0,0.0,0.0,0.0,0.0,0.0,0.0,0.0,0.0,0.0,0.0,0.0,0.0,0.0,0.0,0.0,0.0,0.0,0.0,0.0,0.0,0.0,0.0,0.0,0.0,0.0,0.0,0.0,0.0,0.0,0.0,0.0,0.0,0.0,0.0,0.0,0.0,0.0,0.0,0.0,0.0,0.0,0.0,0.0,0.0,0.0,0.0,0.0,0.0,0.0,0.0,0.0,0.0,0.0,0.0,0.0,0.0,0.0,0.0,0.0,0.0,0.0,0.0,0.0,0.0,0.0,0.0,0.0,0.0,0.0,0.0,0.0,0.0,0.0,0.0,0.0,0.0,0.0,0.0,0.0,0.0,0.0,0.0,0.0,0.0,0.0,0.0,0.0,0.0,0.0,0.0,0.0,0.0,0.0,0.0,0.0,0.0,0.0,0.0,0.0,0.0,0.0,0.0,0.0,0.0,0.0,0.0,0.0,0.0,0.0,0.0,0.0,0.0,0.0,0.0,0.0,0.0,0.0,0.0,0.0,0.0,0.0,0.0,0.0,0.0,0.0,0.0,0.0,0.0,0.0,0.0,0.0,0.0,0.0,0.0,0.0,0.0,0.0,0.0,0.0,0.0,0.0,0.0,0.0,0.0,0.0,0.0,0.0,0.0,0.0,0.0,0.0,0.0,0.0,0.0,0.0,0.0,0.0,0.0,0.0,0.0,0.0,0.0,0.0,0.0,0.0,0.0,0.0,0.0,0.0,0.0,0.0,0.0,0.0,0.0,0.0,0.0,0.0,0.0,0.0,0.0,0.0,0.0,0.0,0.0,0.0,0.0,0.0,0.0,0.0,0.0,0.0,0.0,0.0,0.0,0.0,0.0,0.0,0.0,0.0,0.0,0.0,0.0,0.0,0.0,0.0,0.0,0.0,0.0,0.0,0.0,0.0,0.0,0.0,0.0,0.0,0.0,0.0,0.0,0.0,0.0,0.0,0.0,0.0,0.0,0.0,0.0,0.0,0.0,0.0,0.0,0.0,0.0,0.0,0.0,0.0,0.0,0.0,0.0,0.0,0.0,0.0,0.0,0.0,0.0,0.0,0.0,0.0,0.0,0.0,0.0,0.0,0.0,0.0,0.0,0.0,0.0,0.0,0.0,0.0,0.0,0.0,0.0,0.0,0.0,0.0,0.0,0.0,0.0,0.0,0.0,0.0,0.0,0.0,0.0,0.0,0.0,0.0,0.0,0.0,0.0,0.0,0.0,0.0,0.0,0.0,0.0,0.0,0.0,0.0,0.0,0.0,0.0,0.0,0.0,0.0,0.0,0.0,0.0,0.0,0.0,0.0,0.0,0.0,0.0,0.0,0.0,0.0,0.0,0.0,0.0,0.0,0.0,0.0,0.0,0.0,0.0,0.0,0.0,0.0,0.0,0.0,0.0,0.0,0.0,0.0,0.0,0.0,0.0,0.0,0.0,0.0,0.0,0.0,0.0,0.0,0.0,0.0,0.0,0.0,0.0,0.0,0.0,0.0,0.0,0.0,0.0,0.0,0.0,0.0,0.0,0.0,0.0,0.0,0.0,0.0,0.0,0.0,0.0,0.0,0.0,0.0,0.0,0.0,0.0,0.0,0.0,0.0,0.0,0.0,0.0,0.0,0.0,0.0,0.0,0.0,0.0,0.0,0.0,0.0,0.0,0.0,0.0,0.0,0.0,0.0,0.0,0.0,0.0,0.0,0.0,0.0,0.0,0.0,0.0,0.0,0.0,0.0,0.0,0.0,0.0,0.0,0.0,0.0,0.0,0.0,0.0,0.0,0.0,0.0,0.0,0.0,0.0,0.0,0.0,0.0,0.0,0.0,0.0,0.0,0.0,0.0,0.0,0.0,0.0,0.0,0.0,0.0,0.0,0.0,0.0,0.0,0.0,0.0,0.0,0.0,0.0,0.0,0.0,0.0,0.0,0.0,0.0,0.0,0.0,0.0,0.0,0.0,0.0,0.0,0.0,0.0,0.0,0.0,0.0,0.0,0.0,0.0,0.0,0.0,0.0,0.0,0.0,0.0,0.0,0.0,0.0,0.0,0.0,0.0,0.0,0.0,0.0,0.0,0.0,0.0,0.0,0.0,0.0,0.0,0.0,0.0,0.0,0.0,0.0,0.0,0.0,0.0,0.0,0.0,0.0,0.0,0.0,0.0,0.0,0.0,0.0,0.0,0.0,0.0,0.0,0.0,0.0,0.0,0.0,0.0,0.0,0.0,0.0,0.0,0.0,0.0,0.0,0.0,0.0,0.0,0.0,0.0,0.0,0.0,0.0,0.0,0.0,0.0,0.0,0.0,0.0,0.0,0.0,0.0,0.0,0.0,0.0,0.0,0.0,0.0,0.0,0.0,0.0,0.0,0.0,0.0,0.0,0.0,0.0,0.0,0.0,0.0,0.0,0.0,0.0,0.0,0.0,0.0,0.0,0.0,0.0,0.0,0.0,0.0,0.0,0.0,0.0,0.0,0.0,0.0,0.0,0.0,0.0,0.0,0.0,0.0,0.0,0.0,0.0,0.0,0.0,0.0,0.0,0.0,0.0,0.0,0.0,0.0,0.0,0.0,0.0,0.0,0.0,0.0,0.0,0.0,0.0,0.0,0.0,0.0,0.0,0.0,0.0,0.0,0.0,0.0,0.0,0.0,0.0,0.0,0.0,0.0,0.0,0.0,0.0,0.0,0.0,0.0,0.0,0.0,0.0,0.0,0.0,0.0,0.0,0.0,0.0,0.0,0.0,0.0,0.0,0.0,0.0,0.0,-0.3261,0.0,0.0,0.0,0.0,0.0,0.0,0.0,0.0,0.0,0.0,0.0,0.0,0.0,0.0,0.0,0.0,0.0,0.0,0.0,0.0,0.0,0.0,0.0,0.0,0.0,0.0,0.0,0.0,0.0,0.0,0.0,0.0,0.0,0.0,0.0,0.0,0.0,0.0,0.0,0.0,0.0,0.0,0.0,0.0,0.0,0.0,0.0,0.0,0.0,0.0,0.0,0.0,0.0,0.0,0.0,0.0,0.0,0.0,0.0,0.0,0.0,0.0,0.0,0.0,0.0,0.0,0.0,0.0,0.0,0.0,0.0,0.0,0.0,0.0,0.0,0.0,0.0,0.0,0.0,0.0,0.0,0.0,0.0,0.0,0.0,0.0,0.0,0.0,0.0,0.0,0.0,0.0,0.0,0.0,0.0,0.0,0.0,0.0,0.0,0.0,0.0,0.0,0.0,0.0,0.0,0.0,0.0,0.0,0.0,0.0,0.1202,0.2005,0.084,-0.0434,-0.1801,0.0,0.0,0.0,0.0,0.0,0.0,0.0,0.0,0.0,0.0,0.0,0.0,0.0,0.0,0.0,0.0,0.0,0.0,0.0,0.0,0.0,0.0,0.0,0.0,0.0,0.0,0.0,0.0,0.0,0.0,0.0,0.0,0.0,0.0,0.0,0.0,0.0,0.0,0.0,0.0,0.0,0.0,0.0,0.0,0.0,0.0,0.0,0.0,0.0,0.0,0.0,0.0,0.0,0.0,0.0,0.0,0.0,0.0,0.0,0.0,0.0,0.0,0.0,0.0,0.0,0.0,0.0,0.0,0.0,0.0,0.0,0.0,0.0,0.0,0.0,0.0,0.0,0.0,0.0,0.0,0.0,0.0,0.0,0.0,0.0,0.0,0.0,0.0,0.0,0.0,0.0,0.0,0.0,0.0,0.0,0.0,0.0,0.0,0.0,0.0,0.0,0.0,0.0,0.0,0.0,0.0,0.0,0.0,0.0,0.0,0.0,0.0,0.3589,0.2934,-0.1563,0.0,0.0,0.0,0.0,0.0,0.0,0.0,0.0,0.0,0.0,0.0,0.0,0.0,0.0,0.0,0.0,0.0,0.0,0.0,0.0,0.0,0.0,0.0,0.0,0.0,0.0,0.0,0.0,0.0,0.0,0.0,0.0,0.0,0.0,0.0,0.0,0.0,0.0,0.0,0.0,0.0,0.0,0.0,0.0,0.0,0.0,0.0,0.0,0.0,0.0,0.0,0.0,0.0,0.0,0.0,0.0,0.0,0.0,0.0,0.0,0.0,0.0,0.0,0.0,0.0,0.0,0.0,0.0,0.0,0.0,0.0,0.0,0.0,0.0,0.0,0.0,0.0,0.0,0.0,0.0,0.0,0.0,0.0,0.0,0.0,0.0,0.0,0.0,0.0,0.0,0.0,0.0,0.0,0.0,0.0,0.0,0.0,0.0,0.0,0.0,0.0,0.0,0.0,0.0,0.0,0.0,0.0,0.0,0.0,0.0,-0.1705,0.4377,0.4931,0.0,-0.3242,0.0,0.0,0.0,0.0,0.0,0.0,0.0,0.0,0.0,0.0,0.0,0.0,0.0,0.0,0.0,0.0,0.0,0.0,0.0,0.0,0.0,0.0,0.0,0.0,0.0,0.0,0.0,0.0,0.0,0.0,0.0,0.0,0.0,0.0,0.0,0.0,0.0,0.0,0.0,0.0,0.0,0.0,0.0,0.0,0.0,0.0,0.0,0.0,0.0,0.0,0.0,0.0,0.0,0.0,0.0,0.0,0.0,0.0,0.0,0.0,0.0,0.0,0.0,0.0,0.0,0.0,0.0,0.0,0.0,0.0,0.0,0.0,0.0,0.0,0.0,0.0,0.0,0.0,0.0,0.0,0.0,0.0,0.0,0.0,0.0,0.0,0.0,0.0,0.0,0.0,0.0,0.0,0.0,0.0,0.0,0.0,0.0,0.0,0.0,0.0,0.0,0.0,0.0,0.0,0.0,0.0,0.0,0.0,0.0,0.0,0.2271,0.6533,0.6638,0.3718,0.0,0.0,0.0,0.0,0.0,0.0,0.0,0.0,0.0,0.0,0.0,0.0,0.0,0.0,0.0,0.0,0.0,0.0,0.0,0.0,0.0,0.0,0.0,0.0,0.0,0.0,0.0,0.0,0.0,0.0,0.0,0.0,0.0,0.0,0.0,0.0,0.0,0.0,0.0,0.0,0.0,0.0,0.0,0.0,0.0,0.0,0.0,0.0,0.0,0.0,0.0,0.0,0.0,0.0,0.0,0.0,0.0,0.0,0.0,0.0,0.0,0.0,0.0,0.0,0.0,0.0,0.0,0.0,0.0,0.0,0.0,0.0,0.0,0.0,0.0,0.0,0.0,0.0,0.0,0.0,0.0,0.0,0.0,0.0,0.0,0.0,0.0,0.0,0.0,0.0,0.0,0.0,0.0,0.0,0.0,0.0,0.0,0.0,0.0,0.0,0.0,0.0,0.0,0.0,0.0,0.0,0.0,0.0,0.0,0.0,0.4377,0.6171,0.7417,0.7402,0.4727,-0.0724,0.0,0.0,0.0,0.0,0.0,0.0,0.0,0.0,0.0,0.0,0.0,0.0,0.0,0.0,0.0,0.0,0.0,0.0,0.0,0.0,0.0,0.0,0.0,0.0,0.0,0.0,0.0,0.0,0.0,0.0,0.0,0.0,0.0,0.0,0.0,0.0,0.0,0.0,0.0,0.0,0.0,0.0,0.0,0.0,0.0,0.0,0.0,0.0,0.0,0.0,0.0,0.0,0.0,0.0,0.0,0.0,0.0,0.0,0.0,0.0,0.0,0.0,0.0,0.0,0.0,0.0,0.0,0.0,0.0,0.0,0.0,0.0,0.0,0.0,0.0,0.0,0.0,0.0,0.0,0.0,0.0,0.0,0.0,0.0,0.0,0.0,0.0,0.0,0.0,0.0,0.0,0.0,0.0,0.0,0.0,0.0,0.0,0.0,0.0,0.0,0.0,0.0,0.0,0.0,0.0,0.0,0.0,0.0,0.5414,0.8085,0.8712,0.7113,0.6668,0.4917,0.0,0.0,0.0,0.0,0.0,0.0,0.0,0.0,0.0,0.0,0.0,0.0,0.0,0.0,0.0,0.0,0.0,0.0,0.0,0.0,0.0,0.0,0.0,0.0,0.0,0.0,0.0,0.0,0.0,0.0,0.0,0.0,0.0,0.0,0.0,0.0,0.0,0.0,0.0,0.0,0.0,0.0,0.0,0.0,0.0,0.0,0.0,0.0,0.0,0.0,0.0,0.0,0.0,0.0,0.0,0.0,0.0,0.0,0.0,0.0,0.0,0.0,0.0,0.0,0.0,0.0,0.0,0.0,0.0,0.0,0.0,0.0,0.0,0.0,0.0,0.0,0.0,0.0,0.0,0.0,0.0,0.0,0.0,0.0,0.0,0.0,0.0,0.0,0.0,0.0,0.0,0.0,0.0,0.0,0.0,0.0,0.0,0.0,0.0,0.0,0.0,0.0,0.0,0.0,0.0,0.0,0.0,0.0,0.0,0.546,0.8856,0.9498,0.7091,0.7656,0.6244,0.0,0.0,0.0,0.0,0.0,0.0,0.0,0.0,0.0,0.0,0.0,0.0,0.0,0.0,0.0,0.0,0.0,0.0,0.0,0.0,0.0,0.0,0.0,0.0,0.0,0.0,0.0,0.0,0.0,0.0,0.0,0.0,0.0,0.0,0.0,0.0,0.0,0.0,0.0,0.0,0.0,0.0,0.0,0.0,0.0,0.0,0.0,0.0,0.0,0.0,0.0,0.0,0.0,0.0,0.0,0.0,0.0,0.0,0.0,0.0,0.0,0.0,0.0,0.0,0.0,0.0,0.0,0.0,0.0,0.0,0.0,0.0,0.0,0.0,0.0,0.0,0.0,0.0,0.0,0.0,0.0,0.0,0.0,0.0,0.0,0.0,0.0,0.0,0.0,0.0,0.0,0.0,0.0,0.0,0.0,0.0,0.0,0.0,0.0,0.0,0.0,0.0,0.0,0.0,0.0,0.0,0.0,0.0,0.0,0.6558,0.0,0.9968,0.8118,0.8435,0.7114,0.0,0.0,0.0,0.0,0.0,0.0,0.0,0.0,0.0,0.0,0.0,0.0,0.0,0.0,0.0,0.0,0.0,0.0,0.0,0.0,0.0,0.0,0.0,0.0,0.0,0.0,0.0,0.0,0.0,0.0,0.0,0.0,0.0,0.0,0.0,0.0,0.0,0.0,0.0,0.0,0.0,0.0,0.0,0.0,0.0,0.0,0.0,0.0,0.0,0.0,0.0,0.0,0.0,0.0,0.0,0.0,0.0,0.0,0.0,0.0,0.0,0.0,0.0,0.0,0.0,0.0,0.0,0.0,0.0,0.0,0.0,0.0,0.0,0.0,0.0,0.0,0.0,0.0,0.0,0.0,0.0,0.0,0.0,0.0,0.0,0.0,0.0,0.0,0.0,0.0,0.0,0.0,0.0,0.0,0.0,0.0,0.0,0.0,0.0,0.0,0.0,0.0,0.0,0.0,0.0,0.0,0.0,0.0,0.731,0.9159,0.9911,1.0213,1.015,0.8844,0.7481,0.0,0.0,0.0,0.0,0.0,0.0,0.0,0.0,0.0,0.0,0.0,0.0,0.0,0.0,0.0,0.0,0.0,0.0,0.0,0.0,0.0,0.0,0.0,0.0,0.0,0.0,0.0,0.0,0.0,0.0,0.0,0.0,0.0,0.0,0.0,0.0,0.0,0.0,0.0,0.0,0.0,0.0,0.0,0.0,0.0,0.0,0.0,0.0,0.0,0.0,0.0,0.0,0.0,0.0,0.0,0.0,0.0,0.0,0.0,0.0,0.0,0.0,0.0,0.0,0.0,0.0,0.0,0.0,0.0,0.0,0.0,0.0,0.0,0.0,0.0,0.0,0.0,0.0,0.0,0.0,0.0,0.0,0.0,0.0,0.0,0.0,0.0,0.0,0.0,0.0,0.0,0.0,0.0,0.0,0.0,0.0,0.0,0.0,0.0,0.0,0.0,0.0,0.0,0.0,0.0,0.0,0.0,0.0,0.0,0.8525,0.9373,0.9881,0.9976,0.9525,0.8871,0.0,0.0,0.0,0.0,0.0,0.0,0.0,0.0,0.0,0.0,0.0,0.0,0.0,0.0,0.0,0.0,0.0,0.0,0.0,0.0,0.0,0.0,0.0,0.0,0.0,0.0,0.0,0.0,0.0,0.0,0.0,0.0,0.0,0.0,0.0,0.0,0.0,0.0,0.0,0.0,0.0,0.0,0.0,0.0,0.0,0.0,0.0,0.0,0.0,0.0,0.0,0.0,0.0,0.0,0.0,0.0,0.0,0.0,0.0,0.0,0.0,0.0,0.0,0.0,0.0,0.0,0.0,0.0,0.0,0.0,0.0,0.0,0.0,0.0,0.0,0.0,0.0,0.0,0.0,0.0,0.0,0.0,0.0,0.0,0.0,0.0,0.0,0.0,0.0,0.0,0.0,0.0,0.0,0.0,0.0,0.0,0.0,0.0,0.0,0.0,0.0,0.0,0.0,0.0,0.0,0.0,0.0,0.0,0.0,0.9367,0.9843,1.0238,1.0467,1.0494,1.0356,1.0023,0.0,0.0,0.0,0.0,0.0,0.0,0.0,0.0,0.0,0.0,0.0,0.0,0.0,0.0,0.0,0.0,0.0,0.0,0.0,0.0,0.0,0.0,0.0,0.0,0.0,0.0,0.0,0.0,0.0,0.0,0.0,0.0,0.0,0.0,0.0,0.0,0.0,0.0,0.0,0.0,0.0,0.0,0.0,0.0,0.0,0.0,0.0,0.0,0.0,0.0,0.0,0.0,0.0,0.0,0.0,0.0,0.0,0.0,0.0,0.0,0.0,0.0,0.0,0.0,0.0,0.0,0.0,0.0,0.0,0.0,0.0,0.0,0.0,0.0,0.0,0.0,0.0,0.0,0.0,0.0,0.0,0.0,0.0,0.0,0.0,0.0,0.0,0.0,0.0,0.0,0.0,0.0,0.0,0.0,0.0,0.0,0.0,0.0,0.0,0.0,0.0,0.0,0.0,0.0,0.0,0.0,0.0,0.0,1.1394,1.1259,1.1272,1.1415,1.1733,1.1919,0.0,0.0,0.0,0.0,0.0,0.0,0.0,0.0,0.0,0.0,0.0,0.0,0.0,0.0,0.0,0.0,0.0,0.0,0.0,0.0,0.0,0.0,0.0,0.0,0.0,0.0,0.0,0.0,0.0,0.0,0.0,0.0,0.0,0.0,0.0,0.0,0.0,0.0,0.0,0.0,0.0,0.0,0.0,0.0,0.0,0.0,0.0,0.0,0.0,0.0,0.0,0.0,0.0,0.0,0.0,0.0,0.0,0.0,0.0,0.0,0.0,0.0,0.0,0.0,0.0,0.0,0.0,0.0,0.0,0.0,0.0,0.0,0.0,0.0,0.0,0.0,0.0,0.0,0.0,0.0,0.0,0.0,0.0,0.0,0.0,0.0,0.0,0.0,0.0,0.0,0.0,0.0,0.0,0.0,0.0,0.0,0.0,0.0,0.0,0.0,0.0,0.0,0.0,0.0,0.0,0.0,0.0,0.0,0.0,1.2601,1.3299,1.3071,1.1854,1.3223,1.3183,0.0,0.0,0.0,0.0,0.0,0.0,0.0,0.0,0.0,0.0,0.0,0.0,0.0,0.0,0.0,0.0,0.0,0.0,0.0,0.0,0.0,0.0,0.0,0.0,0.0,0.0,0.0,0.0,0.0,0.0,0.0,0.0,0.0,0.0,0.0,0.0,0.0,0.0,0.0,0.0,0.0,0.0,0.0,0.0,0.0,0.0,0.0,0.0,0.0,0.0,0.0,0.0,0.0,0.0,0.0,0.0,0.0,0.0,0.0,0.0,0.0,0.0,0.0,0.0,0.0,0.0,0.0,0.0,0.0,0.0,0.0,0.0,0.0,0.0,0.0,0.0,0.0,0.0,0.0,0.0,0.0,0.0,0.0,0.0,0.0,0.0,0.0,0.0,0.0,0.0,0.0,0.0,0.0,0.0,0.0,0.0,0.0,0.0,0.0,0.0,0.0,0.0,0.0,0.0,0.0,0.0,0.0,0.0,1.2087,1.2968,1.4455,1.4593,1.3268,1.5367,1.5318,0.0,0.0,0.0,0.0,0.0,0.0,0.0,0.0,0.0,0.0,0.0,0.0,0.0,0.0,0.0,0.0,0.0,0.0,0.0,0.0,0.0,0.0,0.0,0.0,0.0,0.0,0.0,0.0,0.0,0.0,0.0,0.0,0.0,0.0,0.0,0.0,0.0,0.0,0.0,0.0,0.0,0.0,0.0,0.0,0.0,0.0,0.0,0.0,0.0,0.0,0.0,0.0,0.0,0.0,0.0,0.0,0.0,0.0,0.0,0.0,0.0,0.0,0.0,0.0,0.0,0.0,0.0,0.0,0.0,0.0,0.0,0.0,0.0,0.0,0.0,0.0,0.0,0.0,0.0,0.0,0.0,0.0,0.0,0.0,0.0,0.0,0.0,0.0,0.0,0.0,0.0,0.0,0.0,0.0,0.0,0.0,0.0,0.0,0.0,0.0,0.0,0.0,0.0,0.0,0.0,0.0,0.0,0.0,1.2455,1.2871,1.4876,1.5705,1.5335,1.7383,1.7278,0.0,0.0,0.0,0.0,0.0,0.0,0.0,0.0,0.0,0.0,0.0,0.0,0.0,0.0,0.0,0.0,0.0,0.0,0.0,0.0,0.0,0.0,0.0,0.0,0.0,0.0,0.0,0.0,0.0,0.0,0.0,0.0,0.0,0.0,0.0,0.0,0.0,0.0,0.0,0.0,0.0,0.0,0.0,0.0,0.0,0.0,0.0,0.0,0.0,0.0,0.0,0.0,0.0,0.0,0.0,0.0,0.0,0.0,0.0,0.0,0.0,0.0,0.0,0.0,0.0,0.0,0.0,0.0,0.0,0.0,0.0,0.0,0.0,0.0,0.0,0.0,0.0,0.0,0.0,0.0,0.0,0.0,0.0,0.0,0.0,0.0,0.0,0.0,0.0,0.0,0.0,0.0,0.0,0.0,0.0,0.0,0.0,0.0,0.0,0.0,0.0,0.0,0.0,0.0,0.0,0.0,0.0,0.0,1.2073,1.3188,1.4335,1.5347,1.6174,1.6064,1.5273,0.0,0.0,0.0,0.0,0.0,0.0,0.0,0.0,0.0,0.0,0.0,0.0,0.0,0.0,0.0,0.0,0.0,0.0,0.0,0.0,0.0,0.0,0.0,0.0,0.0,0.0,0.0,0.0,0.0,0.0,0.0,0.0,0.0,0.0,0.0,0.0,0.0,0.0,0.0,0.0,0.0,0.0,0.0,0.0,0.0,0.0,0.0,0.0,-0.9273,0.0,0.0,0.0,0.0,0.0,0.0,0.0,0.0,0.0,0.0,0.0,0.0,0.0,0.0,0.0,0.0,0.0,0.0,0.0,0.0,0.0,0.0,0.0,0.0,0.0,0.0,0.0,0.0,0.0,0.0,0.0,0.0,0.0,0.0,0.0,0.0,0.0,0.0,0.0,0.0,0.0,0.0,0.0,0.0,0.0,0.0,0.0,0.0,0.0,0.0,0.0,0.0,0.0,0.0,0.0,0.0,0.0,0.0,0.0,1.2133,1.2776,1.3661,1.4511,1.5242,1.4086,1.3495,0.0,0.0,0.0,0.0,0.0,0.0,0.0,0.0,0.0,0.0,0.0,0.0,0.0,0.0,0.0,0.0,0.0,0.0,0.0,0.0,0.0,0.0,0.0,0.0,0.0,0.0,0.0,0.0,0.0,0.0,0.0,0.0,0.0,0.0,0.0,0.0,0.0,0.0,0.0,0.0,0.0,0.0,0.0,0.0,0.0,0.0,0.0,0.0,0.0,0.0,0.0,0.0,0.0,0.0,0.0,0.0,0.0,0.0,0.0,0.0,0.0,0.0,0.0,0.0,0.0,0.0,0.0,0.0,0.0,0.0,0.0,0.0,0.0,0.0,0.0,0.0,0.0,0.0,0.0,0.0,0.0,0.0,0.0,0.0,0.0,0.0,0.0,0.0,0.0,0.0,0.0,0.0,0.0,0.0,0.0,0.0,0.0,0.0,0.0,0.0,0.0,0.0,0.0,0.0,0.0,0.0,0.0,1.1671,1.2113,1.2049,1.2817,1.3413,1.3766,1.225,1.2126,1.3681,0.0,0.0,0.0,0.0,0.0,0.0,0.0,0.0,0.0,0.0,0.0,0.0,0.0,0.0,0.0,0.0,0.0,0.0,0.0,0.0,0.0,0.0,0.0,0.0,0.0,0.0,0.0,0.0,0.0,0.0,0.0,0.0,0.0,0.0,0.0,0.0,0.0,0.0,-1.0566,-1.0119,0.0,0.0,0.0,0.0,0.0,0.0,0.0,0.0,-0.851,0.0,0.0,0.0,0.0,0.0,0.0,0.0,0.0,0.0,0.0,0.0,0.0,0.0,0.0,0.0,0.0,0.0,0.0,0.0,0.0,0.0,0.0,0.0,0.0,0.0,0.0,0.0,0.0,0.0,0.0,0.0,0.0,0.0,0.0,0.0,0.0,0.0,0.0,0.0,0.0,0.0,0.0,0.0,0.0,0.0,0.0,0.0,0.0,0.0,0.0,0.0,0.0,0.0,0.0,0.0,0.0,1.0178,1.0738,1.1121,1.121,1.1522,1.2074,1.2837,1.1922,1.1872,1.282,0.0,0.0,0.0,0.0,0.0,0.0,0.0,0.0,0.0,0.0,0.0,0.0,0.0,0.0,0.0,0.0,0.0,0.0,0.0,0.0,0.0,0.0,0.0,0.0,0.0,0.0,0.0,0.0,0.0,0.0,0.0,0.0,0.0,0.0,0.0,0.0,0.0,0.0,0.0,-0.8915,-0.8546,0.0,0.0,0.0,0.0,0.0,0.0,0.0,0.0,-0.8555,0.0,0.0,0.0,0.0,0.0,0.0,0.0,0.0,0.0,0.0,0.0,0.0,0.0,0.0,0.0,0.0,0.0,0.0,0.0,0.0,0.0,0.0,0.0,0.0,0.0,0.0,0.0,0.0,0.0,0.0,0.0,0.0,0.0,0.0,0.0,0.0,0.0,0.0,0.0,0.0,0.0,0.0,0.0,0.0,0.0,0.0,0.0,0.0,0.0,0.0,0.0,0.0,0.0,0.0,0.0,1.1347,1.0987,1.0909,1.1098,1.1232,1.155,1.2031,1.1618,1.1991,0.0,0.0,0.0,0.0,0.0,0.0,0.0,0.0,0.0,0.0,0.0,0.0,0.0,0.0,0.0,0.0,0.0,0.0,0.0,0.0,0.0,0.0,0.0,0.0,0.0,0.0,0.0,0.0,0.0,0.0,0.0,0.0,0.0,0.0,0.0,0.0,0.0,0.0,0.0,0.0,-0.8362,-0.8062,-0.8526,0.0,0.0,0.0,0.0,0.0,0.0,-0.8424,-0.8319,0.0,0.0,0.0,0.0,0.0,0.0,0.0,0.0,0.0,0.0,0.0,0.0,0.0,0.0,0.0,0.0,0.0,0.0,0.0,0.0,0.0,0.0,0.0,0.0,0.0,0.0,0.0,0.0,0.0,0.0,0.0,0.0,0.0,0.0,0.0,0.0,0.0,0.0,0.0,0.0,0.0,0.0,0.0,0.0,0.0,0.0,0.0,0.0,0.0,0.0,0.0,0.0,0.0,0.0,0.0,1.2554,1.1455,1.0889,1.093,1.1017,1.1141,1.125,1.1341,1.2109,0.0,0.0,0.0,0.0,0.0,0.0,0.0,0.0,0.0,0.0,0.0,0.0,0.0,0.0,0.0,0.0,0.0,0.0,0.0,0.0,0.0,0.0,0.0,0.0,0.0,0.0,0.0,0.0,0.0,0.0,0.0,0.0,0.0,0.0,0.0,0.0,0.0,0.0,0.0,0.0,0.0,-0.7458,-0.7738,-0.7724,0.0,0.0,0.0,0.0,-0.8452,-0.8104,0.0,0.0,0.0,0.0,0.0,0.0,0.0,0.0,0.0,0.0,0.0,0.0,0.0,0.0,0.0,0.0,0.0,0.0,0.0,0.0,0.0,0.0,0.0,0.0,0.0,0.0,0.0,0.0,0.0,0.0,0.0,0.0,0.0,0.0,0.0,0.0,0.0,0.0,0.0,0.0,0.0,0.0,0.0,0.0,0.0,0.0,0.0,0.0,0.0,0.0,0.0,0.0,0.0,0.0,0.0,0.0,1.2589,1.159,1.0746,1.0087,1.0235,1.0334,1.0367,1.1092,1.1912,0.0,0.0,0.0,0.0,0.0,0.0,0.0,0.0,0.0,0.0,0.0,0.0,0.0,0.0,0.0,0.0,0.0,0.0,0.0,0.0,0.0,0.0,0.0,0.0,0.0,0.0,0.0,0.0,0.0,0.0,0.0,0.0,0.0,0.0,0.0,0.0,0.0,0.0,0.0,0.0,0.0,-0.579,-0.6595,-0.6493,-0.6619,0.0,0.0,-0.8041,-0.8214,-0.8332,0.0,0.0,0.0,0.0,0.0,0.0,0.0,0.0,0.0,0.0,0.0,0.0,0.0,0.0,0.0,0.0,0.0,0.0,0.0,0.0,0.0,0.0,0.0,0.0,0.0,0.0,0.0,0.0,0.0,0.0,0.0,0.0,0.0,0.0,0.0,0.0,0.0,0.0,0.0,0.0,0.0,0.0,0.0,0.0,0.0,0.0,0.0,0.0,0.0,0.0,0.0,0.0,0.0,0.0,0.0,1.3138,1.315,1.1296,1.0169,0.9925,1.0087,1.02,1.0195,1.1438,1.23,0.0,0.0,0.0,0.0,0.0,0.0,0.0,0.0,0.0,0.0,0.0,0.0,0.0,0.0,0.0,0.0,0.0,0.0,0.0,0.0,0.0,0.0,0.0,0.0,0.0,0.0,0.0,0.0,0.0,0.0,0.0,0.0,0.0,0.0,0.0,0.0,0.0,0.0,0.0,0.0,0.0,0.0,-0.677,-0.6739,0.0,0.0,0.0,-0.8005,-0.7487,0.0,0.0,0.0,0.0,0.0,0.0,0.0,0.0,0.0,0.0,0.0,0.0,0.0,0.0,0.0,0.0,0.0,0.0,0.0,0.0,0.0,0.0,0.0,0.0,0.0,0.0,0.0,0.0,0.0,0.0,0.0,0.0,0.0,0.0,0.0,0.0,0.0,0.0,0.0,0.0,0.0,0.0,0.0,0.0,0.0,0.0,0.0,0.0,0.0,0.0,0.0,0.0,0.0,0.0,0.0,0.0,0.0,1.3639,1.1104,0.9812,0.9888,1.0097,1.0193,1.0215,1.1791,0.0,0.0,0.0,0.0,0.0,0.0,0.0,0.0,0.0,0.0,0.0,0.0,0.0,0.0,0.0,0.0,0.0,0.0,0.0,0.0,0.0,0.0,0.0,0.0,0.0,0.0,0.0,-0.584,0.0,0.0,0.0,0.0,0.0,0.0,0.0,0.0,0.0,0.0,0.0,0.0,0.0,0.0,-0.5996,-0.6748,-0.67,-0.6596,0.0,0.0,-0.7897,-0.7198,-0.7341,-0.7633,0.0,0.0,0.0,0.0,0.0,0.0,0.0,0.0,0.0,0.0,0.0,0.0,0.0,0.0,0.0,0.0,0.0,0.0,0.0,0.0,0.0,0.0,0.0,0.0,0.0,0.0,0.0,0.0,0.0,0.0,0.0,0.0,0.0,0.0,0.0,0.0,0.0,0.0,0.0,0.0,0.0,0.0,0.0,0.0,0.0,0.0,0.0,0.0,0.0,0.0,0.0,0.0,0.0,0.0,0.0,1.3601,1.1187,0.9925,0.9919,1.0098,1.0195,1.0234,1.188,1.2772,0.0,0.0,0.0,0.0,0.0,0.0,0.0,0.0,0.0,0.0,0.0,0.0,0.0,0.0,0.0,0.0,0.0,0.0,0.0,0.0,0.0,0.0,0.0,0.0,0.0,0.0,0.0,0.0,0.0,0.0,0.0,0.0,0.0,0.0,0.0,0.0,0.0,0.0,0.0,0.0,0.0,-0.6228,-0.5933,-0.5669,-0.5613,0.0,0.0,-0.7633,-0.7789,-0.8109,-0.7971,-0.6983,0.0,0.0,0.0,0.0,0.0,0.0,0.0,0.0,0.0,0.0,0.0,0.0,0.0,0.0,0.0,0.0,0.0,0.0,0.0,0.0,0.0,0.0,0.0,0.0,0.0,0.0,0.0,0.0,0.0,0.0,0.0,0.0,0.0,0.0,0.0,0.0,0.0,0.0,0.0,0.0,0.0,0.0,0.0,0.0,0.0,0.0,0.0,0.0,0.0,0.0,0.0,0.0,0.0,1.3717,1.3751,1.2083,1.1302,1.1515,1.1692,1.1802,1.1799,1.264,1.322,0.0,0.0,0.0,0.0,0.0,0.0,0.0,0.0,0.0,0.0,0.0,0.0,0.0,0.0,0.0,0.0,0.0,0.0,0.0,0.0,0.0,0.0,0.0,0.0,0.0,0.0,0.0,0.0,-0.7762,-0.8218,-1.1627,0.0,0.0,0.0,0.0,0.0,0.0,0.0,0.0,0.0,0.0,-0.5918,-0.6191,-0.5856,0.0,0.0,-0.7236,-0.765,-0.707,-0.8229,-0.8877,-0.7948,-1.0034,0.0,0.0,0.0,0.0,0.0,0.0,0.0,0.0,0.0,0.0,0.0,0.0,0.0,0.0,0.0,0.0,0.0,0.0,0.0,0.0,0.0,0.0,0.0,0.0,0.0,0.0,0.0,0.0,0.0,0.0,0.0,0.0,0.0,0.0,0.0,0.0,0.0,0.0,0.0,0.0,0.0,0.0,0.0,0.0,0.0,0.0,0.0,0.0,0.0,0.0,0.0,0.0,1.4229,1.4146,1.2812,1.2246,1.2476,1.2661,1.2792,1.2805,1.3182,1.3569,0.0,0.0,0.0,0.0,0.0,0.0,0.0,0.0,0.0,0.0,0.0,0.0,0.0,0.0,0.0,0.0,0.0,0.0,0.0,0.0,0.0,0.0,0.0,0.0,0.0,0.0,0.0,0.0,-1.0006,-1.127,-1.4241,0.0,0.0,0.0,0.0,0.0,0.0,0.0,0.0,0.0,0.0,-0.6128,-0.6265,-0.6125,-0.6139,-0.6451,-0.7685,-0.8217,-0.7212,-0.8758,-1.0033,-0.9842,0.0,0.0,0.0,0.0,0.0,0.0,0.0,0.0,0.0,0.0,0.0,0.0,0.0,0.0,0.0,0.0,0.0,0.0,0.0,0.0,0.0,0.0,0.0,0.0,0.0,0.0,0.0,0.0,0.0,0.0,1.1602,0.0,0.0,0.0,0.0,0.0,0.0,0.0,0.0,0.0,0.0,0.0,0.0,0.0,0.0,0.0,0.0,0.0,0.0,0.0,0.0,0.0,0.0,1.4992,1.4953,1.3306,1.2464,1.256,1.2649,1.2805,1.2848,1.3338,1.3754,1.4052,0.0,0.0,0.0,0.0,0.0,0.0,0.0,0.0,0.0,0.0,0.0,0.0,0.0,0.0,0.0,0.0,0.0,0.0,0.0,0.0,0.0,0.0,0.0,0.0,0.0,0.0,-1.143,-1.2062,-1.3181,0.0,0.0,0.0,0.0,0.0,0.0,0.0,0.0,0.0,0.0,-0.7818,-0.6962,-0.6007,-0.6323,-0.6518,-0.5997,-0.8041,-0.9424,-0.8682,-0.9925,-1.138,0.0,0.0,0.0,0.0,0.0,0.0,0.0,0.0,0.0,0.0,0.0,0.0,0.0,0.0,0.0,0.0,0.0,0.0,0.0,0.0,0.0,0.0,0.0,0.0,0.0,0.0,0.0,1.3258,1.3529,0.0,0.0,0.0,0.0,0.0,0.0,0.0,0.0,0.0,0.0,0.0,1.5983,1.6191,0.0,0.0,0.0,0.0,0.0,0.0,0.0,0.0,0.0,0.0,0.0,0.0,1.5663,1.5496,1.4563,1.411,1.4241,1.4374,1.4452,1.4467,1.4637,1.5155,1.6044,0.0,0.0,0.0,0.0,0.0,0.0,0.0,0.0,0.0,0.0,0.0,0.0,0.0,0.0,0.0,0.0,0.0,0.0,0.0,0.0,0.0,0.0,0.0,0.0,0.0,-0.7702,0.0,0.0,0.0,0.0,0.0,0.0,0.0,0.0,0.0,0.0,0.0,-1.1716,-0.9645,-0.7839,-0.6808,-0.7047,-0.7387,-0.7897,0.0,0.0,0.0,0.0,0.0,0.0,0.0,0.0,0.0,0.0,0.0,0.0,0.0,0.0,-1.6442,-1.5572,-1.4325,-1.3524,-1.3925,0.0,0.0,0.0,0.0,0.0,0.0,0.0,0.0,0.0,0.0,0.0,0.0,0.0,0.0,1.4918,0.0,1.5173,0.0,0.0,0.0,0.0,0.0,0.0,0.0,0.0,1.5226,1.5579,1.6136,1.6367,1.6628,0.0,1.7656,1.8044,0.0,0.0,0.0,0.0,0.0,0.0,0.0,0.0,1.6042,1.5755,1.5244,1.5026,1.5086,1.5215,1.5276,1.5235,1.5229,1.5628,1.6487,1.6497,1.7137,0.0,0.0,0.0,0.0,0.0,0.0,0.0,0.0,0.0,0.0,0.0,0.0,0.0,0.0,0.0,0.0,0.0,0.0,0.0,0.0,0.0,0.0,0.0,-0.8037,0.0,0.0,0.0,0.0,0.0,0.0,0.0,0.0,0.0,-1.3739,-1.249,-1.1147,-0.9955,-0.8193,-0.7246,-0.7886,0.0,0.0,0.0,0.0,0.0,0.0,0.0,-1.2601,-1.2638,-1.2874,-1.3003,-1.2857,-1.3684,-1.4373,-1.4405,0.0,0.0,-1.6328,-1.5211,-1.4321,-1.4618,-1.4155,-1.365,-1.3499,-1.3492,-1.3507,0.0,0.0,0.0,0.0,0.0,0.0,0.0,0.0,1.6117,1.6486,0.0,1.6394,0.0,0.0,0.0,0.0,0.0,1.4109,0.0,0.0,1.5492,1.6044,1.6795,1.6831,1.728,1.8159,1.8293,1.8438,1.8559,1.8038,0.0,0.0,0.0,0.0,0.0,0.0,1.6177,1.5874,1.5405,1.5156,1.5163,1.5234,1.5212,1.5108,1.5106,1.5192,1.5389,1.5439,1.6192,1.7871,1.748,0.0,0.0,0.0,0.0,0.0,0.0,0.0,0.0,0.0,0.0,0.0,0.0,0.0,0.0,0.0,0.0,0.0,0.0,0.0,0.0,-0.6961,0.0,0.0,0.0,0.0,0.0,0.0,0.0,0.0,0.0,0.0,-1.4454,-1.1801,-0.9801,-0.9881,0.0,0.0,0.0,0.0,-0.9943,-1.0017,-1.1113,-1.198,-1.2009,-1.2762,-1.3345,-1.3312,0.0,0.0,-1.3411,-1.3438,-1.3532,-1.3378,-1.3776,-1.4438,-1.6011,-1.622,-1.5748,-1.4332,-1.4578,-1.484,-1.4219,-1.3853,-1.3707,1.6647,0.0,0.0,0.0,0.0,1.6323,1.6144,1.5507,1.6671,1.6688,1.5921,1.6226,0.0,0.0,0.0,0.0,0.0,0.0,1.5593,1.6678,1.6304,1.6628,1.7572,1.7295,1.7406,1.7837,1.7941,1.8207,1.8565,1.8233,1.8216,1.8513,0.0,0.0,0.0,0.0,1.7907,1.8045,1.6838,1.6124,1.6015,1.5453,1.5133,1.511,1.5003,1.5099,1.5391,1.5421,1.5908,1.7012,1.75,0.0,0.0,0.0,0.0,0.0,0.0,0.0,0.0,0.0,0.0,0.0,0.0,0.0,0.0,0.0,0.0,0.0,0.0,0.0,-0.3577,-0.6743,-1.0131,0.0,0.0,0.0,0.0,0.0,0.0,0.0,0.0,0.0,-1.5227,-1.2666,-1.0819,0.0,0.0,-1.096,-1.1485,-1.1896,-1.2488,-1.3366,-1.4484,0.0,-1.4039,-1.4332,-1.4394,-1.3589,-1.3686,-1.3896,-1.3924,-1.3979,-1.4034,-1.4136,-1.4257,-1.4501,-1.4888,-1.4824,-1.4652,-1.4581,-1.4629,-1.4647,-1.4639,-1.4568,-1.4522,1.807,1.7844,1.7468,1.7077,1.6694,1.7472,1.7434,1.6921,1.7912,1.7922,1.7258,1.7568,1.7222,1.6382,1.5698,0.0,0.0,0.0,1.6233,1.7117,1.7267,1.7377,1.7492,1.7897,1.8023,1.7919,1.8087,1.8397,1.877,1.8923,1.8984,1.8955,0.0,0.0,1.9107,1.8582,1.8391,1.853,1.7639,1.6924,1.6521,1.5613,1.4978,1.47,1.4882,1.5123,1.5352,1.3418,1.2285,1.2148,1.5234,1.5598,0.0,0.0,0.0,0.0,0.0,0.0,0.0,0.0,0.0,0.0,0.0,-0.4339,-0.221,0.0,0.0,0.0,-0.639,-0.6866,-0.6859,-0.9463,0.0,0.0,0.0,0.0,0.0,0.0,0.0,-1.3905,-1.3759,-1.4374,-1.5889,-1.362,-1.207,-1.2763,-1.2718,-1.2829,-1.3456,0.0,-1.4324,-1.5369,-1.601,-1.6152,-1.5545,-1.5358,-1.4951,-1.4023,-1.4111,-1.4259,-1.4265,-1.4332,-1.4409,-1.4462,-1.4526,-1.4549,-1.4499,-1.4338,-1.4343,-1.4794,-1.4812,-1.4774,-1.4909,-1.4976,-1.503,1.9596,1.9563,1.9252,1.8664,1.8092,1.9089,1.907,1.8499,1.952,1.9715,1.9308,1.961,1.9232,1.8238,1.6606,0.0,1.6239,1.6572,1.6771,1.6969,1.8199,1.8131,1.7065,1.8443,1.8791,1.8166,1.8505,1.878,1.9003,1.9633,1.9703,1.9123,1.8735,1.8464,1.8276,1.8278,1.8184,1.7985,1.7983,1.7575,1.6807,1.5849,1.5013,1.4382,1.5,1.5188,1.4668,1.0312,0.6777,0.4844,1.0703,1.0762,0.3496,0.0,0.0,0.0,0.0,0.0,0.0,0.0,0.0,0.0,0.0,0.0,0.0,0.0,0.0,0.0,-0.8422,0.0,-1.0013,-1.3893,0.0,0.0,0.0,-1.6634,-1.5042,-1.598,-1.595,-1.404,0.0,0.0,-1.6538,-1.4704,-1.3587,-1.4595,-1.4301,-1.4218,-1.4808,-1.518,-1.5663,-1.6443,-1.6391,-1.6389,-1.664,-1.6117,-1.5501,-1.5012,-1.4925,-1.5057,-1.4818,-1.4746,-1.4759,-1.4655,-1.4664,-1.4697,-1.4567,-1.4639,-1.4757,-1.4902,-1.5045,-1.5121,-1.5052,-1.5107,-1.5189,2.0508,2.0311,2.0737,2.0101,1.8828,1.9538,1.9317,1.8515,1.9503,1.9231,1.8135,1.847,1.833,1.7799,1.6908,1.68,1.73,1.6904,1.7438,1.8654,1.8003,1.7924,1.8363,1.788,1.7696,1.7798,1.7603,1.7928,1.8642,1.8432,1.8319,1.8346,1.8266,1.8413,1.8801,1.9012,1.9175,1.9323,1.8887,1.8292,1.757,1.7047,1.6838,1.6895,1.6939,1.4614,0.9766,0.9004,0.5762,-0.0312,0.207,0.4512,0.6309,-0.2506,0.0,0.0,0.0,0.0,0.0,0.0,0.0,0.0,0.0,-1.0459,-0.8191,0.0,-0.6962,0.0,-1.1628,-1.4934,-1.29,-1.5206,0.0,0.0,-1.6498,-1.6132,-1.6136,-1.6085,-1.5526,-1.4176,-1.4776,-1.5707,-1.6686,-1.6689,-1.6635,-1.6696,-1.6116,-1.589,-1.6448,-1.6755,-1.7241,-1.8002,-1.8328,-1.8292,-1.776,-1.7256,-1.7015,-1.733,-1.7037,-1.6782,-1.6695,-1.6139,-1.5744,-1.5659,-1.5208,-1.4915,-1.4904,-1.4917,-1.4973,-1.5087,-1.5099,-1.5073,-1.514,-1.5224,-1.526,2.0956,2.0912,2.1207,2.0823,2.0102,2.0532,2.016,1.9325,2.0067,1.9829,1.8839,1.8454,1.8093,1.7758,1.7035,1.7092,1.7739,1.7644,1.813,1.9061,1.8778,1.8377,1.7877,1.7928,1.7523,1.6708,1.6504,1.6638,1.704,1.6516,1.6189,1.6095,1.6403,1.6513,1.6476,1.7931,1.9029,1.9738,1.8727,1.7713,1.6699,1.4274,1.4395,1.7193,1.217,0.8903,0.7695,0.3027,-0.1582,-0.5781,-0.752,-0.6125,-0.1326,-0.7298,-1.3466,0.0,0.0,0.0,0.0,0.0,0.0,0.0,0.0,0.0,0.0,0.0,-0.9923,-0.8558,-1.3455,-1.6183,-1.4962,-1.6513,-1.7701,-1.7896,-1.7555,-1.7186,-1.683,-1.6842,-1.6353,-1.5041,-1.5677,-1.6522,-1.7239,-1.76,-1.7884,-1.8097,-1.8288,-1.8306,-1.7984,-1.8145,-1.8572,-1.9154,-1.9354,-1.9328,-1.8843,-1.861,-1.844,-1.8414,-1.8147,-1.7846,-1.7537,-1.7101,-1.677,-1.6732,-1.639,-1.6046,-1.5857,-1.5393,-1.5325,-1.6003,-1.565,-1.521,-1.5236,-1.5263,-1.5288,2.1135,2.1376,2.1119,2.1135,2.1295,2.1402,2.0991,2.0314,2.0715,2.0602,2.0011,1.9043,1.8341,1.787,1.7232,1.7346,1.8043,1.839,1.8629,1.8783,1.955,1.8691,1.6657,1.7822,1.7349,1.533,1.5209,1.5062,1.4805,1.4483,1.3982,1.34,1.4137,1.4139,1.3557,1.618,1.8284,1.9701,1.8274,1.6633,1.471,0.963,0.9316,1.3698,0.4838,0.1522,0.5096,-0.4475,-1.0488,-1.1612,-1.6367,-1.7171,-1.3039,-1.3282,-1.5392,0.0,-2.1187,0.0,0.0,0.0,0.0,0.0,0.0,0.0,0.0,-1.3081,-1.2636,-1.3028,-1.48,-1.6168,-1.6724,-1.7822,-1.8618,-1.8904,-1.9136,-1.8733,-1.7445,-1.7902,-1.7766,-1.6225,-1.649,-1.7173,-1.8447,-1.8631,-1.9049,-1.9417,-2.0532,-2.0768,-1.9614,-1.9599,-1.9995,-2.0206,-2.0111,-2.0193,-2.0077,-2.0048,-1.9799,-1.9058,-1.8869,-1.8612,-1.8117,-1.789,-1.7775,-1.7775,-1.7622,-1.7417,-1.7067,-1.6189,-1.6022,-1.7119,-1.6459,-1.5663,-1.5377,-1.53,-1.5346,2.1183,2.1376,2.1119,2.0909,2.0738,2.0597,2.0483,2.0314,2.0416,1.9885,1.9034,1.9321,1.8886,1.7942,1.8195,1.8455,1.8677,1.826,1.8339,1.8817,1.8067,1.72,1.6292,1.5627,1.4906,1.412,1.3672,1.3236,1.2782,1.3532,1.3276,1.2117,1.33,1.4162,1.4588,0.0,0.0,0.0,1.9096,1.6265,1.1344,0.613,0.2411,0.0537,0.1404,0.0,-0.5506,-0.75,-1.1425,-1.7619,-1.9368,0.0,0.0,0.0,0.0,0.0,0.0,0.0,0.0,0.0,0.0,0.0,-1.8702,-1.7436,-1.6436,-1.5269,-1.4518,-1.452,-1.7354,-1.9092,-1.8726,-1.8885,-1.9236,-1.9627,-1.9361,-1.8943,-1.8441,-1.8891,-1.8758,-1.759,-1.7066,-1.8046,-2.097,-2.2852,-2.3055,-2.1373,-2.2319,-2.2652,-2.1359,-2.1489,-2.2038,-2.2622,-2.2277,-2.1838,-2.1342,-2.1398,-2.096,-2.0292,-1.9985,-1.9888,-1.9692,-1.9135,-1.8739,-1.8712,-1.8174,-1.7694,-1.76,-1.735,-1.7164,-1.6811,-1.703,-1.6914,-1.5598,-1.5334,-1.5387,1.9959,0.0,1.9863,1.9477,0.0,1.9273,1.9207,1.9214,1.9221,1.8767,1.8028,1.7993,1.7859,1.7636,1.7817,1.7815,1.7639,1.7577,1.7577,1.7571,1.697,1.6281,1.5464,1.5396,1.4533,1.2836,1.0833,1.0145,1.0708,1.101,1.0591,0.9558,1.1315,1.2246,1.249,1.4458,1.6515,1.8478,1.7809,1.3695,0.6041,-0.004,-0.3255,-0.3537,-0.6028,0.0,0.0,0.0,0.0,0.0,0.0,0.0,0.0,0.0,0.0,-2.2291,-2.3036,-2.3389,-2.2984,-2.239,-2.1967,-2.1833,-2.0928,-1.9609,-1.787,-1.7112,-1.6873,-1.7167,-1.928,-2.0477,-2.018,-1.9876,-1.9803,-2.0046,-1.9764,-1.9484,-1.9343,-1.9763,-2.0115,-1.9976,-1.9043,-1.9619,-2.2732,-2.4484,-2.4535,-2.2652,-2.3113,-2.3586,-2.3032,-2.2766,-2.2946,-2.3564,-2.314,-2.2654,-2.2307,-2.1534,-2.1043,-2.0438,-2.0323,-2.0318,-2.0292,-1.9945,-1.9638,-1.9622,-1.9273,-1.8984,-1.8984,-1.8984,-1.8879,-1.8464,-1.7897,-1.7257,-1.6288,-1.5793,-1.5406,1.8422,1.931,1.8245,1.7692,1.7531,1.7692,1.7611,1.7317,0.0,0.0,0.0,1.638,1.636,1.6801,1.6771,1.657,1.6268,1.657,1.6435,1.5985,1.5788,1.514,1.4264,1.5465,1.4482,1.1518,0.8198,0.736,0.8692,0.854,0.7975,0.7254,0.867,0.94,0.941,1.1118,1.2829,1.4249,1.3613,0.8802,-0.0199,-0.6798,-0.8916,-0.6284,-1.3375,-1.5288,-1.1342,-1.6594,-1.9887,-2.0399,-2.1526,-2.1742,-2.0954,-2.2999,-2.3878,-2.3118,-2.4212,-2.4898,-2.4841,-2.4411,-2.3856,-2.3259,-2.2224,-2.0767,-1.8826,-1.8921,-1.9269,-1.9855,-2.0789,-2.1403,-2.1397,-2.0843,-2.0477,-2.0567,-2.04,-2.0287,-2.0307,-2.0842,-2.1677,-2.2447,-2.1376,-2.1291,-2.3583,-2.4941,-2.5111,-2.3746,-2.3788,-2.4136,-2.4238,-2.3895,-2.3722,-2.4138,-2.3867,-2.3411,-2.3173,-2.2047,-2.0778,-2.0419,-2.0373,-2.0385,-2.034,-2.0328,-2.032,-2.0237,-2.0325,-2.0255,-2.0287,-2.019,-2.0308,-2.0263,-1.8739,-1.7247,-1.6992,-1.6289,-1.5644,1.7222,1.8231,1.706,1.5998,1.5229,1.6187,1.5659,1.4437,1.6391,1.6664,1.5585,1.5475,1.5205,1.4905,1.5344,1.5574,1.558,1.5112,1.4822,1.4721,1.3662,1.2817,1.2253,1.4056,1.3253,1.0097,0.7716,0.6724,0.7092,0.8097,0.7805,0.6177,0.5531,0.5798,0.6443,0.2704,0.1634,0.3705,0.3487,-0.0,-0.6811,-1.2322,-1.5711,-1.6677,-1.6615,-1.7187,-1.792,-1.868,-1.9627,-2.0705,-2.2565,-2.3332,-2.2808,-2.4309,-2.4934,-2.4205,-2.4969,-2.536,-2.5072,-2.4801,-2.426,-2.3252,-2.2224,-2.0958,-1.9572,-2.0735,-2.1449,-2.1254,-2.2116,-2.2752,-2.2612,-2.194,-2.1486,-2.1573,-2.1504,-2.1573,-2.1893,-2.2543,-2.3403,-2.4531,-2.3178,-2.2447,-2.3851,-2.4936,-2.5309,-2.4739,-2.4727,-2.516,-2.5141,-2.5252,-2.5191,-2.5312,-2.5294,-2.5153,-2.4592,-2.362,-2.1978,-2.059,-2.0464,-2.0491,-2.0493,-2.0424,-2.0409,-2.0381,-2.0391,-2.0376,-2.0376,-2.0376,-2.0167,-1.9712,-1.8953,-1.8299,-1.7246,-1.668,-1.623,1.5339,1.5184,1.4992,1.4115,1.2969,1.3496,1.3299,1.2596,1.2935,1.3191,1.3401,1.3398,1.3215,1.3016,1.4095,1.3757,1.2292,1.2628,1.2223,1.1354,1.0797,1.038,1.0234,1.1813,1.1191,0.8619,0.7267,0.6381,0.614,0.6825,0.605,0.3947,0.2648,0.3482,0.5848,0.0961,-0.3913,-0.8092,-0.8318,-0.9591,-1.2149,-1.5104,-1.7121,-1.8109,-1.7976,-1.8718,-2.0318,-2.0533,-2.101,-2.1791,-2.3296,-2.3805,-2.3183,-2.4664,-2.5194,-2.4448,-2.5121,-2.547,-2.5176,-2.4479,-2.3779,-2.3076,-2.2371,-2.1707,-2.1098,-2.1888,-2.2453,-2.252,-2.283,-2.3051,-2.3227,-2.2546,-2.212,-2.229,-2.2259,-2.2522,-2.3125,-2.3561,-2.4206,-2.5051,-2.4594,-2.422,-2.4647,-2.5197,-2.5449,-2.5174,-2.5264,-2.524,-2.4934,-2.5195,-2.5498,-2.5605,-2.5657,-2.5286,-2.4618,-2.2915,-2.1736,-2.1313,-2.0889,-2.0766,-2.0931,-2.0818,-2.0455,-2.0395,-2.0391,-2.0391,-2.0391,-2.0379,-2.0204,-2.0065,-1.985,-1.9255,-1.8338,-1.7369,-1.6374,1.3398,1.2501,1.2867,1.2263,1.1045,1.0968,1.0888,1.0672,0.9649,0.97,1.0573,1.0755,1.0876,1.1051,1.2098,1.1416,0.9708,1.012,0.9843,0.8763,0.8502,0.8338,0.8397,0.97,0.945,0.7883,0.6686,0.5987,0.5778,0.5635,0.3498,0.0056,-0.1452,0.0334,0.4746,-0.1159,-0.7759,-1.433,-1.6322,-1.6685,-1.5716,-1.7098,-1.7905,-1.7987,-1.8898,-2.0089,-2.1455,-2.1854,-2.2342,-2.2972,-2.4003,-2.4303,-2.3784,-2.4898,-2.532,-2.4824,-2.5267,-2.5494,-2.5171,-2.4162,-2.3441,-2.316,-2.2669,-2.2337,-2.2314,-2.2648,-2.3106,-2.3515,-2.3382,-2.3325,-2.3442,-2.3031,-2.2709,-2.2876,-2.2921,-2.3276,-2.4093,-2.4347,-2.4646,-2.5271,-2.5459,-2.5395,-2.5304,-2.5332,-2.5327,-2.5231,-2.5236,-2.4976,-2.4598,-2.5004,-2.5443,-2.5598,-2.5681,-2.5234,-2.4035,-2.2366,-2.143,-2.1857,-2.114,-2.0896,-2.1104,-2.0837,-2.0547,-2.0453,-2.0444,-2.0447,-2.0444,-2.0444,-2.0455,-2.0437,-2.0405,-2.0058,-1.8888,-1.7582,-1.6366,1.1926,1.1594,1.1282,1.0612,0.9789,0.9219,0.8612,0.8063,0.7799,0.7488,0.7306,0.7717,0.8378,0.8813,0.8541,0.8489,0.8605,0.8168,0.8171,0.8453,0.7872,0.7268,0.6869,0.8238,0.8856,0.8196,0.5845,0.5062,0.5936,0.5056,0.0445,-0.6905,-0.7964,-0.5026,-0.0991,-0.7416,-1.0748,-0.9259,-1.5834,-1.8387,-1.6712,-1.9122,-2.0111,-1.9273,-1.9969,-2.0981,-2.2293,-2.2155,-2.267,-2.3814,-2.482,-2.5371,-2.5364,-2.5523,-2.5593,-2.5566,-2.5644,-2.5551,-2.5182,-2.4261,-2.373,-2.3817,-2.307,-2.2504,-2.238,-2.2988,-2.3611,-2.4025,-2.4236,-2.4054,-2.3578,-2.3445,-2.343,-2.3522,-2.3542,-2.3928,-2.4774,-2.504,-2.5184,-2.5593,-2.5527,-2.537,-2.5035,-2.4963,-2.4923,-2.4953,-2.5034,-2.5056,-2.4966,-2.517,-2.5394,-2.5484,-2.5551,-2.5115,-2.4078,-2.2917,-2.1676,-2.0968,-2.0717,-2.0722,-2.082,-2.0781,-2.0585,-2.0508,-2.0546,-2.0546,-2.0546,-2.0585,-2.0585,-2.0547,-2.0407,-2.0,-1.8459,-1.7303,-1.6382,1.1499,1.104,1.0458,0.9533,0.8416,0.7281,0.687,0.694,0.6126,0.581,0.5928,0.5814,0.6239,0.7106,0.7925,0.7589,0.6244,0.5878,0.5891,0.6073,0.4893,0.422,0.4168,0.5572,0.5804,0.4791,0.2817,0.2153,0.2494,0.2114,-0.1549,-0.7362,-0.8526,-0.7516,-0.555,-0.7723,-0.8696,-0.856,-1.5286,-1.8117,-1.6961,-1.8582,-1.976,-1.9962,-2.0373,-2.1702,-2.3605,-2.3914,-2.4253,-2.4901,-2.5304,-2.5535,-2.5601,-2.5601,-2.5633,-2.5684,-2.5625,-2.5535,-2.5379,-2.4675,-2.4084,-2.3805,-2.3379,-2.3033,-2.282,-2.32,-2.379,-2.4449,-2.4459,-2.4278,-2.4245,-2.4164,-2.4132,-2.4275,-2.4321,-2.4492,-2.4896,-2.4937,-2.5095,-2.5492,-2.5434,-2.5221,-2.4932,-2.4889,-2.4922,-2.4949,-2.5053,-2.5113,-2.5075,-2.5216,-2.5272,-2.5185,-2.4942,-2.4547,-2.3891,-2.2302,-2.1175,-2.0677,-2.0508,-2.0558,-2.105,-2.0736,-2.048,-2.0482,-2.0484,-2.0484,-2.046,-2.056,-2.0599,-2.0543,-2.0408,-1.9916,-1.8177,-1.7514,-1.6753,1.1184,1.0566,0.9592,0.8402,0.7147,0.5865,0.5571,0.5899,0.4919,0.4787,0.5117,0.4695,0.4871,0.5538,0.6179,0.5389,0.3922,0.3466,0.3297,0.313,0.2117,0.1392,0.1168,0.2554,0.2443,0.0945,-0.0498,-0.1437,-0.1716,-0.1659,-0.3643,-0.7068,-0.816,-0.8597,-0.8613,-0.7331,-0.7581,-0.987,-1.5215,-1.7603,-1.698,-1.8297,-1.9544,-2.0306,-2.1249,-2.275,-2.4771,-2.5096,-2.5312,-2.5554,-2.5504,-2.5534,-2.5541,-2.5545,-2.5605,-2.564,-2.5542,-2.5486,-2.5473,-2.5008,-2.4522,-2.4043,-2.3916,-2.3729,-2.3526,-2.3669,-2.4192,-2.485,-2.4615,-2.4512,-2.4626,-2.4539,-2.4487,-2.4613,-2.4634,-2.4649,-2.4714,-2.4726,-2.4873,-2.522,-2.5118,-2.4931,-2.4708,-2.4685,-2.4728,-2.4762,-2.4949,-2.5068,-2.4956,-2.5041,-2.5133,-2.4936,-2.4258,-2.373,-2.3487,-2.2177,-2.0886,-2.0452,-2.0437,-2.0613,-2.1231,-2.0687,-2.041,-2.0416,-2.0398,-2.0395,-2.0429,-2.0499,-2.0538,-2.0465,-2.0337,-1.9906,-1.8529,-1.8005,-1.7247,1.0613,1.0089,0.8201,0.6993,0.6011,0.5129,0.4789,0.4901,0.4591,0.4529,0.4608,0.4452,0.4507,0.4406,0.2012,0.1111,0.1895,0.0776,0.0166,0.0167,0.0055,-0.0666,-0.1839,-0.0556,-0.0556,-0.1839,-0.3186,-0.4588,-0.5881,-0.569,-0.6237,-0.7399,-0.7764,-0.8176,-0.867,-0.7888,-0.8989,-1.2342,-1.5417,-1.7114,-1.7326,-1.9063,-2.0171,-2.0651,-2.285,-2.4345,-2.4904,-2.5114,-2.5308,-2.5513,-2.5499,-2.5468,-2.5432,-2.5457,-2.5511,-2.5507,-2.5492,-2.5472,-2.5389,-2.5181,-2.4992,-2.4884,-2.4691,-2.4542,-2.4182,-2.441,-2.4775,-2.5234,-2.4917,-2.4685,-2.4545,-2.4394,-2.4265,-2.4284,-2.4265,-2.4358,-2.4493,-2.4505,-2.4613,-2.4774,-2.4723,-2.4557,-2.4284,-2.4228,-2.4321,-2.4357,-2.4498,-2.4631,-2.4639,-2.4836,-2.4911,-2.4517,-2.3688,-2.2729,-2.2782,-2.1817,-2.1041,-2.0642,-2.0376,-2.0409,-2.0426,-2.041,-2.0383,-2.0379,-2.0366,-2.0385,-2.0402,-2.0413,-2.0405,-2.036,-2.0334,-1.9752,-1.884,-1.8197,-1.7561,1.0398,0.972,0.7333,0.6519,0.6662,0.5216,0.4653,0.4816,0.4674,0.4674,0.4461,0.3572,0.3582,0.4311,0.0348,-0.1649,-0.2069,-0.2681,-0.285,-0.2903,-0.2903,-0.3183,-0.3527,-0.3077,-0.3132,-0.3644,-0.4212,-0.5049,-0.5982,-0.5791,-0.6524,-0.7972,-0.8283,-0.8784,-0.9508,-0.9577,-1.0897,-1.3362,-1.4552,-1.5666,-1.7399,-1.9443,-2.0963,-2.1992,-2.3164,-2.4306,-2.5381,-2.5401,-2.5469,-2.5551,-2.5488,-2.5447,-2.5469,-2.5483,-2.5513,-2.5508,-2.5479,-2.5363,-2.5239,-2.5213,-2.5129,-2.4898,-2.4917,-2.4854,-2.4695,-2.4761,-2.4855,-2.4975,-2.4915,-2.4716,-2.4547,-2.4432,-2.4413,-2.4413,-2.4377,-2.4357,-2.4321,-2.4303,-2.4338,-2.4388,-2.4371,-2.4301,-2.4264,-2.4321,-2.4393,-2.4392,-2.4578,-2.461,-2.4578,-2.4708,-2.4662,-2.3911,-2.3059,-2.2227,-2.1719,-2.1081,-2.0441,-2.0346,-2.0215,-2.0234,-2.0229,-2.0283,-2.0283,-2.0204,-2.0237,-2.0314,-2.034,-2.0346,-2.0334,-2.0314,-2.03,-1.9973,-1.9184,-1.8624,-1.8182,0.991,0.8777,0.72,0.6531,0.6542,0.531,0.4796,0.4965,0.483,0.483,0.4549,0.3011,0.3081,0.3576,-0.018,-0.3056,-0.4415,-0.4475,-0.4501,-0.4497,-0.4494,-0.4487,-0.4484,-0.4487,-0.4487,-0.4484,-0.4484,-0.4974,-0.5791,-0.5605,-0.6514,-0.8156,-0.8119,-0.8475,-0.9325,-1.0084,-1.1427,-1.3057,-1.3862,-1.5367,-1.7701,-1.9812,-2.1759,-2.3296,-2.3831,-2.4503,-2.562,-2.5584,-2.5533,-2.5531,-2.5461,-2.5396,-2.5428,-2.5434,-2.5434,-2.5434,-2.5394,-2.5313,-2.5197,-2.5245,-2.5212,-2.5006,-2.5049,-2.508,-2.5031,-2.4974,-2.4986,-2.4979,-2.4733,-2.4559,-2.4561,-2.4486,-2.4413,-2.4412,-2.4413,-2.4337,-2.4226,-2.4209,-2.4209,-2.4228,-2.4209,-2.4209,-2.4209,-2.4321,-2.4375,-2.441,-2.4545,-2.4526,-2.4461,-2.454,-2.4507,-2.368,-2.2817,-2.2089,-2.1467,-2.0771,-2.0207,-2.0059,-2.0041,-2.006,-2.0213,-2.025,-2.0202,-2.0098,-2.0097,-2.0216,-2.0269,-2.0285,-2.0285,-2.0285,-2.0265,-2.0073,-1.9538,-1.9123,-1.8773,0.912,0.7778,0.7861,0.6923,0.5745,0.5248,0.5101,0.5104,0.4982,0.4945,0.4869,0.3153,0.3113,0.3164,-0.0185,-0.2921,-0.4277,-0.4495,-0.4412,-0.4402,-0.4458,-0.4511,-0.4511,-0.4501,-0.448,-0.4467,-0.4467,-0.4959,-0.5719,-0.5546,-0.6105,-0.7084,-0.7139,-0.7522,-0.7811,-0.9416,-1.0612,-1.226,-1.4146,-1.6186,-1.8272,-2.029,-2.2332,-2.4334,-2.4879,-2.5195,-2.5576,-2.5598,-2.552,-2.5421,-2.5406,-2.5371,-2.5274,-2.5284,-2.5274,-2.5284,-2.5293,-2.5293,-2.5284,-2.5284,-2.5303,-2.5222,-2.5264,-2.5264,-2.5244,-2.5253,-2.5224,-2.5088,-2.4693,-2.4393,-2.4623,-2.441,-2.4227,-2.419,-2.4246,-2.4246,-2.4208,-2.419,-2.419,-2.419,-2.419,-2.419,-2.419,-2.4228,-2.4247,-2.4247,-2.4266,-2.4266,-2.4266,-2.441,-2.4393,-2.3915,-2.3155,-2.2418,-2.152,-2.0674,-2.0191,-1.9818,-1.9862,-1.9934,-2.0353,-2.05,-2.0367,-2.0251,-2.0019,-2.0108,-2.0259,-2.0268,-2.0199,-2.0199,-2.0205,-2.0142,-1.9791,-1.9421,-1.9401,0.9214,0.8615,0.7385,0.6677,0.6155,0.5339,0.5094,0.5267,0.5138,0.5138,0.5162,0.4652,0.3335,0.1559,-0.0,-0.1897,-0.435,-0.446,-0.4213,-0.3903,-0.4435,-0.4716,-0.4699,-0.467,-0.4565,-0.449,-0.448,-0.4639,-0.4893,-0.4824,-0.5354,-0.6308,-0.7458,-0.8659,-0.9658,-1.068,-1.176,-1.3233,-1.4885,-1.6731,-1.8762,-2.0794,-2.2725,-2.4313,-2.4915,-2.5232,-2.5465,-2.5465,-2.5441,-2.5379,-2.5226,-2.508,-2.5,-2.5061,-2.5088,-2.508,-2.5224,-2.5224,-2.5122,-2.5224,-2.5243,-2.5152,-2.5214,-2.5284,-2.5313,-2.5303,-2.5143,-2.4905,-2.4674,-2.4591,-2.441,-2.4284,-2.419,-2.419,-2.419,-2.419,-2.419,-2.419,-2.419,-2.419,-2.419,-2.419,-2.419,-2.419,-2.419,-2.419,-2.419,-2.419,-2.4209,-2.4228,-2.3878,-2.3155,-2.2887,-2.2664,-2.1619,-2.0976,-2.0696,-2.0341,-2.0231,-2.0352,-2.0696,-2.0621,-2.049,-2.0257,-2.0032,-2.0004,-2.0162,-2.0203,-2.0108,-2.004,-2.0001,-1.9922,-1.9861,-1.9741,-1.9613,0.9594,0.9122,0.7624,0.6865,0.6563,0.5526,0.5189,0.5342,0.527,0.5022,0.4821,0.5186,0.4169,0.2068,0.0789,-0.0846,-0.2845,-0.3911,-0.4344,-0.416,-0.4716,-0.5003,-0.4857,-0.472,-0.4216,-0.3708,-0.3638,-0.3974,-0.4467,-0.3944,-0.4255,-0.5491,-0.6592,-0.8069,-0.9855,-1.0698,-1.1923,-1.4133,-1.6028,-1.7787,-1.9605,-2.1401,-2.2998,-2.426,-2.4604,-2.4851,-2.5206,-2.5226,-2.5226,-2.5197,-2.5038,-2.4864,-2.476,-2.4904,-2.4991,-2.5034,-2.5163,-2.5234,-2.5141,-2.5224,-2.5253,-2.5163,-2.5243,-2.5253,-2.5205,-2.5224,-2.5091,-2.4709,-2.4655,-2.4626,-2.4375,-2.4228,-2.4209,-2.419,-2.419,-2.419,-2.419,-2.419,-2.419,-2.419,-2.419,-2.419,-2.419,-2.419,-2.419,-2.419,-2.419,-2.419,-2.417,-2.4074,-2.3553,-2.3146,-2.3082,-2.2537,-2.1589,-2.126,-2.12,-2.0965,-2.0763,-2.1038,-2.1376,-2.0863,-2.0536,-2.0111,-1.982,-1.9823,-1.9968,-1.9974,-1.9939,-1.9855,-1.9786,-1.9695,-1.9645,-1.9695,-1.9601,1.0104,0.921,0.8345,0.7432,0.6658,0.5731,0.5348,0.5376,0.5376,0.4755,0.402,0.4919,0.5329,0.4503,0.2074,0.0463,-0.0521,-0.2647,-0.4232,-0.4656,-0.4965,-0.4771,-0.4532,-0.3999,-0.3343,-0.2884,-0.2305,-0.2747,-0.3641,-0.2623,-0.2847,-0.4184,-0.4893,-0.6067,-0.8599,-0.9431,-1.1785,-1.4829,-1.7209,-1.9066,-2.0372,-2.1834,-2.311,-2.426,-2.4094,-2.4246,-2.4803,-2.4898,-2.4905,-2.4949,-2.4836,-2.4716,-2.467,-2.4831,-2.4974,-2.501,-2.5192,-2.5274,-2.5284,-2.5284,-2.5303,-2.5274,-2.5253,-2.5194,-2.5053,-2.5099,-2.5041,-2.4686,-2.4582,-2.4547,-2.4428,-2.4303,-2.4209,-2.419,-2.419,-2.419,-2.419,-2.419,-2.419,-2.419,-2.419,-2.419,-2.419,-2.419,-2.419,-2.419,-2.419,-2.419,-2.4094,-2.3996,-2.3917,-2.3658,-2.3327,-2.2859,-2.2097,-2.1972,-2.1915,-2.1876,-2.1668,-2.1902,-2.2004,-2.1438,-2.0871,-2.0389,-1.975,-1.975,-1.9707,-1.9713,-1.9726,-1.9688,-1.9585,-1.9467,-1.9467,-1.9536,-1.9545,1.011,0.9204,0.8355,0.7591,0.6894,0.5837,0.5379,0.5393,0.5396,0.4436,0.3553,0.4712,0.5329,0.5256,0.4375,0.2606,0.0399,-0.0804,-0.2085,-0.3278,-0.339,-0.3385,-0.2941,-0.1893,-0.2201,-0.3159,-0.1442,-0.0803,-0.1122,-0.1005,-0.1506,-0.2843,-0.4769,-0.6587,-0.8605,-1.0748,-1.277,-1.4913,-1.7437,-1.8848,-1.952,-2.1124,-2.2306,-2.2899,-2.3367,-2.386,-2.4417,-2.4564,-2.462,-2.4617,-2.4607,-2.4559,-2.4561,-2.4741,-2.4904,-2.503,-2.5192,-2.5313,-2.5313,-2.5313,-2.5313,-2.5284,-2.5184,-2.5111,-2.5184,-2.493,-2.4814,-2.4644,-2.451,-2.4321,-2.4266,-2.4228,-2.419,-2.419,-2.419,-2.419,-2.419,-2.419,-2.419,-2.419,-2.419,-2.419,-2.419,-2.419,-2.419,-2.419,-2.419,-2.4132,-2.3958,-2.3978,-2.3937,-2.3714,-2.3437,-2.318,-2.288,-2.274,-2.2703,-2.274,-2.2758,-2.2904,-2.2793,-2.237,-2.1837,-2.1318,-2.0111,-1.9773,-1.9545,-1.9419,-1.9434,-1.9518,-1.9434,-1.935,-1.935,-1.9361,-1.9376,1.0301,0.9722,0.8484,0.7782,0.7279,0.5962,0.5103,0.4703,0.464,0.4436,0.3956,0.4025,0.4709,0.5319,0.5326,0.4306,0.2283,0.0672,-0.0605,-0.1349,-0.155,-0.1523,-0.1289,-0.0379,-0.0976,-0.2009,0.0406,0.097,-0.0,-0.0559,-0.1728,-0.3387,-0.5366,-0.7494,-0.957,-1.1536,-1.3708,-1.5651,-1.7598,-1.8612,-1.9163,-2.0366,-2.1246,-2.1868,-2.2558,-2.3257,-2.3759,-2.4043,-2.4265,-2.4442,-2.4444,-2.4409,-2.4545,-2.47,-2.4869,-2.4998,-2.5192,-2.5313,-2.5313,-2.5313,-2.5313,-2.5274,-2.5163,-2.5152,-2.513,-2.4904,-2.4814,-2.4639,-2.4462,-2.4303,-2.4209,-2.419,-2.419,-2.419,-2.419,-2.419,-2.419,-2.419,-2.419,-2.419,-2.419,-2.419,-2.419,-2.419,-2.419,-2.419,-2.419,-2.4016,-2.3816,-2.3917,-2.3937,-2.3714,-2.3671,-2.3508,-2.3484,-2.3417,-2.3345,-2.34,-2.3419,-2.3639,-2.3309,-2.2923,-2.2152,-2.1399,-2.0427,-1.9693,-1.9455,-1.9286,-1.9316,-1.9346,-1.9286,-1.9286,-1.9286,-1.9455,-1.9436,1.0618,1.0428,0.8737,0.8027,0.7712,0.6168,0.4919,0.402,0.4043,0.4515,0.484,0.3687,0.4225,0.5382,0.4979,0.5059,0.4928,0.0671,-0.0134,-0.0,-0.0,-0.0,-0.0,-0.0,-0.0,-0.0,0.276,0.2439,0.0505,-0.1338,-0.3619,-0.5218,-0.6874,-0.8567,-1.0404,-1.1992,-1.4091,-1.6118,-1.7208,-1.8177,-1.8906,-1.9647,-2.0235,-2.1068,-2.195,-2.2565,-2.3064,-2.3424,-2.3864,-2.4407,-2.4284,-2.4357,-2.4596,-2.4746,-2.4896,-2.5041,-2.5214,-2.5313,-2.5313,-2.5313,-2.5313,-2.5284,-2.5264,-2.5214,-2.5077,-2.4949,-2.478,-2.4623,-2.4476,-2.4358,-2.4247,-2.419,-2.419,-2.419,-2.419,-2.419,-2.419,-2.419,-2.419,-2.419,-2.419,-2.419,-2.419,-2.419,-2.419,-2.417,-2.4151,-2.3917,-2.3774,-2.3795,-2.3816,-2.3753,-2.3774,-2.3896,-2.3981,-2.4098,-2.4025,-2.4006,-2.3933,-2.3914,-2.3529,-2.2997,-2.2152,-2.1327,-2.0629,-1.9932,-1.9378,-1.9286,-1.9305,-1.9286,-1.9286,-1.9286,-1.9323,-1.9638,-1.9748,1.0618,1.0428,0.8742,0.7972,0.77,0.6177,0.5222,0.5001,0.4968,0.507,0.5272,0.4903,0.5036,0.5312,0.4228,0.3964,0.425,-0.0606,-0.2836,-0.0,-0.0,-0.0,-0.0,-0.0,-0.0,0.0185,0.0547,0.1709,0.1363,-0.3416,-0.7395,-0.7703,-0.8519,-0.9985,-1.0889,-1.231,-1.3486,-1.5149,-1.6268,-1.7356,-1.8193,-1.8579,-1.9243,-2.0329,-2.1467,-2.2079,-2.2417,-2.2961,-2.3351,-2.357,-2.3939,-2.4284,-2.4623,-2.476,-2.4923,-2.513,-2.5234,-2.5313,-2.5313,-2.5313,-2.5313,-2.5284,-2.5184,-2.513,-2.5203,-2.485,-2.4712,-2.4623,-2.4461,-2.4266,-2.4209,-2.419,-2.419,-2.419,-2.419,-2.419,-2.419,-2.419,-2.419,-2.419,-2.419,-2.419,-2.419,-2.419,-2.419,-2.417,-2.4034,-2.3816,-2.3735,-2.3692,-2.3732,-2.3753,-2.3917,-2.4034,-2.4094,-2.419,-2.419,-2.419,-2.419,-2.4171,-2.3768,-2.3345,-2.2593,-2.1785,-2.0978,-2.0262,-1.9455,-1.9323,-1.9341,-1.9323,-1.9378,-1.9396,-1.9528,-1.984,-2.0097,1.0618,1.0421,0.8737,0.7967,0.7741,0.6194,0.5389,0.5413,0.54,0.5393,0.5393,0.5372,0.5372,0.5376,0.4428,0.4252,0.2594,-0.2262,-0.4455,-0.0,-0.0,-0.0,-0.0,-0.141,-0.1907,-0.0569,-0.0929,-0.0359,-0.1445,-0.3803,-0.6799,-0.8697,-0.9604,-1.0779,-1.2094,-1.308,-1.4367,-1.5443,-1.6083,-1.6769,-1.7258,-1.7894,-1.8405,-1.9513,-2.0588,-2.1146,-2.094,-2.2067,-2.2591,-2.2863,-2.3419,-2.4022,-2.4402,-2.4663,-2.4904,-2.5107,-2.5264,-2.5303,-2.5313,-2.5313,-2.5313,-2.5313,-2.5203,-2.5214,-2.5203,-2.4904,-2.4756,-2.47,-2.4461,-2.419,-2.419,-2.419,-2.419,-2.419,-2.419,-2.419,-2.419,-2.419,-2.419,-2.419,-2.419,-2.419,-2.419,-2.419,-2.3955,-2.3834,-2.4132,-2.3955,-2.3649,-2.3628,-2.3774,-2.3858,-2.4036,-2.4151,-2.417,-2.419,-2.419,-2.419,-2.419,-2.419,-2.4043,-2.3621,-2.3162,-2.2263,-2.129,-2.0262,-1.9565,-1.9473,-1.9709,-2.0255,-2.0365,-1.9926,-1.9822,-2.028,-2.0411,1.0618,1.0434,0.8737,0.7957,0.7642,0.6113,0.5416,0.5476,0.5426,0.5484,0.542,0.548,0.5426,0.5413,0.5416,0.4178,0.1037,-0.2075,-0.4324,-0.4586,-0.2147,-0.0,-0.1353,-0.2695,-0.3328,-0.1101,-0.1891,-0.2871,-0.3754,-0.4609,-0.6738,-0.8704,-0.9592,-1.1082,-1.3137,-1.4086,-1.4698,-1.57,-1.592,-1.6411,-1.6752,-1.7463,-1.7933,-1.8555,-1.9783,-2.0184,-2.0206,-2.1051,-2.1938,-2.1984,-2.2728,-2.3302,-2.3755,-2.4385,-2.4752,-2.4905,-2.5088,-2.5252,-2.5282,-2.5312,-2.5313,-2.5313,-2.5284,-2.5284,-2.5224,-2.5053,-2.4885,-2.4723,-2.4526,-2.4247,-2.4209,-2.419,-2.419,-2.419,-2.419,-2.419,-2.419,-2.419,-2.419,-2.419,-2.419,-2.419,-2.419,-2.419,-2.3816,-2.3606,-2.3917,-2.4054,-2.3753,-2.3606,-2.3774,-2.3937,-2.4113,-2.419,-2.419,-2.419,-2.419,-2.419,-2.419,-2.419,-2.4135,-2.3621,-2.3088,-2.2464,-2.1547,-2.0629,-1.9971,-1.9806,-2.0278,-2.1173,-2.1338,-2.0903,-2.0794,-2.0831,-2.0906,1.0618,1.0428,0.8742,0.7692,0.7125,0.5891,0.5477,0.5658,0.5601,0.5668,0.5701,0.5603,0.5542,0.5545,0.5631,0.2984,-0.0276,-0.2892,-0.4401,-0.5251,-0.3675,-0.2717,-0.2601,-0.326,-0.3754,-0.4048,-0.3751,-0.3895,-0.5246,-0.6473,-0.7577,-0.967,-1.0358,-1.1557,-1.2618,-1.3248,-1.4025,-1.5119,-1.5287,-1.582,-1.6685,-1.698,-1.719,-1.7785,-1.9273,-1.9798,-1.9834,-2.0503,-2.1165,-2.1212,-2.1602,-2.2029,-2.2607,-2.3587,-2.4227,-2.4507,-2.4828,-2.5103,-2.5252,-2.5301,-2.5293,-2.5313,-2.5313,-2.5313,-2.5234,-2.5077,-2.4968,-2.4845,-2.4617,-2.4375,-2.4209,-2.419,-2.419,-2.419,-2.419,-2.419,-2.419,-2.419,-2.419,-2.419,-2.419,-2.419,-2.419,-2.417,-2.3937,-2.3753,-2.3876,-2.4054,-2.3935,-2.3795,-2.3837,-2.4016,-2.417,-2.419,-2.419,-2.419,-2.419,-2.419,-2.419,-2.419,-2.4006,-2.3474,-2.2942,-2.274,-2.2227,-2.1439,-2.0871,-2.0395,-2.096,-2.1964,-2.1948,-2.1876,-2.1712,-2.1639,-2.2079,0.9919,0.9722,0.8086,0.7172,0.6732,0.5833,0.5456,0.5603,0.5677,0.5745,0.5745,0.5657,0.5589,0.5572,0.5579,0.3762,0.1297,-0.3076,-0.4593,-0.5336,-0.5005,-0.4557,-0.4072,-0.417,-0.4622,-0.5176,-0.5068,-0.5048,-0.586,-0.6766,-0.8238,-0.9368,-1.0316,-1.1475,-1.2667,-1.3266,-1.3779,-1.4571,-1.5017,-1.5499,-1.6446,-1.66,-1.7107,-1.7638,-1.8612,-1.9229,-1.9156,-2.0062,-2.0467,-2.0485,-2.1022,-2.1348,-2.1831,-2.2625,-2.3705,-2.41,-2.4531,-2.4943,-2.5213,-2.5288,-2.5303,-2.5313,-2.5303,-2.5313,-2.5274,-2.5182,-2.5049,-2.4864,-2.4678,-2.4409,-2.4228,-2.4209,-2.419,-2.419,-2.419,-2.419,-2.419,-2.419,-2.419,-2.419,-2.419,-2.419,-2.419,-2.4151,-2.4036,-2.3996,-2.3955,-2.3976,-2.4034,-2.4016,-2.3976,-2.4074,-2.4208,-2.419,-2.419,-2.419,-2.419,-2.419,-2.419,-2.419,-2.4116,-2.3712,-2.3657,-2.3621,-2.2978,-2.2154,-2.1696,-2.1255,-2.1986,-2.2683,-2.2903,-2.2977,-2.2574,-2.2538,-2.2887,0.9466,0.9145,0.7632,0.685,0.6588,0.5749,0.5518,0.5569,0.5596,0.5674,0.5769,0.5664,0.561,0.5523,0.5024,0.4414,0.3811,-0.2688,-0.4856,-0.548,-0.5633,-0.5627,-0.5528,-0.562,-0.5684,-0.5833,-0.633,-0.6762,-0.6375,-0.7076,-0.7903,-0.8998,-1.0177,-1.1358,-1.2395,-1.3112,-1.3909,-1.4457,-1.496,-1.5276,-1.5796,-1.6659,-1.7244,-1.7247,-1.8168,-1.8527,-1.819,-1.9265,-1.9713,-1.9869,-2.0335,-2.0943,-2.1006,-2.1876,-2.2853,-2.359,-2.4169,-2.4655,-2.4902,-2.5214,-2.5214,-2.5214,-2.5274,-2.5284,-2.5293,-2.5241,-2.5141,-2.4847,-2.4642,-2.4428,-2.4247,-2.419,-2.419,-2.419,-2.419,-2.419,-2.419,-2.419,-2.419,-2.419,-2.419,-2.419,-2.419,-2.419,-2.4113,-2.4074,-2.4054,-2.4054,-2.4112,-2.4132,-2.4132,-2.4151,-2.419,-2.419,-2.419,-2.419,-2.419,-2.419,-2.419,-2.419,-2.419,-2.4098,-2.4098,-2.4006,-2.3547,-2.2777,-2.2392,-2.23,-2.2923,-2.3511,-2.3989,-2.3971,-2.3419,-2.3199,-2.34,0.9977,0.921,0.8221,0.7437,0.6588,0.5752,0.5518,0.5589,0.5596,0.5671,0.581,0.5664,0.5654,0.532,0.3772,0.2349,0.0138,-0.2158,-0.4555,-0.5405,-0.5755,-0.5832,-0.5603,-0.5426,-0.6015,-0.6531,-0.7046,-0.6746,-0.6821,-0.7724,-0.8501,-0.9289,-1.0298,-1.1208,-1.2003,-1.2783,-1.3276,-1.3815,-1.405,-1.4641,-1.5632,-1.6714,-1.6938,-1.7021,-1.7599,-1.8118,-1.7928,-1.8869,-1.9265,-1.9265,-1.969,-2.0204,-2.0565,-2.0959,-2.1658,-2.2504,-2.337,-2.4082,-2.4332,-2.4879,-2.5118,-2.516,-2.5194,-2.5274,-2.5262,-2.5244,-2.5126,-2.4814,-2.4645,-2.4411,-2.419,-2.4151,-2.417,-2.4133,-2.4074,-2.4113,-2.4151,-2.3935,-2.3976,-2.4203,-2.4202,-2.4206,-2.4208,-2.4208,-2.4189,-2.417,-2.4151,-2.4151,-2.4151,-2.417,-2.4208,-2.419,-2.419,-2.419,-2.419,-2.419,-2.419,-2.419,-2.419,-2.419,-2.419,-2.419,-2.419,-2.4025,-2.3657,-2.3566,-2.34,-2.3492,-2.3914,-2.4062,-2.4173,-2.421,-2.4135,-2.4025,-2.3859,0.9332,0.842,0.712,0.6338,0.5947,0.5554,0.5494,0.5661,0.5623,0.5718,0.585,0.5761,0.5603,0.5089,0.3215,0.0272,-0.2525,-0.4023,-0.478,-0.5607,-0.608,-0.6364,-0.615,-0.59,-0.6207,-0.7363,-0.8154,-0.8511,-0.8342,-0.8471,-0.9078,-1.0354,-1.0817,-1.1311,-1.1913,-1.2569,-1.318,-1.3826,-1.4503,-1.5276,-1.5996,-1.6527,-1.671,-1.6552,-1.7544,-1.8031,-1.8494,-1.9333,-1.9701,-1.9753,-2.034,-2.0528,-2.0662,-2.1504,-2.2869,-2.3168,-2.4249,-2.457,-2.4265,-2.5084,-2.5304,-2.5122,-2.5166,-2.5224,-2.5138,-2.5063,-2.4903,-2.4478,-2.43,-2.4118,-2.3901,-2.3735,-2.3795,-2.3816,-2.3795,-2.3876,-2.3855,-2.3689,-2.3664,-2.3937,-2.4192,-2.4202,-2.4189,-2.4208,-2.4208,-2.419,-2.417,-2.417,-2.417,-2.419,-2.419,-2.419,-2.419,-2.419,-2.419,-2.419,-2.419,-2.419,-2.419,-2.419,-2.419,-2.419,-2.419,-2.419,-2.4006,-2.4025,-2.419,-2.4171,-2.4116,-2.4135,-2.419,-2.419,-2.419,-2.4171,-2.4061,0.8484,0.7642,0.6276,0.5624,0.5428,0.5428,0.5501,0.5715,0.5589,0.5671,0.5813,0.5694,0.5405,0.4365,0.2303,-0.0607,-0.4451,-0.5401,-0.5698,-0.6048,-0.6523,-0.6924,-0.6981,-0.6734,-0.7263,-0.8355,-0.9743,-1.0154,-1.0152,-1.0157,-1.0654,-1.1506,-1.1132,-1.1567,-1.2208,-1.3036,-1.379,-1.437,-1.5074,-1.5688,-1.6151,-1.6423,-1.6522,-1.6765,-1.7404,-1.8208,-1.8945,-1.9852,-2.0148,-2.0465,-2.1296,-2.1445,-2.1177,-2.2476,-2.3826,-2.4384,-2.5332,-2.5439,-2.528,-2.5624,-2.5836,-2.5551,-2.5116,-2.5107,-2.4877,-2.4804,-2.4561,-2.4058,-2.3909,-2.3751,-2.3574,-2.3346,-2.3414,-2.3437,-2.3397,-2.3482,-2.3562,-2.3562,-2.3674,-2.3987,-2.42,-2.4202,-2.4206,-2.4208,-2.419,-2.419,-2.419,-2.419,-2.419,-2.419,-2.419,-2.419,-2.419,-2.419,-2.419,-2.419,-2.419,-2.419,-2.419,-2.419,-2.419,-2.419,-2.419,-2.419,-2.419,-2.419,-2.419,-2.419,-2.419,-2.419,-2.419,-2.419,-2.419,-2.419,-2.419,0.7707,0.7134,0.6724,0.6075,0.5428,0.5428,0.5457,0.561,0.545,0.5484,0.563,0.5544,0.4682,0.2832,0.1099,-0.0953,-0.3203,-0.4897,-0.594,-0.6509,-0.6894,-0.755,-0.7831,-0.8312,-0.877,-0.943,-1.0712,-1.1646,-1.2035,-1.162,-1.172,-1.1606,-1.1756,-1.207,-1.2852,-1.384,-1.4623,-1.515,-1.5631,-1.5764,-1.6039,-1.6312,-1.6565,-1.6693,-1.7128,-1.7673,-1.8414,-1.9755,-2.0725,-2.1142,-2.2071,-2.2643,-2.2613,-2.3719,-2.4856,-2.5675,-2.6327,-2.6417,-2.6374,-2.6562,-2.6552,-2.6053,-2.5361,-2.4858,-2.4682,-2.4615,-2.4266,-2.375,-2.3682,-2.3567,-2.3389,-2.3224,-2.3305,-2.3383,-2.3366,-2.3277,-2.3435,-2.3672,-2.3791,-2.4087,-2.4313,-2.4504,-2.4772,-2.4904,-2.4373,-2.4318,-2.4208,-2.419,-2.419,-2.419,-2.419,-2.419,-2.419,-2.419,-2.419,-2.419,-2.419,-2.419,-2.419,-2.419,-2.419,-2.419,-2.419,-2.419,-2.419,-2.419,-2.419,-2.419,-2.419,-2.419,-2.419,-2.419,-2.419,-2.419,-2.419,0.7264,0.7572,0.64,0.5686,0.5428,0.5428,0.5447,0.5552,0.543,0.5393,0.5481,0.5427,0.3362,0.0411,-0.0758,-0.2597,-0.5156,-0.5859,-0.6775,-0.7741,-0.8468,-0.8922,-0.9244,-0.9491,-1.0076,-1.0506,-1.1511,-1.2044,-1.2278,-1.2223,-1.2668,-1.2671,-1.2945,-1.3198,-1.3952,-1.4682,-1.5452,-1.593,-1.6142,-1.6269,-1.6672,-1.6811,-1.6986,-1.7055,-1.8249,-1.9281,-2.0399,-2.1371,-2.2147,-2.2817,-2.346,-2.3718,-2.4099,-2.5191,-2.6134,-2.6842,-2.7378,-2.754,-2.75,-2.7629,-2.7384,-2.6162,-2.5167,-2.4489,-2.4592,-2.4247,-2.3959,-2.3688,-2.3658,-2.3606,-2.3667,-2.3501,-2.3394,-2.3527,-2.3443,-2.3239,-2.3323,-2.3569,-2.3967,-2.4266,-2.4764,-2.5157,-2.5455,-2.5784,-2.5069,-2.4447,-2.43,-2.419,-2.419,-2.419,-2.419,-2.419,-2.419,-2.419,-2.419,-2.419,-2.419,-2.419,-2.419,-2.419,-2.419,-2.419,-2.419,-2.419,-2.419,-2.419,-2.419,-2.419,-2.419,-2.419,-2.419,-2.419,-2.419,-2.419,-2.419,0.7227,0.7136,0.6195,0.562,0.5428,0.5428,0.5471,0.5599,0.5443,0.5399,0.545,0.5348,0.2933,-0.0818,-0.2924,-0.4074,-0.6268,-0.708,-0.7619,-0.8328,-0.9027,-0.9705,-0.9891,-1.0124,-1.0532,-1.1167,-1.16,-1.2041,-1.2281,-1.1921,-1.2837,-1.3949,-1.4793,-1.478,-1.4984,-1.5496,-1.6251,-1.6629,-1.6761,-1.6892,-1.7271,-1.7612,-1.7773,-1.788,-1.8865,-2.0274,-2.1616,-2.2764,-2.3703,-2.4386,-2.4931,-2.511,-2.5681,-2.647,-2.7472,-2.7862,-2.8147,-2.8424,-2.8517,-2.8273,-2.7834,-2.6789,-2.583,-2.5134,-2.4642,-2.4263,-2.419,-2.4164,-2.4021,-2.3881,-2.3994,-2.3727,-2.3733,-2.385,-2.3354,-2.3158,-2.3336,-2.358,-2.405,-2.4493,-2.4998,-2.5536,-2.6504,-2.6753,-2.5841,-2.5182,-2.4907,-2.4613,-2.419,-2.419,-2.419,-2.419,-2.419,-2.419,-2.419,-2.419,-2.419,-2.419,-2.419,-2.419,-2.419,-2.419,-2.419,-2.419,-2.419,-2.419,-2.419,-2.419,-2.419,-2.419,-2.419,-2.419,-2.419,-2.419,-2.419,0.7747,0.5643,0.6351,0.6191,0.5624,0.5428,0.5579,0.5821,0.5562,0.5443,0.546,0.53,0.3283,-0.0478,-0.3518,-0.5852,-0.6967,-0.7874,-0.8425,-0.8951,-0.9284,-0.9669,-1.0148,-1.0628,-1.11,-1.1573,-1.1978,-1.221,-1.2296,-1.2856,-1.3797,-1.4572,-1.5254,-1.6096,-1.6414,-1.6831,-1.7146,-1.737,-1.734,-1.7365,-1.7653,-1.8299,-1.8613,-1.9031,-1.9596,-2.0984,-2.288,-2.3866,-2.4797,-2.5729,-2.6185,-2.6353,-2.6551,-2.729,-2.7992,-2.829,-2.8394,-2.8633,-2.8902,-2.8425,-2.7866,-2.7224,-2.618,-2.5801,-2.541,-2.5031,-2.4622,-2.4471,-2.4384,-2.4281,-2.413,-2.4032,-2.4228,-2.4249,-2.3816,-2.3585,-2.3846,-2.4293,-2.4923,-2.5291,-2.5393,-2.5805,-2.7118,-2.7724,-2.6722,-2.6027,-2.5623,-2.5127,-2.4575,-2.4392,-2.4465,-2.419,-2.419,-2.419,-2.419,-2.419,-2.419,-2.419,-2.419,-2.419,-2.419,-2.419,-2.419,-2.419,-2.419,-2.419,-2.419,-2.419,-2.419,-2.419,-2.419,-2.419,-2.419,-2.419,-2.419,0.7725,0.868,0.6968,0.6763,0.7381,0.6024,0.5755,0.6233,0.5837,0.5491,0.5145,0.4032,0.172,-0.1491,-0.4689,-0.7247,-0.828,-0.8581,-0.9196,-0.9893,-0.9947,-1.0152,-1.0614,-1.1353,-1.176,-1.1376,-1.1746,-1.2109,-1.1962,-1.2916,-1.3477,-1.4084,-1.5582,-1.6694,-1.7231,-1.7543,-1.7509,-1.8167,-1.8109,-1.7973,-1.838,-1.8999,-1.9604,-2.0065,-2.0857,-2.2352,-2.4309,-2.4988,-2.5803,-2.6843,-2.7278,-2.7395,-2.7467,-2.8066,-2.8298,-2.8529,-2.8694,-2.9101,-2.9097,-2.8639,-2.7812,-2.6982,-2.6351,-2.5825,-2.5165,-2.484,-2.4666,-2.4752,-2.4821,-2.4856,-2.5099,-2.505,-2.5164,-2.5347,-2.5099,-2.4821,-2.4977,-2.5654,-2.6213,-2.637,-2.6481,-2.7072,-2.8111,-2.8398,-2.764,-2.7093,-2.6686,-2.5899,-2.5254,-2.5016,-2.4942,-2.441,-2.419,-2.419,-2.419,-2.419,-2.419,-2.419,-2.419,-2.419,-2.419,-2.419,-2.419,-2.419,-2.419,-2.419,-2.419,-2.419,-2.419,-2.419,-2.419,-2.419,-2.419,-2.419,-2.419,0.7957,0.9046,0.7659,0.7437,0.7931,0.6404,0.5948,0.616,0.5784,0.5511,0.4892,0.2635,-0.0,-0.2883,-0.6285,-0.8322,-0.9338,-0.9479,-0.9693,-1.0403,-1.0422,-1.0284,-1.0768,-1.15,-1.1115,-1.0778,-1.0891,-1.1314,-1.1828,-1.2304,-1.3086,-1.4261,-1.5661,-1.6854,-1.7542,-1.7692,-1.7756,-1.8205,-1.8092,-1.8598,-1.9111,-1.9808,-2.0652,-2.1681,-2.2822,-2.4215,-2.5407,-2.6244,-2.68,-2.7647,-2.8048,-2.8226,-2.8381,-2.8603,-2.8782,-2.8934,-2.8989,-2.9077,-2.8517,-2.8492,-2.7417,-2.6032,-2.5807,-2.5865,-2.5582,-2.538,-2.5179,-2.5164,-2.516,-2.5263,-2.5379,-2.5413,-2.5513,-2.569,-2.5681,-2.5394,-2.5832,-2.6452,-2.6572,-2.6804,-2.7122,-2.7933,-2.8724,-2.8777,-2.8539,-2.8154,-2.7769,-2.6888,-2.6043,-2.5823,-2.5456,-2.4814,-2.43,-2.419,-2.419,-2.419,-2.419,-2.419,-2.417,-2.4151,-2.419,-2.419,-2.419,-2.419,-2.419,-2.419,-2.419,-2.419,-2.419,-2.419,-2.419,-2.419,-2.419,-2.419,-2.419,0.854,0.7167,0.8232,0.8064,0.7205,0.654,0.5944,0.5502,0.5515,0.5501,0.5183,0.1668,-0.1257,-0.4164,-0.8359,-0.975,-0.957,-0.9848,-1.0069,-0.9987,-0.9908,-0.9917,-0.9792,-0.9723,-1.0068,-1.0075,-1.0098,-1.0377,-1.1534,-1.1972,-1.2871,-1.4403,-1.5846,-1.6695,-1.7127,-1.7584,-1.7712,-1.7963,-1.8559,-1.9124,-1.9743,-2.0675,-2.1922,-2.3177,-2.4441,-2.5453,-2.6441,-2.714,-2.7604,-2.8104,-2.8429,-2.8809,-2.9148,-2.9476,-2.9514,-2.9339,-2.9052,-2.8329,-2.7656,-2.7695,-2.6924,-2.5773,-2.6521,-2.6879,-2.6547,-2.5747,-2.5431,-2.513,-2.4968,-2.5009,-2.5099,-2.5163,-2.5234,-2.5426,-2.5631,-2.5849,-2.6386,-2.6657,-2.6624,-2.6787,-2.7048,-2.7754,-2.8676,-2.8938,-2.892,-2.876,-2.8356,-2.8007,-2.7236,-2.6722,-2.6209,-2.5217,-2.4704,-2.4245,-2.419,-2.419,-2.4094,-2.4054,-2.4074,-2.4054,-2.4113,-2.4074,-2.3996,-2.3996,-2.4151,-2.4208,-2.419,-2.419,-2.419,-2.419,-2.419,-2.419,-2.419,-2.419,-2.419,0.8361,0.8447,0.7728,0.7779,0.8131,0.7269,0.6322,0.5449,0.5426,0.5416,0.5189,0.1762,-0.1997,-0.6121,-0.7818,-0.8953,-0.9737,-1.0236,-1.0372,-1.018,-0.9726,-0.9908,-0.9721,-0.9379,-0.9357,-0.9296,-0.9281,-0.939,-1.0446,-1.1166,-1.2589,-1.4057,-1.5223,-1.5751,-1.6411,-1.7063,-1.7418,-1.8002,-1.8712,-1.9546,-2.0518,-2.16,-2.3093,-2.4511,-2.5068,-2.6081,-2.7307,-2.7383,-2.7825,-2.8765,-2.9155,-2.9495,-2.9532,-2.9622,-2.953,-2.8798,-2.8347,-2.7791,-2.7117,-2.6721,-2.6116,-2.5374,-2.5712,-2.5697,-2.56,-2.5431,-2.5205,-2.5058,-2.4714,-2.4689,-2.4839,-2.4942,-2.5019,-2.5151,-2.537,-2.5768,-2.6193,-2.6401,-2.6436,-2.6853,-2.7113,-2.7932,-2.8864,-2.8975,-2.8957,-2.8975,-2.8888,-2.8594,-2.8301,-2.775,-2.6851,-2.5823,-2.5181,-2.4722,-2.428,-2.4189,-2.4034,-2.3917,-2.3876,-2.3774,-2.3649,-2.361,-2.3649,-2.3795,-2.3996,-2.4113,-2.419,-2.419,-2.419,-2.419,-2.419,-2.419,-2.419,-2.419,-2.419,0.8365,0.854,0.7762,0.7629,0.7628,0.6802,0.5634,0.4495,0.4359,0.4077,0.3232,0.1224,-0.2521,-0.6766,-0.7629,-0.8408,-0.99,-1.0053,-1.0127,-1.0007,-0.9753,-0.9633,-0.9462,-0.9388,-0.9228,-0.9065,-0.9065,-0.9337,-1.0312,-1.1796,-1.3226,-1.3768,-1.4422,-1.5017,-1.5688,-1.6312,-1.6866,-1.7653,-1.8592,-1.9693,-2.0925,-2.2149,-2.366,-2.5166,-2.5385,-2.6633,-2.7742,-2.7472,-2.8268,-2.8945,-2.9214,-2.9644,-2.9644,-2.9606,-2.9514,-2.8858,-2.8207,-2.7624,-2.69,-2.6209,-2.5519,-2.4857,-2.4493,-2.4276,-2.4403,-2.4404,-2.4762,-2.4928,-2.4546,-2.4307,-2.4552,-2.4752,-2.4816,-2.4863,-2.515,-2.5454,-2.5746,-2.598,-2.6369,-2.6836,-2.7542,-2.8362,-2.8826,-2.8912,-2.8975,-2.8975,-2.8975,-2.8906,-2.8741,-2.8484,-2.7457,-2.6319,-2.5711,-2.5216,-2.4681,-2.4071,-2.385,-2.3664,-2.3562,-2.3432,-2.323,-2.3259,-2.3437,-2.3631,-2.3837,-2.3978,-2.4151,-2.419,-2.419,-2.419,-2.419,-2.419,-2.419,-2.419,-2.419,0.8346,0.7773,0.7925,0.7224,0.6329,0.5683,0.4616,0.3013,0.3272,0.1842,0.0322,-0.0127,-0.3168,-0.7026,-0.7521,-0.8217,-0.9324,-0.976,-0.984,-0.9679,-0.9459,-0.9379,-0.9604,-0.9468,-0.9421,-0.9123,-0.9159,-0.9784,-1.1065,-1.2199,-1.3092,-1.3779,-1.4387,-1.4926,-1.5365,-1.5852,-1.6491,-1.7183,-1.8245,-1.9386,-2.0684,-2.1874,-2.3309,-2.5283,-2.6243,-2.7084,-2.7585,-2.8072,-2.8713,-2.868,-2.8895,-2.9533,-2.9589,-2.9308,-2.9211,-2.8567,-2.7687,-2.6827,-2.6087,-2.5374,-2.4547,-2.388,-2.335,-2.3197,-2.3325,-2.3562,-2.3978,-2.4333,-2.3975,-2.3884,-2.4074,-2.4241,-2.4307,-2.4389,-2.4576,-2.4855,-2.5128,-2.5647,-2.6415,-2.6875,-2.7307,-2.8085,-2.8528,-2.8597,-2.8827,-2.891,-2.8975,-2.8975,-2.8915,-2.8842,-2.7907,-2.6695,-2.6103,-2.54,-2.4405,-2.3843,-2.3611,-2.3435,-2.3265,-2.3098,-2.2908,-2.3038,-2.3277,-2.3477,-2.3692,-2.3917,-2.4094,-2.4151,-2.419,-2.419,-2.419,-2.419,-2.419,-2.419,-2.419,0.7538,0.6898,0.6506,0.599,0.5445,0.5403,0.5166,0.4779,0.4763,0.1555,-0.2569,-0.3451,-0.4623,-0.7039,-0.7239,-0.7972,-0.9084,-0.9492,-0.9653,-0.9552,-0.9325,-0.9535,-0.9974,-0.9663,-0.976,-1.028,-1.0447,-1.0434,-1.1504,-1.2246,-1.2725,-1.3258,-1.4114,-1.4868,-1.5141,-1.5656,-1.6492,-1.71,-1.8097,-1.939,-2.0789,-2.3211,-2.5275,-2.6113,-2.6778,-2.7406,-2.7834,-2.814,-2.8727,-2.904,-2.9383,-2.9624,-2.9678,-2.8896,-2.8165,-2.7417,-2.653,-2.5633,-2.4909,-2.4384,-2.3745,-2.3302,-2.2939,-2.2655,-2.2591,-2.2755,-2.3003,-2.3339,-2.3599,-2.3576,-2.3638,-2.3752,-2.3837,-2.3906,-2.3991,-2.4266,-2.4592,-2.547,-2.6391,-2.6759,-2.7072,-2.7517,-2.8004,-2.841,-2.8609,-2.8785,-2.8934,-2.8975,-2.8905,-2.8753,-2.7971,-2.6927,-2.6327,-2.5552,-2.4347,-2.3562,-2.3277,-2.3067,-2.2883,-2.2721,-2.2598,-2.2747,-2.294,-2.3253,-2.3522,-2.3774,-2.4016,-2.417,-2.419,-2.419,-2.419,-2.419,-2.419,-2.419,-2.419,0.6966,0.6574,0.6143,0.5564,0.5095,0.5251,0.5406,0.4868,0.2358,-0.0627,-0.3349,-0.4261,-0.5448,-0.6875,-0.689,-0.7677,-0.8867,-0.9198,-0.9225,-0.9192,-0.926,-0.9561,-0.9724,-0.9987,-1.0393,-1.0918,-1.1118,-1.1362,-1.2004,-1.236,-1.2832,-1.3498,-1.4387,-1.4875,-1.512,-1.6037,-1.6834,-1.7383,-1.8378,-1.9601,-2.1008,-2.3174,-2.4974,-2.5698,-2.6733,-2.7444,-2.7939,-2.8184,-2.864,-2.9034,-2.9256,-2.9316,-2.9148,-2.8528,-2.7775,-2.6964,-2.5909,-2.4603,-2.3969,-2.3576,-2.3293,-2.3099,-2.3402,-2.3494,-2.2271,-2.2404,-2.2622,-2.2959,-2.3504,-2.3608,-2.3595,-2.3681,-2.3724,-2.3709,-2.3794,-2.3991,-2.4471,-2.5153,-2.577,-2.6154,-2.6539,-2.6989,-2.7589,-2.8443,-2.8564,-2.8417,-2.8597,-2.859,-2.8565,-2.8633,-2.7822,-2.7067,-2.6405,-2.5187,-2.3696,-2.3122,-2.2883,-2.2704,-2.2563,-2.249,-2.2443,-2.249,-2.2616,-2.3063,-2.3414,-2.3671,-2.3896,-2.4113,-2.419,-2.419,-2.419,-2.419,-2.419,-2.419,-2.419,0.6367,0.632,0.6035,0.534,0.4637,0.5075,0.4955,0.3604,-0.1657,-0.3573,-0.2953,-0.4057,-0.5261,-0.6215,-0.6642,-0.7676,-0.8466,-0.8837,-0.8891,-0.8878,-0.8864,-0.9475,-1.015,-1.0664,-1.0861,-1.1251,-1.1654,-1.2034,-1.2475,-1.284,-1.3399,-1.4296,-1.4806,-1.5188,-1.5741,-1.6293,-1.6978,-1.7905,-1.8941,-2.0078,-2.1309,-2.2498,-2.4046,-2.537,-2.6438,-2.7313,-2.7776,-2.8192,-2.8565,-2.8803,-2.9003,-2.9071,-2.8791,-2.8231,-2.7725,-2.6885,-2.5518,-2.4569,-2.4025,-2.376,-2.3568,-2.3575,-2.4218,-2.3875,-2.2688,-2.2355,-2.2582,-2.2861,-2.3394,-2.3565,-2.358,-2.3406,-2.3406,-2.3551,-2.3623,-2.3709,-2.4282,-2.476,-2.5118,-2.5533,-2.6175,-2.6607,-2.7264,-2.8127,-2.8326,-2.8201,-2.8085,-2.8021,-2.7994,-2.8094,-2.7799,-2.697,-2.625,-2.4848,-2.3404,-2.2752,-2.259,-2.2517,-2.2415,-2.2349,-2.231,-2.2388,-2.2607,-2.3021,-2.3369,-2.3588,-2.3896,-2.417,-2.419,-2.419,-2.419,-2.419,-2.419,-2.419,-2.419,0.5382,0.4904,0.4818,0.4029,0.3051,0.4076,0.3341,0.0674,-0.2703,-0.4274,-0.4097,-0.4282,-0.5262,-0.6588,-0.6588,-0.7402,-0.8593,-0.8804,-0.8804,-0.8811,-0.8804,-0.9562,-1.032,-1.0854,-1.0931,-1.1484,-1.2246,-1.2685,-1.2934,-1.335,-1.3983,-1.469,-1.5736,-1.6315,-1.6884,-1.7312,-1.7734,-1.8596,-1.9213,-2.0198,-2.1764,-2.3001,-2.4304,-2.5336,-2.6112,-2.6836,-2.7435,-2.8057,-2.8324,-2.8565,-2.8767,-2.8863,-2.8542,-2.7949,-2.7362,-2.6731,-2.5348,-2.4506,-2.4046,-2.396,-2.3846,-2.3849,-2.4346,-2.4529,-2.3651,-2.3154,-2.3254,-2.3231,-2.3558,-2.3507,-2.3406,-2.295,-2.286,-2.3275,-2.3493,-2.358,-2.3879,-2.4112,-2.4374,-2.5228,-2.6137,-2.6487,-2.6842,-2.7469,-2.7848,-2.773,-2.7646,-2.7595,-2.7672,-2.7683,-2.7637,-2.6911,-2.609,-2.5285,-2.417,-2.2805,-2.2415,-2.2338,-2.2327,-2.2327,-2.2327,-2.2327,-2.2588,-2.3038,-2.33,-2.35,-2.3816,-2.419,-2.419,-2.419,-2.419,-2.419,-2.419,-2.419,-2.419]},{"header":{"parameterUnit":"m.s-1","parameterCategory":1,"la1":31.0,"la2":29.5877,"lo1":-88.7671,"lo2":-86.6584,"dy":0.0162,"dx":0.0185,"nx":115,"ny":88,"refTime":"2023-05-14T12:00:00:Z","depth":0,"parameterNumber":3,"parameterNumberName":"V-component_of_WINDS"},"data":[0.0,0.0,0.0,0.0,0.0,0.0,0.0,0.0,0.0,0.0,0.0,0.0,0.0,0.0,0.0,0.0,0.0,0.0,0.0,0.0,0.0,0.0,0.0,0.0,0.0,0.0,0.0,0.0,0.0,0.0,0.0,0.0,0.0,0.0,0.0,0.0,0.0,0.0,0.0,0.0,0.0,0.0,0.0,0.0,0.0,0.0,0.0,0.0,0.0,0.0,0.0,0.0,0.0,0.0,0.0,0.0,0.0,0.0,0.0,0.0,0.0,0.0,0.0,0.0,0.0,0.0,0.0,0.0,0.0,0.0,0.0,0.0,0.0,0.0,0.0,0.0,0.0,0.0,0.0,0.0,0.0,0.0,0.0,0.0,0.0,0.0,0.0,0.0,0.0,0.0,0.0,0.0,0.0,0.0,0.0,0.0,0.0,0.0,0.0,0.0,0.0,0.0,0.0,0.0,0.0,0.0,0.0,0.0,0.0,0.0,0.0,0.0,0.0,0.0,0.0,0.0,0.0,0.0,0.0,0.0,0.0,0.0,0.0,0.0,0.0,0.0,0.0,0.0,0.0,0.0,0.0,0.0,0.0,0.0,0.0,0.0,0.0,0.0,0.0,0.0,0.0,0.0,0.0,0.0,0.0,0.0,0.0,0.0,0.0,0.0,0.0,0.0,0.0,0.0,0.0,0.0,0.0,0.0,0.0,0.0,0.0,0.0,0.0,0.0,0.0,0.0,0.0,0.0,0.0,0.0,0.0,0.0,0.0,0.0,0.0,0.0,0.0,0.0,0.0,0.0,0.0,0.0,0.0,0.0,0.0,0.0,0.0,0.0,0.0,0.0,0.0,0.0,0.0,0.0,0.0,0.0,0.0,0.0,0.0,0.0,0.0,0.0,0.0,0.0,0.0,0.0,0.0,0.0,0.0,0.0,0.0,0.0,0.0,0.0,0.0,0.0,0.0,0.0,0.0,0.0,0.0,0.0,0.0,0.0,0.0,0.0,0.0,0.0,0.0,0.0,0.0,0.0,0.0,0.0,0.0,0.0,0.0,0.0,0.0,0.0,0.0,0.0,0.0,0.0,0.0,0.0,0.0,0.0,0.0,0.0,0.0,0.0,0.0,0.0,0.0,0.0,0.0,0.0,0.0,0.0,0.0,0.0,0.0,0.0,0.0,0.0,0.0,0.0,0.0,0.0,0.0,0.0,0.0,0.0,0.0,0.0,0.0,0.0,0.0,0.0,0.0,0.0,0.0,0.0,0.0,0.0,0.0,0.0,0.0,0.0,0.0,0.0,0.0,0.0,0.0,0.0,0.0,0.0,0.0,0.0,0.0,0.0,0.0,0.0,0.0,0.0,0.0,0.0,0.0,0.0,0.0,0.0,0.0,0.0,0.0,0.0,0.0,0.0,0.0,0.0,0.0,0.0,0.0,0.0,0.0,0.0,0.0,0.0,0.0,0.0,0.0,0.0,0.0,0.0,0.0,0.0,0.0,0.0,0.0,0.0,0.0,0.0,0.0,0.0,0.0,0.0,0.0,0.0,0.0,0.0,0.0,0.0,0.0,0.0,0.0,0.0,0.0,0.0,0.0,0.0,0.0,0.0,0.0,0.0,0.0,0.0,0.0,0.0,0.0,0.0,0.0,0.0,0.0,0.0,0.0,0.0,0.0,0.0,0.0,0.0,0.0,0.0,0.0,0.0,0.0,0.0,0.0,0.0,0.0,0.0,0.0,0.0,0.0,0.0,0.0,0.0,0.0,0.0,0.0,0.0,0.0,0.0,0.0,0.0,0.0,0.0,0.0,0.0,0.0,0.0,0.0,0.0,0.0,0.0,0.0,0.0,0.0,0.0,0.0,0.0,0.0,0.0,0.0,0.0,0.0,0.0,0.0,0.0,0.0,0.0,0.0,0.0,0.0,0.0,0.0,0.0,0.0,0.0,0.0,0.0,0.0,0.0,0.0,0.0,0.0,0.0,0.0,0.0,0.0,0.0,0.0,0.0,0.0,0.0,0.0,0.0,0.0,0.0,0.0,0.0,0.0,0.0,0.0,0.0,0.0,0.0,0.0,0.0,0.0,0.0,0.0,0.0,0.0,0.0,0.0,0.0,0.0,0.0,0.0,0.0,0.0,0.0,0.0,0.0,0.0,0.0,0.0,0.0,0.0,0.0,0.0,0.0,0.0,0.0,0.0,0.0,0.0,0.0,0.0,0.0,0.0,0.0,0.0,0.0,0.0,0.0,0.0,0.0,0.0,0.0,0.0,0.0,0.0,0.0,0.0,0.0,0.0,0.0,0.0,0.0,0.0,0.0,0.0,0.0,0.0,0.0,0.0,0.0,0.0,0.0,0.0,0.0,0.0,0.0,0.0,0.0,0.0,0.0,0.0,0.0,0.0,0.0,0.0,0.0,0.0,0.0,0.0,0.0,0.0,0.0,0.0,0.0,0.0,0.0,0.0,0.0,0.0,0.0,0.0,0.0,0.0,0.0,0.0,0.0,0.0,0.0,0.0,0.0,0.0,0.0,0.0,0.0,0.0,0.0,0.0,0.0,0.0,0.0,0.0,0.0,0.0,0.0,0.0,0.0,0.0,0.0,0.0,0.0,0.0,0.0,0.0,0.0,0.0,0.0,0.0,0.0,0.0,0.0,0.0,0.0,0.0,0.0,0.0,0.0,0.0,0.0,0.0,0.0,0.0,0.0,0.0,0.0,0.0,0.0,0.0,0.0,0.0,0.0,0.0,0.0,0.0,0.0,0.0,0.0,0.0,0.0,0.0,0.0,0.0,0.0,0.0,0.0,0.0,0.0,0.0,0.0,0.0,0.0,0.0,0.0,0.0,0.0,0.0,0.0,0.0,0.0,0.0,0.0,0.0,0.0,0.0,0.0,0.0,0.0,0.0,0.0,0.0,0.0,0.0,0.0,0.0,0.0,0.0,0.0,0.0,0.0,0.0,0.0,0.0,0.0,0.0,0.0,0.0,0.0,0.0,0.0,0.0,0.0,0.0,0.0,0.0,0.0,0.0,0.0,0.0,0.0,0.0,0.0,0.0,0.0,0.0,0.0,0.0,0.0,0.0,0.0,0.0,0.0,0.0,0.0,0.0,0.0,0.0,0.0,0.0,0.0,0.0,0.0,0.0,0.0,0.0,0.0,0.0,0.0,0.0,0.0,0.0,0.0,0.0,0.0,0.0,0.0,0.0,0.0,0.0,0.0,0.0,0.0,0.0,0.0,0.0,0.0,0.0,0.0,0.0,0.0,0.0,0.0,0.0,0.0,0.0,0.0,0.0,0.0,0.0,0.0,0.0,0.0,0.0,0.0,0.0,0.0,0.0,0.0,0.0,0.0,0.0,0.0,0.0,0.0,0.0,0.0,0.0,0.0,0.0,0.0,0.0,0.0,0.0,0.0,0.0,0.0,0.0,0.0,0.0,0.0,0.0,0.0,0.0,0.0,0.0,0.0,0.0,0.0,0.0,0.0,0.0,0.0,0.0,0.0,0.0,0.0,0.0,0.0,0.0,0.0,0.0,0.0,0.0,0.0,0.0,0.0,0.0,0.0,0.0,0.0,0.0,0.0,0.0,0.0,0.0,0.0,0.0,0.0,0.0,0.0,0.0,0.0,0.0,0.0,0.0,0.0,0.0,0.0,0.0,0.0,0.0,0.0,0.0,0.0,0.0,0.0,0.0,0.0,0.0,0.0,0.0,0.0,0.0,0.0,0.0,0.0,0.0,0.0,0.0,0.0,0.0,0.0,0.0,0.0,0.0,0.0,0.0,0.0,0.0,0.0,0.0,0.0,0.0,0.0,0.0,0.0,0.0,0.0,0.0,0.0,0.0,0.0,0.0,0.0,0.0,0.0,0.0,0.0,0.0,0.0,0.0,0.0,0.0,0.0,0.0,0.0,0.0,0.0,0.0,0.0,0.0,0.0,0.0,0.0,0.0,0.0,0.0,0.0,0.0,0.0,0.0,0.0,0.0,0.0,0.0,0.0,0.0,0.0,0.0,0.0,0.0,0.0,0.0,0.0,0.0,0.0,0.0,0.0,0.0,0.0,0.0,0.0,0.0,0.0,0.0,0.0,0.0,0.0,0.0,0.0,0.0,0.0,0.0,0.0,0.0,0.0,0.0,0.0,0.0,0.0,0.0,0.0,0.0,0.0,0.0,0.0,0.0,0.0,0.0,0.0,0.0,0.0,0.0,0.0,0.0,0.0,0.0,0.0,0.0,0.0,0.0,0.0,0.0,0.0,0.0,0.0,0.0,0.0,0.0,0.0,0.0043,0.0,0.0,0.0,0.0,0.0,0.0,0.0,0.0,0.0,0.0,0.0,0.0,0.0,0.0,0.0,0.0,0.0,0.0,0.0,0.0,0.0,0.0,0.0,0.0,0.0,0.0,0.0,0.0,0.0,0.0,0.0,0.0,0.0,0.0,0.0,0.0,0.0,0.0,0.0,0.0,0.0,0.0,0.0,0.0,0.0,0.0,0.0,0.0,0.0,0.0,0.0,0.0,0.0,0.0,0.0,0.0,0.0,0.0,0.0,0.0,0.0,0.0,0.0,0.0,0.0,0.0,0.0,0.0,0.0,0.0,0.0,0.0,0.0,0.0,0.0,0.0,0.0,0.0,0.0,0.0,0.0,0.0,0.0,0.0,0.0,0.0,0.0,0.0,0.0,0.0,0.0,0.0,0.0,0.0,0.0,0.0,0.0,0.0,0.0,0.0,0.0,0.0,0.0,0.0,0.0,0.0,0.0,0.0,0.0,0.0,-0.8982,-0.9138,-0.4274,-0.0553,0.1762,0.0,0.0,0.0,0.0,0.0,0.0,0.0,0.0,0.0,0.0,0.0,0.0,0.0,0.0,0.0,0.0,0.0,0.0,0.0,0.0,0.0,0.0,0.0,0.0,0.0,0.0,0.0,0.0,0.0,0.0,0.0,0.0,0.0,0.0,0.0,0.0,0.0,0.0,0.0,0.0,0.0,0.0,0.0,0.0,0.0,0.0,0.0,0.0,0.0,0.0,0.0,0.0,0.0,0.0,0.0,0.0,0.0,0.0,0.0,0.0,0.0,0.0,0.0,0.0,0.0,0.0,0.0,0.0,0.0,0.0,0.0,0.0,0.0,0.0,0.0,0.0,0.0,0.0,0.0,0.0,0.0,0.0,0.0,0.0,0.0,0.0,0.0,0.0,0.0,0.0,0.0,0.0,0.0,0.0,0.0,0.0,0.0,0.0,0.0,0.0,0.0,0.0,0.0,0.0,0.0,0.0,0.0,0.0,0.0,0.0,0.0,0.0,-0.3481,0.1511,0.5363,0.0,0.0,0.0,0.0,0.0,0.0,0.0,0.0,0.0,0.0,0.0,0.0,0.0,0.0,0.0,0.0,0.0,0.0,0.0,0.0,0.0,0.0,0.0,0.0,0.0,0.0,0.0,0.0,0.0,0.0,0.0,0.0,0.0,0.0,0.0,0.0,0.0,0.0,0.0,0.0,0.0,0.0,0.0,0.0,0.0,0.0,0.0,0.0,0.0,0.0,0.0,0.0,0.0,0.0,0.0,0.0,0.0,0.0,0.0,0.0,0.0,0.0,0.0,0.0,0.0,0.0,0.0,0.0,0.0,0.0,0.0,0.0,0.0,0.0,0.0,0.0,0.0,0.0,0.0,0.0,0.0,0.0,0.0,0.0,0.0,0.0,0.0,0.0,0.0,0.0,0.0,0.0,0.0,0.0,0.0,0.0,0.0,0.0,0.0,0.0,0.0,0.0,0.0,0.0,0.0,0.0,0.0,0.0,0.0,0.0,-1.019,-1.0066,-0.1868,0.0,1.2315,0.0,0.0,0.0,0.0,0.0,0.0,0.0,0.0,0.0,0.0,0.0,0.0,0.0,0.0,0.0,0.0,0.0,0.0,0.0,0.0,0.0,0.0,0.0,0.0,0.0,0.0,0.0,0.0,0.0,0.0,0.0,0.0,0.0,0.0,0.0,0.0,0.0,0.0,0.0,0.0,0.0,0.0,0.0,0.0,0.0,0.0,0.0,0.0,0.0,0.0,0.0,0.0,0.0,0.0,0.0,0.0,0.0,0.0,0.0,0.0,0.0,0.0,0.0,0.0,0.0,0.0,0.0,0.0,0.0,0.0,0.0,0.0,0.0,0.0,0.0,0.0,0.0,0.0,0.0,0.0,0.0,0.0,0.0,0.0,0.0,0.0,0.0,0.0,0.0,0.0,0.0,0.0,0.0,0.0,0.0,0.0,0.0,0.0,0.0,0.0,0.0,0.0,0.0,0.0,0.0,0.0,0.0,0.0,0.0,0.0,-0.9739,-0.987,0.4229,1.1975,0.0,0.0,0.0,0.0,0.0,0.0,0.0,0.0,0.0,0.0,0.0,0.0,0.0,0.0,0.0,0.0,0.0,0.0,0.0,0.0,0.0,0.0,0.0,0.0,0.0,0.0,0.0,0.0,0.0,0.0,0.0,0.0,0.0,0.0,0.0,0.0,0.0,0.0,0.0,0.0,0.0,0.0,0.0,0.0,0.0,0.0,0.0,0.0,0.0,0.0,0.0,0.0,0.0,0.0,0.0,0.0,0.0,0.0,0.0,0.0,0.0,0.0,0.0,0.0,0.0,0.0,0.0,0.0,0.0,0.0,0.0,0.0,0.0,0.0,0.0,0.0,0.0,0.0,0.0,0.0,0.0,0.0,0.0,0.0,0.0,0.0,0.0,0.0,0.0,0.0,0.0,0.0,0.0,0.0,0.0,0.0,0.0,0.0,0.0,0.0,0.0,0.0,0.0,0.0,0.0,0.0,0.0,0.0,0.0,0.0,-0.966,-0.8042,-0.5242,0.8185,1.4441,1.1833,0.0,0.0,0.0,0.0,0.0,0.0,0.0,0.0,0.0,0.0,0.0,0.0,0.0,0.0,0.0,0.0,0.0,0.0,0.0,0.0,0.0,0.0,0.0,0.0,0.0,0.0,0.0,0.0,0.0,0.0,0.0,0.0,0.0,0.0,0.0,0.0,0.0,0.0,0.0,0.0,0.0,0.0,0.0,0.0,0.0,0.0,0.0,0.0,0.0,0.0,0.0,0.0,0.0,0.0,0.0,0.0,0.0,0.0,0.0,0.0,0.0,0.0,0.0,0.0,0.0,0.0,0.0,0.0,0.0,0.0,0.0,0.0,0.0,0.0,0.0,0.0,0.0,0.0,0.0,0.0,0.0,0.0,0.0,0.0,0.0,0.0,0.0,0.0,0.0,0.0,0.0,0.0,0.0,0.0,0.0,0.0,0.0,0.0,0.0,0.0,0.0,0.0,0.0,0.0,0.0,0.0,0.0,0.0,-1.3401,-1.0537,-0.4829,0.3279,0.7841,1.1045,0.0,0.0,0.0,0.0,0.0,0.0,0.0,0.0,0.0,0.0,0.0,0.0,0.0,0.0,0.0,0.0,0.0,0.0,0.0,0.0,0.0,0.0,0.0,0.0,0.0,0.0,0.0,0.0,0.0,0.0,0.0,0.0,0.0,0.0,0.0,0.0,0.0,0.0,0.0,0.0,0.0,0.0,0.0,0.0,0.0,0.0,0.0,0.0,0.0,0.0,0.0,0.0,0.0,0.0,0.0,0.0,0.0,0.0,0.0,0.0,0.0,0.0,0.0,0.0,0.0,0.0,0.0,0.0,0.0,0.0,0.0,0.0,0.0,0.0,0.0,0.0,0.0,0.0,0.0,0.0,0.0,0.0,0.0,0.0,0.0,0.0,0.0,0.0,0.0,0.0,0.0,0.0,0.0,0.0,0.0,0.0,0.0,0.0,0.0,0.0,0.0,0.0,0.0,0.0,0.0,0.0,0.0,0.0,0.0,-1.0214,-0.8627,-0.4762,0.1491,0.6311,0.9569,0.0,0.0,0.0,0.0,0.0,0.0,0.0,0.0,0.0,0.0,0.0,0.0,0.0,0.0,0.0,0.0,0.0,0.0,0.0,0.0,0.0,0.0,0.0,0.0,0.0,0.0,0.0,0.0,0.0,0.0,0.0,0.0,0.0,0.0,0.0,0.0,0.0,0.0,0.0,0.0,0.0,0.0,0.0,0.0,0.0,0.0,0.0,0.0,0.0,0.0,0.0,0.0,0.0,0.0,0.0,0.0,0.0,0.0,0.0,0.0,0.0,0.0,0.0,0.0,0.0,0.0,0.0,0.0,0.0,0.0,0.0,0.0,0.0,0.0,0.0,0.0,0.0,0.0,0.0,0.0,0.0,0.0,0.0,0.0,0.0,0.0,0.0,0.0,0.0,0.0,0.0,0.0,0.0,0.0,0.0,0.0,0.0,0.0,0.0,0.0,0.0,0.0,0.0,0.0,0.0,0.0,0.0,0.0,0.0,-0.7445,0.0,-0.4595,0.0337,0.5933,0.9065,0.0,0.0,0.0,0.0,0.0,0.0,0.0,0.0,0.0,0.0,0.0,0.0,0.0,0.0,0.0,0.0,0.0,0.0,0.0,0.0,0.0,0.0,0.0,0.0,0.0,0.0,0.0,0.0,0.0,0.0,0.0,0.0,0.0,0.0,0.0,0.0,0.0,0.0,0.0,0.0,0.0,0.0,0.0,0.0,0.0,0.0,0.0,0.0,0.0,0.0,0.0,0.0,0.0,0.0,0.0,0.0,0.0,0.0,0.0,0.0,0.0,0.0,0.0,0.0,0.0,0.0,0.0,0.0,0.0,0.0,0.0,0.0,0.0,0.0,0.0,0.0,0.0,0.0,0.0,0.0,0.0,0.0,0.0,0.0,0.0,0.0,0.0,0.0,0.0,0.0,0.0,0.0,0.0,0.0,0.0,0.0,0.0,0.0,0.0,0.0,0.0,0.0,0.0,0.0,0.0,0.0,0.0,0.0,-0.6937,-0.5613,-0.6253,-0.4127,0.0955,0.6665,0.9447,0.0,0.0,0.0,0.0,0.0,0.0,0.0,0.0,0.0,0.0,0.0,0.0,0.0,0.0,0.0,0.0,0.0,0.0,0.0,0.0,0.0,0.0,0.0,0.0,0.0,0.0,0.0,0.0,0.0,0.0,0.0,0.0,0.0,0.0,0.0,0.0,0.0,0.0,0.0,0.0,0.0,0.0,0.0,0.0,0.0,0.0,0.0,0.0,0.0,0.0,0.0,0.0,0.0,0.0,0.0,0.0,0.0,0.0,0.0,0.0,0.0,0.0,0.0,0.0,0.0,0.0,0.0,0.0,0.0,0.0,0.0,0.0,0.0,0.0,0.0,0.0,0.0,0.0,0.0,0.0,0.0,0.0,0.0,0.0,0.0,0.0,0.0,0.0,0.0,0.0,0.0,0.0,0.0,0.0,0.0,0.0,0.0,0.0,0.0,0.0,0.0,0.0,0.0,0.0,0.0,0.0,0.0,0.0,0.0,-0.5301,-0.475,-0.295,0.0305,0.462,0.7477,0.0,0.0,0.0,0.0,0.0,0.0,0.0,0.0,0.0,0.0,0.0,0.0,0.0,0.0,0.0,0.0,0.0,0.0,0.0,0.0,0.0,0.0,0.0,0.0,0.0,0.0,0.0,0.0,0.0,0.0,0.0,0.0,0.0,0.0,0.0,0.0,0.0,0.0,0.0,0.0,0.0,0.0,0.0,0.0,0.0,0.0,0.0,0.0,0.0,0.0,0.0,0.0,0.0,0.0,0.0,0.0,0.0,0.0,0.0,0.0,0.0,0.0,0.0,0.0,0.0,0.0,0.0,0.0,0.0,0.0,0.0,0.0,0.0,0.0,0.0,0.0,0.0,0.0,0.0,0.0,0.0,0.0,0.0,0.0,0.0,0.0,0.0,0.0,0.0,0.0,0.0,0.0,0.0,0.0,0.0,0.0,0.0,0.0,0.0,0.0,0.0,0.0,0.0,0.0,0.0,0.0,0.0,0.0,0.0,-0.5299,-0.4052,-0.2364,-0.0206,0.3084,0.577,0.776,0.0,0.0,0.0,0.0,0.0,0.0,0.0,0.0,0.0,0.0,0.0,0.0,0.0,0.0,0.0,0.0,0.0,0.0,0.0,0.0,0.0,0.0,0.0,0.0,0.0,0.0,0.0,0.0,0.0,0.0,0.0,0.0,0.0,0.0,0.0,0.0,0.0,0.0,0.0,0.0,0.0,0.0,0.0,0.0,0.0,0.0,0.0,0.0,0.0,0.0,0.0,0.0,0.0,0.0,0.0,0.0,0.0,0.0,0.0,0.0,0.0,0.0,0.0,0.0,0.0,0.0,0.0,0.0,0.0,0.0,0.0,0.0,0.0,0.0,0.0,0.0,0.0,0.0,0.0,0.0,0.0,0.0,0.0,0.0,0.0,0.0,0.0,0.0,0.0,0.0,0.0,0.0,0.0,0.0,0.0,0.0,0.0,0.0,0.0,0.0,0.0,0.0,0.0,0.0,0.0,0.0,0.0,0.0,-0.5465,-0.4015,-0.2396,-0.0498,0.2069,0.4427,0.0,0.0,0.0,0.0,0.0,0.0,0.0,0.0,0.0,0.0,0.0,0.0,0.0,0.0,0.0,0.0,0.0,0.0,0.0,0.0,0.0,0.0,0.0,0.0,0.0,0.0,0.0,0.0,0.0,0.0,0.0,0.0,0.0,0.0,0.0,0.0,0.0,0.0,0.0,0.0,0.0,0.0,0.0,0.0,0.0,0.0,0.0,0.0,0.0,0.0,0.0,0.0,0.0,0.0,0.0,0.0,0.0,0.0,0.0,0.0,0.0,0.0,0.0,0.0,0.0,0.0,0.0,0.0,0.0,0.0,0.0,0.0,0.0,0.0,0.0,0.0,0.0,0.0,0.0,0.0,0.0,0.0,0.0,0.0,0.0,0.0,0.0,0.0,0.0,0.0,0.0,0.0,0.0,0.0,0.0,0.0,0.0,0.0,0.0,0.0,0.0,0.0,0.0,0.0,0.0,0.0,0.0,0.0,0.0,-0.4995,-0.4386,-0.3199,-0.1377,0.1244,0.3625,0.0,0.0,0.0,0.0,0.0,0.0,0.0,0.0,0.0,0.0,0.0,0.0,0.0,0.0,0.0,0.0,0.0,0.0,0.0,0.0,0.0,0.0,0.0,0.0,0.0,0.0,0.0,0.0,0.0,0.0,0.0,0.0,0.0,0.0,0.0,0.0,0.0,0.0,0.0,0.0,0.0,0.0,0.0,0.0,0.0,0.0,0.0,0.0,0.0,0.0,0.0,0.0,0.0,0.0,0.0,0.0,0.0,0.0,0.0,0.0,0.0,0.0,0.0,0.0,0.0,0.0,0.0,0.0,0.0,0.0,0.0,0.0,0.0,0.0,0.0,0.0,0.0,0.0,0.0,0.0,0.0,0.0,0.0,0.0,0.0,0.0,0.0,0.0,0.0,0.0,0.0,0.0,0.0,0.0,0.0,0.0,0.0,0.0,0.0,0.0,0.0,0.0,0.0,0.0,0.0,0.0,0.0,0.0,-0.5961,-0.5076,-0.4558,-0.3944,-0.3216,-0.0335,0.2153,0.0,0.0,0.0,0.0,0.0,0.0,0.0,0.0,0.0,0.0,0.0,0.0,0.0,0.0,0.0,0.0,0.0,0.0,0.0,0.0,0.0,0.0,0.0,0.0,0.0,0.0,0.0,0.0,0.0,0.0,0.0,0.0,0.0,0.0,0.0,0.0,0.0,0.0,0.0,0.0,0.0,0.0,0.0,0.0,0.0,0.0,0.0,0.0,0.0,0.0,0.0,0.0,0.0,0.0,0.0,0.0,0.0,0.0,0.0,0.0,0.0,0.0,0.0,0.0,0.0,0.0,0.0,0.0,0.0,0.0,0.0,0.0,0.0,0.0,0.0,0.0,0.0,0.0,0.0,0.0,0.0,0.0,0.0,0.0,0.0,0.0,0.0,0.0,0.0,0.0,0.0,0.0,0.0,0.0,0.0,0.0,0.0,0.0,0.0,0.0,0.0,0.0,0.0,0.0,0.0,0.0,0.0,0.0,-0.6008,-0.5266,-0.4584,-0.4466,-0.4946,-0.2019,0.049,0.0,0.0,0.0,0.0,0.0,0.0,0.0,0.0,0.0,0.0,0.0,0.0,0.0,0.0,0.0,0.0,0.0,0.0,0.0,0.0,0.0,0.0,0.0,0.0,0.0,0.0,0.0,0.0,0.0,0.0,0.0,0.0,0.0,0.0,0.0,0.0,0.0,0.0,0.0,0.0,0.0,0.0,0.0,0.0,0.0,0.0,0.0,0.0,0.0,0.0,0.0,0.0,0.0,0.0,0.0,0.0,0.0,0.0,0.0,0.0,0.0,0.0,0.0,0.0,0.0,0.0,0.0,0.0,0.0,0.0,0.0,0.0,0.0,0.0,0.0,0.0,0.0,0.0,0.0,0.0,0.0,0.0,0.0,0.0,0.0,0.0,0.0,0.0,0.0,0.0,0.0,0.0,0.0,0.0,0.0,0.0,0.0,0.0,0.0,0.0,0.0,0.0,0.0,0.0,0.0,0.0,0.0,0.0,-0.5534,-0.4413,-0.4349,-0.4076,-0.3475,-0.1866,0.01,0.0,0.0,0.0,0.0,0.0,0.0,0.0,0.0,0.0,0.0,0.0,0.0,0.0,0.0,0.0,0.0,0.0,0.0,0.0,0.0,0.0,0.0,0.0,0.0,0.0,0.0,0.0,0.0,0.0,0.0,0.0,0.0,0.0,0.0,0.0,0.0,0.0,0.0,0.0,0.0,0.0,0.0,0.0,0.0,0.0,0.0,0.0,0.0,0.4983,0.0,0.0,0.0,0.0,0.0,0.0,0.0,0.0,0.0,0.0,0.0,0.0,0.0,0.0,0.0,0.0,0.0,0.0,0.0,0.0,0.0,0.0,0.0,0.0,0.0,0.0,0.0,0.0,0.0,0.0,0.0,0.0,0.0,0.0,0.0,0.0,0.0,0.0,0.0,0.0,0.0,0.0,0.0,0.0,0.0,0.0,0.0,0.0,0.0,0.0,0.0,0.0,0.0,0.0,0.0,0.0,0.0,0.0,0.0,-0.5402,-0.3906,-0.4014,-0.3719,-0.2859,-0.1792,0.0177,0.0,0.0,0.0,0.0,0.0,0.0,0.0,0.0,0.0,0.0,0.0,0.0,0.0,0.0,0.0,0.0,0.0,0.0,0.0,0.0,0.0,0.0,0.0,0.0,0.0,0.0,0.0,0.0,0.0,0.0,0.0,0.0,0.0,0.0,0.0,0.0,0.0,0.0,0.0,0.0,0.0,0.0,0.0,0.0,0.0,0.0,0.0,0.0,0.0,0.0,0.0,0.0,0.0,0.0,0.0,0.0,0.0,0.0,0.0,0.0,0.0,0.0,0.0,0.0,0.0,0.0,0.0,0.0,0.0,0.0,0.0,0.0,0.0,0.0,0.0,0.0,0.0,0.0,0.0,0.0,0.0,0.0,0.0,0.0,0.0,0.0,0.0,0.0,0.0,0.0,0.0,0.0,0.0,0.0,0.0,0.0,0.0,0.0,0.0,0.0,0.0,0.0,0.0,0.0,0.0,0.0,0.0,-0.6173,-0.5204,-0.3541,-0.3554,-0.3282,-0.2676,-0.1667,0.0265,0.3253,0.0,0.0,0.0,0.0,0.0,0.0,0.0,0.0,0.0,0.0,0.0,0.0,0.0,0.0,0.0,0.0,0.0,0.0,0.0,0.0,0.0,0.0,0.0,0.0,0.0,0.0,0.0,0.0,0.0,0.0,0.0,0.0,0.0,0.0,0.0,0.0,0.0,0.0,0.5068,0.614,0.0,0.0,0.0,0.0,0.0,0.0,0.0,0.0,0.5686,0.0,0.0,0.0,0.0,0.0,0.0,0.0,0.0,0.0,0.0,0.0,0.0,0.0,0.0,0.0,0.0,0.0,0.0,0.0,0.0,0.0,0.0,0.0,0.0,0.0,0.0,0.0,0.0,0.0,0.0,0.0,0.0,0.0,0.0,0.0,0.0,0.0,0.0,0.0,0.0,0.0,0.0,0.0,0.0,0.0,0.0,0.0,0.0,0.0,0.0,0.0,0.0,0.0,0.0,0.0,0.0,-0.5847,-0.4837,-0.3993,-0.3347,-0.2873,-0.2566,-0.2437,-0.1464,-0.0285,0.115,0.0,0.0,0.0,0.0,0.0,0.0,0.0,0.0,0.0,0.0,0.0,0.0,0.0,0.0,0.0,0.0,0.0,0.0,0.0,0.0,0.0,0.0,0.0,0.0,0.0,0.0,0.0,0.0,0.0,0.0,0.0,0.0,0.0,0.0,0.0,0.0,0.0,0.0,0.0,0.6537,0.692,0.0,0.0,0.0,0.0,0.0,0.0,0.0,0.0,0.5582,0.0,0.0,0.0,0.0,0.0,0.0,0.0,0.0,0.0,0.0,0.0,0.0,0.0,0.0,0.0,0.0,0.0,0.0,0.0,0.0,0.0,0.0,0.0,0.0,0.0,0.0,0.0,0.0,0.0,0.0,0.0,0.0,0.0,0.0,0.0,0.0,0.0,0.0,0.0,0.0,0.0,0.0,0.0,0.0,0.0,0.0,0.0,0.0,0.0,0.0,0.0,0.0,0.0,0.0,0.0,-0.6033,-0.4607,-0.365,-0.3104,-0.2826,-0.2587,-0.2284,-0.0991,0.0131,0.0,0.0,0.0,0.0,0.0,0.0,0.0,0.0,0.0,0.0,0.0,0.0,0.0,0.0,0.0,0.0,0.0,0.0,0.0,0.0,0.0,0.0,0.0,0.0,0.0,0.0,0.0,0.0,0.0,0.0,0.0,0.0,0.0,0.0,0.0,0.0,0.0,0.0,0.0,0.0,0.6681,0.6587,0.6631,0.0,0.0,0.0,0.0,0.0,0.0,0.5709,0.6128,0.0,0.0,0.0,0.0,0.0,0.0,0.0,0.0,0.0,0.0,0.0,0.0,0.0,0.0,0.0,0.0,0.0,0.0,0.0,0.0,0.0,0.0,0.0,0.0,0.0,0.0,0.0,0.0,0.0,0.0,0.0,0.0,0.0,0.0,0.0,0.0,0.0,0.0,0.0,0.0,0.0,0.0,0.0,0.0,0.0,0.0,0.0,0.0,0.0,0.0,0.0,0.0,0.0,0.0,0.0,-0.6293,-0.4599,-0.346,-0.2903,-0.2798,-0.2444,-0.1757,-0.0396,0.0688,0.0,0.0,0.0,0.0,0.0,0.0,0.0,0.0,0.0,0.0,0.0,0.0,0.0,0.0,0.0,0.0,0.0,0.0,0.0,0.0,0.0,0.0,0.0,0.0,0.0,0.0,0.0,0.0,0.0,0.0,0.0,0.0,0.0,0.0,0.0,0.0,0.0,0.0,0.0,0.0,0.0,0.6894,0.6816,0.6655,0.0,0.0,0.0,0.0,0.5701,0.6218,0.0,0.0,0.0,0.0,0.0,0.0,0.0,0.0,0.0,0.0,0.0,0.0,0.0,0.0,0.0,0.0,0.0,0.0,0.0,0.0,0.0,0.0,0.0,0.0,0.0,0.0,0.0,0.0,0.0,0.0,0.0,0.0,0.0,0.0,0.0,0.0,0.0,0.0,0.0,0.0,0.0,0.0,0.0,0.0,0.0,0.0,0.0,0.0,0.0,0.0,0.0,0.0,0.0,0.0,0.0,0.0,-0.6311,-0.4247,-0.3056,-0.2726,-0.2199,-0.1406,-0.0294,0.0169,0.099,0.0,0.0,0.0,0.0,0.0,0.0,0.0,0.0,0.0,0.0,0.0,0.0,0.0,0.0,0.0,0.0,0.0,0.0,0.0,0.0,0.0,0.0,0.0,0.0,0.0,0.0,0.0,0.0,0.0,0.0,0.0,0.0,0.0,0.0,0.0,0.0,0.0,0.0,0.0,0.0,0.0,0.9002,0.8872,0.8237,0.7548,0.0,0.0,0.5977,0.6106,0.6687,0.0,0.0,0.0,0.0,0.0,0.0,0.0,0.0,0.0,0.0,0.0,0.0,0.0,0.0,0.0,0.0,0.0,0.0,0.0,0.0,0.0,0.0,0.0,0.0,0.0,0.0,0.0,0.0,0.0,0.0,0.0,0.0,0.0,0.0,0.0,0.0,0.0,0.0,0.0,0.0,0.0,0.0,0.0,0.0,0.0,0.0,0.0,0.0,0.0,0.0,0.0,0.0,0.0,0.0,0.0,-0.8091,-0.6628,-0.4308,-0.3012,-0.2799,-0.2144,-0.123,-0.0022,0.1404,0.2224,0.0,0.0,0.0,0.0,0.0,0.0,0.0,0.0,0.0,0.0,0.0,0.0,0.0,0.0,0.0,0.0,0.0,0.0,0.0,0.0,0.0,0.0,0.0,0.0,0.0,0.0,0.0,0.0,0.0,0.0,0.0,0.0,0.0,0.0,0.0,0.0,0.0,0.0,0.0,0.0,0.0,0.0,0.8985,0.8664,0.0,0.0,0.0,0.6897,0.6891,0.0,0.0,0.0,0.0,0.0,0.0,0.0,0.0,0.0,0.0,0.0,0.0,0.0,0.0,0.0,0.0,0.0,0.0,0.0,0.0,0.0,0.0,0.0,0.0,0.0,0.0,0.0,0.0,0.0,0.0,0.0,0.0,0.0,0.0,0.0,0.0,0.0,0.0,0.0,0.0,0.0,0.0,0.0,0.0,0.0,0.0,0.0,0.0,0.0,0.0,0.0,0.0,0.0,0.0,0.0,0.0,0.0,-0.6875,-0.4318,-0.2977,-0.2859,-0.1894,-0.0914,0.0,0.2079,0.0,0.0,0.0,0.0,0.0,0.0,0.0,0.0,0.0,0.0,0.0,0.0,0.0,0.0,0.0,0.0,0.0,0.0,0.0,0.0,0.0,0.0,0.0,0.0,0.0,0.0,0.0,-1.2383,0.0,0.0,0.0,0.0,0.0,0.0,0.0,0.0,0.0,0.0,0.0,0.0,0.0,0.0,0.8889,0.9461,0.9013,0.8404,0.0,0.0,0.7397,0.7357,0.7214,0.7307,0.0,0.0,0.0,0.0,0.0,0.0,0.0,0.0,0.0,0.0,0.0,0.0,0.0,0.0,0.0,0.0,0.0,0.0,0.0,0.0,0.0,0.0,0.0,0.0,0.0,0.0,0.0,0.0,0.0,0.0,0.0,0.0,0.0,0.0,0.0,0.0,0.0,0.0,0.0,0.0,0.0,0.0,0.0,0.0,0.0,0.0,0.0,0.0,0.0,0.0,0.0,0.0,0.0,0.0,0.0,-0.6819,-0.4155,-0.2799,-0.2821,-0.1084,-0.0089,0.0022,0.1485,0.2252,0.0,0.0,0.0,0.0,0.0,0.0,0.0,0.0,0.0,0.0,0.0,0.0,0.0,0.0,0.0,0.0,0.0,0.0,0.0,0.0,0.0,0.0,0.0,0.0,0.0,0.0,0.0,0.0,0.0,0.0,0.0,0.0,0.0,0.0,0.0,0.0,0.0,0.0,0.0,0.0,0.0,1.068,1.1158,0.9672,0.8441,0.0,0.0,0.6934,0.7169,0.7398,0.7433,0.7075,0.0,0.0,0.0,0.0,0.0,0.0,0.0,0.0,0.0,0.0,0.0,0.0,0.0,0.0,0.0,0.0,0.0,0.0,0.0,0.0,0.0,0.0,0.0,0.0,0.0,0.0,0.0,0.0,0.0,0.0,0.0,0.0,0.0,0.0,0.0,0.0,0.0,0.0,0.0,0.0,0.0,0.0,0.0,0.0,0.0,0.0,0.0,0.0,0.0,0.0,0.0,0.0,0.0,-0.796,-0.6781,-0.4974,-0.3645,-0.2738,-0.0792,0.0593,0.1344,0.2629,0.2991,0.0,0.0,0.0,0.0,0.0,0.0,0.0,0.0,0.0,0.0,0.0,0.0,0.0,0.0,0.0,0.0,0.0,0.0,0.0,0.0,0.0,0.0,0.0,0.0,0.0,0.0,0.0,0.0,-0.7595,-0.289,-0.0558,0.0,0.0,0.0,0.0,0.0,0.0,0.0,0.0,0.0,0.0,1.0047,1.0202,0.9697,0.0,0.0,0.7592,0.726,0.668,0.6935,0.7317,0.7542,0.8308,0.0,0.0,0.0,0.0,0.0,0.0,0.0,0.0,0.0,0.0,0.0,0.0,0.0,0.0,0.0,0.0,0.0,0.0,0.0,0.0,0.0,0.0,0.0,0.0,0.0,0.0,0.0,0.0,0.0,0.0,0.0,0.0,0.0,0.0,0.0,0.0,0.0,0.0,0.0,0.0,0.0,0.0,0.0,0.0,0.0,0.0,0.0,0.0,0.0,0.0,0.0,0.0,-0.8009,-0.6861,-0.5307,-0.3832,-0.2453,-0.0608,0.1007,0.2287,0.3074,0.3133,0.0,0.0,0.0,0.0,0.0,0.0,0.0,0.0,0.0,0.0,0.0,0.0,0.0,0.0,0.0,0.0,0.0,0.0,0.0,0.0,0.0,0.0,0.0,0.0,0.0,0.0,0.0,0.0,-0.456,0.1484,0.2224,0.0,0.0,0.0,0.0,0.0,0.0,0.0,0.0,0.0,0.0,0.9574,0.9648,0.9899,0.9636,0.8369,0.835,0.8217,0.7371,0.7029,0.709,0.7864,0.0,0.0,0.0,0.0,0.0,0.0,0.0,0.0,0.0,0.0,0.0,0.0,0.0,0.0,0.0,0.0,0.0,0.0,0.0,0.0,0.0,0.0,0.0,0.0,0.0,0.0,0.0,0.0,0.0,0.0,-1.5052,0.0,0.0,0.0,0.0,0.0,0.0,0.0,0.0,0.0,0.0,0.0,0.0,0.0,0.0,0.0,0.0,0.0,0.0,0.0,0.0,0.0,0.0,-0.7312,-0.7212,-0.4843,-0.305,-0.1849,-0.0442,0.1092,0.2585,0.2412,0.2302,0.2415,0.0,0.0,0.0,0.0,0.0,0.0,0.0,0.0,0.0,0.0,0.0,0.0,0.0,0.0,0.0,0.0,0.0,0.0,0.0,0.0,0.0,0.0,0.0,0.0,0.0,0.0,-0.8458,-0.1268,0.2294,0.0,0.0,0.0,0.0,0.0,0.0,0.0,0.0,0.0,0.0,0.9527,0.9716,0.9948,1.0419,1.0482,0.9931,0.9798,0.9716,0.9475,0.779,0.6771,0.0,0.0,0.0,0.0,0.0,0.0,0.0,0.0,0.0,0.0,0.0,0.0,0.0,0.0,0.0,0.0,0.0,0.0,0.0,0.0,0.0,0.0,0.0,0.0,0.0,0.0,0.0,-1.4342,-1.4195,0.0,0.0,0.0,0.0,0.0,0.0,0.0,0.0,0.0,0.0,0.0,-1.2943,-1.265,0.0,0.0,0.0,0.0,0.0,0.0,0.0,0.0,0.0,0.0,0.0,0.0,-0.6933,-0.5678,-0.5554,-0.4483,-0.2351,-0.0188,0.1519,0.2649,0.2581,0.257,0.2577,0.0,0.0,0.0,0.0,0.0,0.0,0.0,0.0,0.0,0.0,0.0,0.0,0.0,0.0,0.0,0.0,0.0,0.0,0.0,0.0,0.0,0.0,0.0,0.0,0.0,-1.2207,0.0,0.0,0.0,0.0,0.0,0.0,0.0,0.0,0.0,0.0,0.0,0.9615,1.0712,1.089,1.0738,1.0206,0.9938,0.9411,0.0,0.0,0.0,0.0,0.0,0.0,0.0,0.0,0.0,0.0,0.0,0.0,0.0,0.0,0.6852,0.7637,0.8313,0.8867,0.9217,0.0,0.0,0.0,0.0,0.0,0.0,0.0,0.0,0.0,0.0,0.0,0.0,0.0,0.0,-1.4157,0.0,-1.4399,0.0,0.0,0.0,0.0,0.0,0.0,0.0,0.0,-1.3709,-1.3306,-1.272,-1.2389,-1.197,0.0,-1.1965,-1.1662,0.0,0.0,0.0,0.0,0.0,0.0,0.0,0.0,-0.6645,-0.5043,-0.5398,-0.463,-0.2626,-0.0033,0.1876,0.31,0.3029,0.258,0.1769,0.1226,0.0636,0.0,0.0,0.0,0.0,0.0,0.0,0.0,0.0,0.0,0.0,0.0,0.0,0.0,0.0,0.0,0.0,0.0,0.0,0.0,0.0,0.0,0.0,0.0,-1.0426,0.0,0.0,0.0,0.0,0.0,0.0,0.0,0.0,0.0,0.685,0.8306,0.9862,1.1402,1.1381,1.0896,1.0048,0.0,0.0,0.0,0.0,0.0,0.0,0.0,0.7275,0.7407,0.7736,0.8086,0.8389,0.7821,0.7284,0.7221,0.0,0.0,0.7312,0.7918,0.8436,0.874,0.8255,0.7644,0.7102,0.6327,0.5768,0.0,0.0,0.0,0.0,0.0,0.0,0.0,0.0,-1.2649,-1.2938,0.0,-1.4126,0.0,0.0,0.0,0.0,0.0,-1.4803,0.0,0.0,-1.3348,-1.2648,-1.187,-1.1785,-1.1008,-0.9655,-1.0775,-1.0485,-0.8952,-1.1271,0.0,0.0,0.0,0.0,0.0,0.0,-0.6413,-0.512,-0.4381,-0.3464,-0.2402,0.0066,0.2206,0.3907,0.3592,0.2338,0.0235,0.1657,0.1773,0.0,0.0,0.0,0.0,0.0,0.0,0.0,0.0,0.0,0.0,0.0,0.0,0.0,0.0,0.0,0.0,0.0,0.0,0.0,0.0,0.0,0.0,-1.1585,0.0,0.0,0.0,0.0,0.0,0.0,0.0,0.0,0.0,0.0,0.5987,0.8035,1.0193,1.1467,0.0,0.0,0.0,0.0,1.0995,0.9589,1.0363,1.0599,0.9215,0.8248,0.7666,0.7647,0.0,0.0,0.7511,0.7259,0.7082,0.753,0.6906,0.6656,0.7255,0.7867,0.8198,0.7701,0.7268,0.6763,0.589,0.4702,0.3705,-1.2602,0.0,0.0,0.0,0.0,-1.3576,-1.3607,-1.3539,-1.3083,-1.3156,-1.3598,-1.3139,0.0,0.0,0.0,0.0,0.0,0.0,-1.3796,-1.3326,-1.2853,-1.253,-1.219,-1.1556,-1.0771,-1.004,-1.041,-0.9937,-0.8805,-0.9848,-0.9839,-0.8731,0.0,0.0,0.0,0.0,-0.5008,-0.3877,-0.3349,-0.2016,0.0175,0.1522,0.2805,0.3978,0.2645,0.1321,0.0034,0.0505,0.0556,0.0,0.0,0.0,0.0,0.0,0.0,0.0,0.0,0.0,0.0,0.0,0.0,0.0,0.0,0.0,0.0,0.0,0.0,0.0,0.0,0.0,-1.4346,-0.7358,-0.3513,0.0,0.0,0.0,0.0,0.0,0.0,0.0,0.0,0.0,1.0222,1.0211,1.0725,0.0,0.0,1.13,1.1385,1.0664,0.9933,0.9446,0.866,0.0,0.8105,0.7741,0.7414,0.7225,0.6824,0.648,0.6419,0.6297,0.6175,0.6037,0.5797,0.5712,0.5902,0.6561,0.6562,0.5451,0.5433,0.544,0.4686,0.4109,0.3756,-1.2535,-1.2036,-1.2575,-1.281,-1.2926,-1.3226,-1.3438,-1.3459,-1.2895,-1.3081,-1.3789,-1.3359,-1.3456,-1.393,-1.3706,0.0,0.0,0.0,-1.3803,-1.3494,-1.3012,-1.2567,-1.2135,-1.1347,-1.0617,-0.9933,-0.9872,-0.9323,-0.8406,-0.8824,-0.8502,-0.7515,0.0,0.0,-0.5569,-0.5416,-0.4628,-0.3226,-0.2479,-0.1518,-0.0288,0.2299,0.3943,0.4424,0.3436,0.1991,0.0,0.0,0.0,0.0,0.0,0.1812,0.0,0.0,0.0,0.0,0.0,0.0,0.0,0.0,0.0,0.0,0.0,-1.5132,-1.5014,0.0,0.0,0.0,-1.5238,-1.3621,-1.0169,-0.5165,0.0,0.0,0.0,0.0,0.0,0.0,0.0,1.252,1.2067,1.164,1.1757,1.1328,1.1256,1.2059,1.1705,1.135,1.1341,0.0,0.9213,0.8651,0.7808,0.7276,0.7332,0.7408,0.7171,0.639,0.5845,0.5581,0.5619,0.5501,0.5352,0.5264,0.5144,0.5081,0.5277,0.554,0.5363,0.4242,0.4108,0.4097,0.3821,0.363,0.3401,-1.2424,-1.2403,-1.2986,-1.2947,-1.2434,-1.2456,-1.3045,-1.3877,-1.2436,-1.2926,-1.4749,-1.4313,-1.4101,-1.4058,-1.3508,0.0,-1.4686,-1.4279,-1.4135,-1.4113,-1.3528,-1.2755,-1.1894,-1.1247,-1.0416,-0.9558,-0.9327,-0.8807,-0.8017,-0.8334,-0.8011,-0.7245,-0.8244,-0.7837,-0.6071,-0.5939,-0.4958,-0.305,-0.193,-0.1692,-0.2362,0.2795,0.5464,0.5199,0.5386,0.3752,0.0,0.0,0.0,0.0,0.0,0.0,0.0,0.0,0.0,0.0,0.0,0.0,0.0,0.0,0.0,0.0,0.0,0.0,0.0,0.0,0.0,0.0,-1.5273,0.0,-0.4776,-0.4581,0.0,0.0,0.0,0.6848,0.8905,1.0677,1.1641,1.137,0.0,0.0,1.142,1.154,1.1759,1.1925,1.1325,1.0665,1.0178,0.9578,0.8727,0.7624,0.7643,0.7555,0.6935,0.6966,0.662,0.5353,0.4492,0.4389,0.4958,0.4863,0.476,0.5011,0.48,0.4634,0.5087,0.4686,0.4231,0.3923,0.3335,0.2973,0.3303,0.3039,0.2712,-1.3638,-1.2939,-1.3467,-1.3368,-1.288,-1.3365,-1.3716,-1.3952,-1.3656,-1.4036,-1.4817,-1.4301,-1.4321,-1.4672,-1.4125,-1.4222,-1.4841,-1.4311,-1.4311,-1.4574,-1.369,-1.3143,-1.2798,-1.1556,-1.0633,-1.007,-1.0369,-0.9836,-0.8594,-0.9341,-0.9435,-0.8899,-0.9107,-0.8343,-0.6704,-0.6269,-0.5183,-0.3451,-0.2277,-0.1319,-0.0537,0.4888,0.7018,0.5327,0.6502,0.489,0.0,0.0,0.0,0.0,0.0,0.0,0.0,-0.0881,0.0,0.0,0.0,0.0,0.0,0.0,0.0,0.0,0.0,-1.5727,-1.5244,0.0,-1.7451,0.0,-1.4359,-1.1721,-0.9589,-0.4504,0.0,0.0,0.4382,0.7781,0.9316,1.0446,1.1914,1.4053,1.3246,1.2663,1.3095,1.235,1.1486,1.0688,1.0071,1.0026,1.0784,0.9335,0.8131,0.7874,0.7452,0.7067,0.6596,0.5732,0.5,0.4442,0.4327,0.4379,0.4552,0.4438,0.4329,0.4416,0.4289,0.4101,0.3993,0.3788,0.356,0.3138,0.3175,0.3204,0.2977,0.2513,0.2281,-1.4336,-1.3842,-1.4103,-1.4045,-1.3751,-1.3849,-1.4182,-1.4695,-1.4446,-1.4673,-1.5188,-1.4418,-1.4651,-1.5505,-1.4549,-1.4663,-1.5556,-1.5069,-1.4945,-1.5162,-1.4605,-1.4038,-1.3533,-1.267,-1.1987,-1.1483,-1.1503,-1.1169,-1.0545,-1.114,-1.1441,-1.127,-1.1168,-1.0827,-1.0195,-0.8409,-0.6879,-0.5567,-0.5547,-0.4829,-0.3246,-0.0311,0.2603,0.5421,0.4702,0.2936,0.0,0.0,0.0,0.0,0.0,-0.0308,-0.0999,-0.2249,-0.4441,0.0,0.0,0.0,0.0,0.0,0.0,0.0,0.0,0.0,0.0,0.0,-1.7902,-1.6617,-1.3338,-1.0865,-0.9809,-0.4696,-0.0695,0.1095,0.4663,0.7832,1.0063,1.027,1.1344,1.4026,1.3039,1.1949,1.1464,1.1159,1.043,0.8875,0.8286,0.8294,0.9015,0.7984,0.699,0.6877,0.6664,0.6373,0.6032,0.503,0.4173,0.383,0.3775,0.3875,0.4089,0.4066,0.4026,0.4017,0.3935,0.3778,0.337,0.3202,0.3048,0.293,0.2689,0.2477,0.2311,0.1976,0.1776,-1.473,-1.4691,-1.4719,-1.473,-1.4773,-1.4233,-1.463,-1.5588,-1.505,-1.5106,-1.5564,-1.4678,-1.5119,-1.6375,-1.4979,-1.5145,-1.6533,-1.6057,-1.584,-1.5901,-1.5831,-1.5339,-1.4479,-1.4303,-1.3987,-1.3563,-1.3048,-1.2979,-1.333,-1.3565,-1.386,-1.4183,-1.3953,-1.4201,-1.473,-1.1756,-0.967,-0.8668,-1.0497,-1.075,-0.9371,-0.9259,-0.527,0.2508,0.0658,-0.0662,-0.0648,-0.0709,-0.0641,-0.0456,0.0,-0.075,-0.1949,-0.3404,-0.545,0.0,-0.8614,0.0,0.0,0.0,0.0,0.0,0.0,0.0,0.0,-1.7679,-1.7472,-1.5457,-1.2474,-0.9763,-0.7622,-0.4568,-0.1139,0.2741,0.4949,0.7332,1.0174,0.9923,1.0361,1.2733,1.2258,1.0993,0.9399,0.9596,0.924,0.7405,0.6523,0.6152,0.6184,0.6039,0.5733,0.5179,0.5389,0.5458,0.5286,0.4675,0.3983,0.3489,0.3327,0.3324,0.3727,0.3762,0.3738,0.3738,0.3706,0.3543,0.3086,0.2891,0.2825,0.2903,0.2167,0.1577,0.1684,0.1473,0.1174,-1.4695,-1.4691,-1.4719,-1.4983,-1.5415,-1.5311,-1.5365,-1.5588,-1.5454,-1.5536,-1.5691,-1.5927,-1.6201,-1.6441,-1.5747,-1.6043,-1.7114,-1.6586,-1.6585,-1.7018,-1.6996,-1.705,-1.7093,-1.6324,-1.6196,-1.6605,-1.6293,-1.6273,-1.6583,-1.6637,-1.6916,-1.7385,-1.6947,-1.6953,-1.7309,0.0,0.0,0.0,-1.5953,-1.8546,-1.9949,-1.7554,-1.4805,-1.1706,-0.675,0.0,-0.4149,-0.4507,-0.413,-0.2869,-0.1822,0.0,0.0,0.0,0.0,0.0,0.0,0.0,0.0,0.0,0.0,0.0,-1.4029,-1.4892,-1.5394,-1.6232,-1.6337,-1.5301,-1.2264,-0.9106,-0.6266,-0.2738,0.0294,0.2497,0.4693,0.6476,0.7639,0.8659,1.0026,1.1642,1.2061,1.1944,1.115,1.0656,0.9256,0.6842,0.5668,0.4352,0.2954,0.3983,0.4634,0.4193,0.4129,0.4443,0.4976,0.4353,0.3837,0.3578,0.3524,0.3507,0.3605,0.3503,0.3389,0.3426,0.3327,0.324,0.3103,0.3059,0.2872,0.2475,0.2016,0.1629,0.1433,0.1072,0.084,-1.638,0.0,-1.6374,-1.6562,0.0,-1.6828,-1.6844,-1.6777,-1.62,-1.61,-1.6376,-1.6415,-1.6874,-1.7636,-1.6834,-1.7204,-1.8426,-1.7887,-1.7887,-1.8355,-1.8358,-1.8402,-1.8512,-1.8186,-1.8188,-1.8503,-1.8576,-1.8783,-1.912,-1.9263,-1.9608,-2.0153,-1.9403,-1.9409,-2.0086,-1.9014,-1.7177,-1.4764,-1.8043,-1.9927,-2.0231,-1.8496,-1.7353,-1.682,-1.0547,0.0,0.0,0.0,0.0,0.0,0.0,0.0,0.0,0.0,0.0,-0.3331,-0.4426,-0.54,-0.6212,-0.8094,-1.0011,-1.1731,-1.3205,-1.4576,-1.588,-1.6525,-1.6012,-1.4026,-1.0251,-0.7001,-0.4798,-0.1608,0.0908,0.2107,0.3752,0.5084,0.6006,0.6853,0.8694,1.1533,1.1613,1.0652,0.9012,0.8851,0.7326,0.4352,0.3248,0.2427,0.1257,0.2192,0.3021,0.2633,0.2893,0.3285,0.3733,0.3846,0.371,0.365,0.3401,0.3309,0.3578,0.3293,0.311,0.3328,0.3398,0.3347,0.3347,0.3347,0.3032,0.2022,0.1605,0.1282,0.0818,0.0483,0.037,-1.8342,-1.8325,-1.8325,-1.8321,-1.8313,-1.8321,-1.8317,-1.8328,0.0,0.0,0.0,-1.7036,-1.7698,-1.8907,-1.8143,-1.8484,-1.9647,-1.9316,-1.9328,-1.9652,-1.976,-1.982,-1.9814,-2.0064,-2.021,-2.0255,-2.068,-2.1076,-2.1514,-2.1679,-2.206,-2.2492,-2.1733,-2.1619,-2.2168,-2.1472,-1.9661,-1.6982,-1.891,-1.9427,-1.8222,-1.7369,-1.7311,-1.8121,-1.2804,-0.9553,-0.8703,-0.5917,-0.3731,-0.246,-0.1552,-0.1235,-0.1603,-0.176,-0.2037,-0.2583,-0.3943,-0.4671,-0.4548,-0.677,-0.8919,-1.0661,-1.2638,-1.4677,-1.6656,-1.6667,-1.5465,-1.271,-0.8347,-0.5139,-0.3725,-0.1229,0.067,0.1258,0.2279,0.3258,0.4224,0.5052,0.7043,1.0647,1.0484,0.8874,0.654,0.645,0.5395,0.1973,0.0987,0.0474,0.0,0.073,0.1503,0.1423,0.1931,0.2409,0.2948,0.3246,0.3524,0.3417,0.2954,0.2729,0.304,0.2857,0.2765,0.307,0.3265,0.3208,0.3258,0.3243,0.2854,0.1417,0.1064,0.0791,0.0,0.0,0.0,-1.9211,-1.9211,-1.9199,-1.9236,-1.9232,-1.9206,-1.9338,-1.9421,-1.8773,-1.8426,-1.841,-1.911,-1.9375,-1.9336,-1.9464,-1.9756,-2.0122,-2.033,-2.0495,-2.0543,-2.1239,-2.1759,-2.2105,-2.217,-2.25,-2.3084,-2.306,-2.3449,-2.4136,-2.4024,-2.4202,-2.4547,-2.42,-2.3474,-2.2656,-2.2848,-2.199,-1.9992,-2.0031,-2.0352,-2.0808,-1.8616,-1.7602,-1.7884,-1.4764,-1.1647,-0.8837,-0.7977,-0.671,-0.478,-0.2771,-0.1478,-0.1046,-0.0583,-0.0598,-0.1269,-0.1582,-0.2554,-0.4365,-0.5441,-0.7359,-1.0535,-1.2638,-1.4539,-1.6206,-1.4586,-1.3144,-1.2209,-0.8656,-0.5462,-0.343,-0.2209,-0.1267,-0.0612,0.0094,0.0612,0.0956,0.3369,0.5511,0.6919,0.8094,0.8448,0.6952,0.5642,0.4009,0.2056,0.0,-0.0879,-0.0878,-0.0275,0.044,0.0995,0.1381,0.2256,0.3238,0.3425,0.304,0.2665,0.2241,0.1973,0.2154,0.2057,0.201,0.2097,0.2188,0.2142,0.2142,0.2322,0.2075,0.1162,0.0662,0.024,0.0,0.0,0.0,-2.0356,-2.052,-2.054,-2.0634,-2.0754,-2.0882,-2.1077,-2.1278,-2.1211,-2.0706,-1.9962,-2.0339,-2.0644,-2.0931,-2.1095,-2.1387,-2.1837,-2.1983,-2.2165,-2.2404,-2.2764,-2.3043,-2.3258,-2.331,-2.3594,-2.4007,-2.4145,-2.4454,-2.4858,-2.4821,-2.4961,-2.528,-2.5193,-2.4776,-2.4126,-2.4454,-2.3703,-2.1788,-2.1116,-2.0569,-2.002,-1.8404,-1.7046,-1.6022,-1.3982,-1.147,-0.8364,-0.7372,-0.558,-0.282,-0.1425,-0.0416,0.0152,0.0431,0.0275,-0.048,-0.0877,-0.1391,-0.1981,-0.6047,-0.9068,-1.0638,-1.2337,-1.3433,-1.3701,-1.2829,-1.1938,-1.1167,-0.865,-0.6338,-0.4567,-0.3722,-0.301,-0.2244,-0.1947,-0.1279,-0.0101,0.1235,0.3026,0.47,0.5735,0.5871,0.4735,0.371,0.2003,-0.033,-0.2099,-0.2764,-0.2291,-0.1983,-0.1225,0.0168,0.0616,0.1159,0.2316,0.2459,0.2285,0.2193,0.169,0.1498,0.1647,0.1593,0.1475,0.1739,0.1784,0.1784,0.1784,0.1917,0.1679,0.1139,0.0737,0.0336,-0.024,-0.0682,-0.0643,-2.1545,-2.1762,-2.1844,-2.201,-2.2275,-2.2487,-2.27,-2.3017,-2.3295,-2.2851,-2.1919,-2.1809,-2.2054,-2.2534,-2.2634,-2.2898,-2.3292,-2.3414,-2.3617,-2.3914,-2.4008,-2.4045,-2.4045,-2.4161,-2.4301,-2.4444,-2.4737,-2.4936,-2.5025,-2.5158,-2.5287,-2.5449,-2.5564,-2.5486,-2.5301,-2.5286,-2.4422,-2.2712,-2.108,-1.9884,-1.9065,-1.7098,-1.5633,-1.5026,-1.3294,-1.0851,-0.7809,-0.6266,-0.399,-0.0852,0.0209,0.0796,0.109,0.1087,0.0774,0.0054,-0.0551,-0.0835,-0.1099,-0.6644,-1.0254,-1.0311,-1.1738,-1.2318,-1.1616,-1.1478,-1.0897,-0.968,-0.8338,-0.7076,-0.5845,-0.5211,-0.4569,-0.388,-0.3733,-0.2909,-0.1157,-0.0638,0.0376,0.2656,0.3239,0.2781,0.1548,0.0995,-0.0497,-0.3322,-0.445,-0.4348,-0.3621,-0.3403,-0.2506,-0.1174,-0.0392,0.0,0.0629,0.0879,0.1217,0.1576,0.1154,0.0958,0.1106,0.0955,0.0897,0.1206,0.134,0.1295,0.134,0.134,0.1162,0.0714,0.0445,0.0088,-0.0825,-0.1384,-0.1396,-2.2548,-2.2633,-2.2877,-2.3152,-2.3343,-2.3553,-2.3823,-2.4097,-2.4184,-2.4302,-2.4276,-2.4107,-2.3824,-2.3729,-2.3952,-2.3971,-2.3805,-2.4062,-2.4246,-2.4377,-2.4591,-2.4735,-2.4768,-2.48,-2.4835,-2.4855,-2.507,-2.516,-2.5209,-2.542,-2.5484,-2.5326,-2.5259,-2.5267,-2.5215,-2.4447,-2.3584,-2.2632,-1.8787,-1.7679,-1.9141,-1.402,-1.2998,-1.6976,-1.4113,-1.0748,-0.671,-0.5678,-0.3692,-0.0832,0.1084,0.1719,0.1163,0.1114,0.0782,0.0056,0.0,-0.0892,-0.2925,-0.6501,-0.8696,-0.9023,-1.0697,-1.1715,-1.1403,-1.0781,-0.96,-0.8155,-0.77,-0.7297,-0.6483,-0.6227,-0.5896,-0.5161,-0.5165,-0.4543,-0.3207,-0.2411,-0.1595,-0.0782,0.0056,-0.0166,-0.1476,-0.2184,-0.3558,-0.5475,-0.5378,-0.4984,-0.4402,-0.3762,-0.3287,-0.2286,-0.1675,-0.1042,-0.042,-0.075,-0.0378,0.0595,0.0497,0.0181,0.0091,0.0136,0.0135,0.0089,0.0179,0.0179,0.0179,0.018,0.018,0.0045,-0.0356,-0.0873,-0.1453,-0.1857,-0.183,-2.2813,-2.3017,-2.3351,-2.3744,-2.41,-2.4385,-2.4565,-2.4606,-2.4801,-2.4917,-2.493,-2.4937,-2.4793,-2.4579,-2.4759,-2.4823,-2.4812,-2.4962,-2.5019,-2.5056,-2.5173,-2.5216,-2.5244,-2.5132,-2.5139,-2.5233,-2.5214,-2.524,-2.5327,-2.544,-2.5324,-2.5054,-2.5116,-2.5171,-2.5037,-2.4495,-2.373,-2.2593,-1.8709,-1.7649,-1.892,-1.5318,-1.3141,-1.3401,-1.273,-0.9156,-0.3528,-0.2672,-0.1749,0.0272,0.1548,0.1898,0.1118,0.1118,0.0783,0.0,0.0,-0.078,-0.2556,-0.4796,-0.6849,-0.8488,-0.9804,-1.0497,-1.04,-1.0269,-0.9311,-0.7475,-0.7771,-0.7888,-0.6781,-0.7272,-0.7378,-0.6448,-0.6802,-0.662,-0.4783,-0.4341,-0.3862,-0.313,-0.2785,-0.2929,-0.3893,-0.4389,-0.4957,-0.576,-0.5382,-0.4995,-0.4988,-0.4446,-0.4116,-0.4045,-0.3561,-0.2634,-0.1618,-0.1657,-0.1527,-0.1038,-0.0895,-0.1077,-0.1011,-0.1041,-0.1073,-0.1029,-0.0984,-0.0984,-0.1072,-0.1033,-0.1034,-0.0987,-0.1293,-0.183,-0.1951,-0.2384,-0.2466,-2.3186,-2.3731,-2.4351,-2.4931,-2.534,-2.5406,-2.5392,-2.5298,-2.5308,-2.5214,-2.5149,-2.533,-2.5357,-2.5239,-2.5251,-2.5352,-2.5481,-2.5468,-2.5471,-2.5492,-2.5479,-2.5489,-2.5481,-2.536,-2.5371,-2.5471,-2.5347,-2.5311,-2.5333,-2.5317,-2.5128,-2.4854,-2.4929,-2.4968,-2.4838,-2.4554,-2.3864,-2.2565,-1.9043,-1.7835,-1.8693,-1.5627,-1.2936,-1.1547,-1.0652,-0.7282,-0.1298,-0.1041,-0.011,0.1899,0.1783,0.1282,0.0557,0.0334,-0.0056,-0.0503,-0.0502,-0.1057,-0.2397,-0.3515,-0.5156,-0.7466,-0.841,-0.8813,-0.8854,-0.9027,-0.833,-0.6717,-0.7467,-0.767,-0.7295,-0.8032,-0.8253,-0.7408,-0.8242,-0.8009,-0.6392,-0.6108,-0.5742,-0.4959,-0.4769,-0.5299,-0.5932,-0.6269,-0.6568,-0.6519,-0.5932,-0.55,-0.5819,-0.5437,-0.4999,-0.5642,-0.499,-0.3865,-0.2624,-0.238,-0.2333,-0.1969,-0.1698,-0.1713,-0.1811,-0.1764,-0.1786,-0.1472,-0.1695,-0.1739,-0.1563,-0.1658,-0.1887,-0.1835,-0.2138,-0.2621,-0.2604,-0.2932,-0.2964,-2.3838,-2.4972,-2.6412,-2.704,-2.7395,-2.6699,-2.6484,-2.6444,-2.5707,-2.536,-2.5485,-2.5572,-2.5563,-2.564,-2.5565,-2.5444,-2.5496,-2.5398,-2.541,-2.5488,-2.543,-2.544,-2.55,-2.5502,-2.5502,-2.55,-2.5485,-2.537,-2.5222,-2.5145,-2.5015,-2.4778,-2.4625,-2.4615,-2.4653,-2.4278,-2.3725,-2.2613,-1.9556,-1.7955,-1.7941,-1.3535,-1.1587,-1.2043,-0.8317,-0.4953,-0.2948,-0.1756,0.0497,0.4098,0.156,-0.0167,-0.0944,-0.1613,-0.1952,-0.2007,-0.1671,-0.1949,-0.3005,-0.3259,-0.4014,-0.5517,-0.6558,-0.6806,-0.6934,-0.7057,-0.6696,-0.5652,-0.6386,-0.702,-0.7563,-0.8281,-0.8712,-0.854,-0.8652,-0.8387,-0.7664,-0.7492,-0.7058,-0.6234,-0.6279,-0.6753,-0.7482,-0.8224,-0.8256,-0.8209,-0.7842,-0.7413,-0.7182,-0.6308,-0.5923,-0.6056,-0.5578,-0.4469,-0.3354,-0.3066,-0.2677,-0.2398,-0.2322,-0.201,-0.1832,-0.1786,-0.1873,-0.1917,-0.2051,-0.2053,-0.1875,-0.1966,-0.2235,-0.2455,-0.2948,-0.3261,-0.3026,-0.3086,-0.3096,-2.5416,-2.5996,-2.6443,-2.6897,-2.7224,-2.6224,-2.639,-2.7313,-2.6505,-2.6505,-2.7017,-2.7129,-2.7207,-2.7219,-2.658,-2.6022,-2.558,-2.5504,-2.5505,-2.548,-2.548,-2.5466,-2.5499,-2.5518,-2.5511,-2.5522,-2.5514,-2.5382,-2.5158,-2.5082,-2.478,-2.4353,-2.4229,-2.4135,-2.3985,-2.3705,-2.3236,-2.2572,-2.0879,-1.9432,-1.7706,-1.3741,-1.0912,-0.9222,-0.6587,-0.385,-0.1219,-0.0665,0.0056,0.0892,-0.0167,-0.1055,-0.1725,-0.2062,-0.2176,-0.2232,-0.2341,-0.289,-0.3828,-0.3993,-0.4601,-0.5977,-0.5982,-0.591,-0.5986,-0.6288,-0.6312,-0.5823,-0.6154,-0.6912,-0.7622,-0.8353,-0.8585,-0.8228,-0.8513,-0.8685,-0.8493,-0.8368,-0.8203,-0.7865,-0.7919,-0.8131,-0.8178,-0.8256,-0.8103,-0.8043,-0.7456,-0.7348,-0.7456,-0.6794,-0.6436,-0.6744,-0.6233,-0.5388,-0.4815,-0.4145,-0.3742,-0.3496,-0.3337,-0.3341,-0.3249,-0.3031,-0.3031,-0.3155,-0.307,-0.281,-0.2768,-0.2724,-0.2948,-0.3081,-0.3534,-0.3477,-0.334,-0.3368,-0.3288,-2.6863,-2.7213,-2.7349,-2.7737,-2.8056,-2.7002,-2.7198,-2.8159,-2.739,-2.739,-2.7933,-2.8061,-2.8133,-2.8113,-2.7558,-2.6819,-2.6034,-2.5707,-2.5524,-2.5505,-2.5486,-2.5447,-2.5428,-2.5447,-2.5447,-2.5428,-2.5428,-2.5297,-2.5082,-2.5024,-2.4743,-2.4375,-2.4264,-2.41,-2.3826,-2.3472,-2.3045,-2.2502,-2.1552,-1.9669,-1.6871,-1.3553,-1.0089,-0.6901,-0.512,-0.3171,-0.0503,-0.0335,-0.0836,-0.1673,-0.1836,-0.2166,-0.2841,-0.2954,-0.2954,-0.2954,-0.3287,-0.3727,-0.433,-0.4508,-0.4901,-0.5773,-0.5496,-0.516,-0.5206,-0.5651,-0.5597,-0.5538,-0.6627,-0.745,-0.7509,-0.8193,-0.8585,-0.8168,-0.8526,-0.8798,-0.8818,-0.8752,-0.8752,-0.8699,-0.8692,-0.8752,-0.8752,-0.8374,-0.8156,-0.8049,-0.7563,-0.7557,-0.783,-0.7444,-0.7143,-0.758,-0.6867,-0.6438,-0.6054,-0.5566,-0.4851,-0.4539,-0.426,-0.4355,-0.4389,-0.4212,-0.4156,-0.4272,-0.418,-0.3884,-0.3711,-0.3622,-0.3622,-0.3622,-0.3619,-0.3585,-0.3577,-0.3674,-0.3734,-2.8067,-2.8529,-2.9336,-2.9692,-2.9902,-2.9021,-2.8929,-2.8948,-2.8255,-2.8044,-2.8335,-2.8223,-2.8424,-2.832,-2.8339,-2.7796,-2.7007,-2.616,-2.5678,-2.5621,-2.5611,-2.5582,-2.5582,-2.5524,-2.5409,-2.5332,-2.5332,-2.522,-2.5019,-2.5018,-2.4947,-2.4911,-2.4692,-2.4414,-2.4221,-2.3601,-2.3152,-2.2346,-2.0873,-1.8538,-1.5537,-1.2679,-0.9422,-0.5898,-0.4219,-0.2815,-0.1228,-0.1174,-0.184,-0.3065,-0.3345,-0.3735,-0.4343,-0.4401,-0.4457,-0.4401,-0.446,-0.446,-0.4515,-0.4515,-0.4519,-0.4846,-0.4625,-0.4625,-0.4622,-0.468,-0.4732,-0.5218,-0.6848,-0.8103,-0.7235,-0.8049,-0.8758,-0.8804,-0.8765,-0.8765,-0.8811,-0.8804,-0.8804,-0.8804,-0.8804,-0.8804,-0.8804,-0.8699,-0.8646,-0.8646,-0.8593,-0.8533,-0.8593,-0.8049,-0.8103,-0.8293,-0.786,-0.723,-0.7148,-0.6968,-0.6173,-0.5496,-0.5183,-0.5062,-0.5075,-0.4969,-0.4937,-0.5002,-0.4714,-0.4412,-0.4168,-0.4124,-0.3972,-0.3972,-0.3836,-0.3961,-0.4117,-0.435,-0.4524,-2.9001,-2.9083,-2.9077,-2.9508,-2.992,-2.8806,-2.889,-2.9871,-2.914,-2.914,-2.9652,-2.9795,-2.9853,-2.9744,-2.9355,-2.8942,-2.8676,-2.7769,-2.6978,-2.6511,-2.6863,-2.7093,-2.6996,-2.6486,-2.589,-2.5466,-2.5409,-2.534,-2.5173,-2.5107,-2.492,-2.4615,-2.4393,-2.3952,-2.3461,-2.3035,-2.2591,-2.1807,-2.0207,-1.8179,-1.5743,-1.2868,-0.9646,-0.6458,-0.4787,-0.3602,-0.2676,-0.2676,-0.2899,-0.3398,-0.4278,-0.516,-0.5714,-0.5441,-0.5218,-0.516,-0.4732,-0.4732,-0.5054,-0.4732,-0.4736,-0.5003,-0.4787,-0.4515,-0.4463,-0.4519,-0.4944,-0.5692,-0.6843,-0.7343,-0.8049,-0.848,-0.8804,-0.8804,-0.8804,-0.8804,-0.8804,-0.8804,-0.8804,-0.8804,-0.8804,-0.8804,-0.8804,-0.8804,-0.8804,-0.8804,-0.8804,-0.8804,-0.8752,-0.8639,-0.8632,-0.9004,-0.8443,-0.8026,-0.7815,-0.7583,-0.7025,-0.6413,-0.6041,-0.5836,-0.5837,-0.5816,-0.5779,-0.5523,-0.5227,-0.4941,-0.4701,-0.4525,-0.4412,-0.4535,-0.4618,-0.4783,-0.4952,-0.5105,-0.5209,-2.931,-2.9378,-2.9217,-2.9444,-2.9913,-2.9109,-2.9429,-3.0294,-2.989,-3.0012,-3.0441,-3.0579,-3.0635,-3.0535,-3.0146,-2.9812,-2.9551,-2.9212,-2.8637,-2.7835,-2.7806,-2.8014,-2.7901,-2.7112,-2.6246,-2.5572,-2.5484,-2.5453,-2.5332,-2.526,-2.5091,-2.477,-2.4601,-2.4116,-2.3358,-2.2941,-2.2306,-2.0953,-1.9186,-1.7176,-1.4908,-1.2732,-1.0,-0.7014,-0.6192,-0.5396,-0.4275,-0.4278,-0.4278,-0.433,-0.5265,-0.6199,-0.675,-0.6036,-0.5483,-0.5378,-0.4948,-0.4677,-0.5058,-0.4732,-0.468,-0.4948,-0.4736,-0.468,-0.4728,-0.4732,-0.5105,-0.6333,-0.6838,-0.7295,-0.8156,-0.8699,-0.8752,-0.8804,-0.8804,-0.8804,-0.8804,-0.8804,-0.8804,-0.8804,-0.8804,-0.8804,-0.8804,-0.8804,-0.8804,-0.8804,-0.8804,-0.8804,-0.8857,-0.9061,-0.9219,-0.9293,-0.8976,-0.8651,-0.8396,-0.8108,-0.7768,-0.7321,-0.6947,-0.6734,-0.6637,-0.6578,-0.6574,-0.61,-0.5777,-0.5404,-0.5164,-0.498,-0.4879,-0.5135,-0.5394,-0.5647,-0.5819,-0.5647,-0.576,-2.9138,-2.9433,-2.9588,-2.981,-3.0032,-3.0183,-3.0333,-3.0487,-3.0487,-3.0451,-3.0537,-3.0623,-3.0614,-3.0588,-3.0613,-3.0328,-2.982,-3.0255,-3.0114,-2.9399,-2.8893,-2.851,-2.8213,-2.7583,-2.6745,-2.5816,-2.5698,-2.5595,-2.5503,-2.549,-2.5486,-2.534,-2.5173,-2.4796,-2.3786,-2.3343,-2.2048,-2.0224,-1.8134,-1.5928,-1.3806,-1.2416,-1.0471,-0.7359,-0.7887,-0.7471,-0.5955,-0.5806,-0.5864,-0.576,-0.6308,-0.6912,-0.7074,-0.6249,-0.5651,-0.5487,-0.4897,-0.457,-0.4515,-0.4515,-0.4519,-0.457,-0.468,-0.4783,-0.5097,-0.5164,-0.5437,-0.6499,-0.7165,-0.7622,-0.7996,-0.8427,-0.8752,-0.8804,-0.8804,-0.8804,-0.8804,-0.8804,-0.8804,-0.8804,-0.8804,-0.8804,-0.8804,-0.8804,-0.8804,-0.8804,-0.8804,-0.8804,-0.9008,-0.9211,-0.9361,-0.9379,-0.9365,-0.9062,-0.8704,-0.8324,-0.8031,-0.7908,-0.762,-0.7541,-0.7362,-0.7329,-0.7237,-0.6773,-0.6275,-0.5944,-0.5744,-0.5653,-0.561,-0.5739,-0.6081,-0.6513,-0.6513,-0.6301,-0.6209,-2.9156,-2.9414,-2.9626,-2.9891,-3.016,-3.0382,-3.0506,-3.0583,-3.0602,-3.0598,-3.0595,-3.0616,-3.0614,-3.0587,-3.0646,-3.0553,-3.0466,-3.0693,-3.0789,-3.0547,-3.0339,-2.971,-2.9208,-2.8883,-2.796,-2.6689,-2.6406,-2.6277,-2.5698,-2.5586,-2.5542,-2.5447,-2.5118,-2.4582,-2.3805,-2.2788,-2.1787,-2.0526,-1.8295,-1.6896,-1.5807,-1.3588,-1.1798,-1.0556,-0.9264,-0.8215,-0.7175,-0.716,-0.7176,-0.7117,-0.7289,-0.745,-0.7509,-0.6745,-0.6036,-0.5492,-0.4897,-0.4463,-0.4463,-0.4463,-0.4463,-0.4515,-0.4838,-0.5109,-0.4838,-0.5928,-0.6475,-0.695,-0.761,-0.8374,-0.8533,-0.8699,-0.8804,-0.8804,-0.8804,-0.8804,-0.8804,-0.8804,-0.8804,-0.8804,-0.8804,-0.8804,-0.8804,-0.8804,-0.8804,-0.8804,-0.8804,-0.8962,-0.9256,-0.9204,-0.9309,-0.9762,-0.9768,-0.9365,-0.8955,-0.8559,-0.8319,-0.8333,-0.8227,-0.8224,-0.8071,-0.7977,-0.7786,-0.7497,-0.6925,-0.652,-0.6587,-0.6592,-0.655,-0.6295,-0.655,-0.6852,-0.6852,-0.6761,-0.6719,-2.9089,-2.9267,-2.9589,-2.9822,-3.0029,-3.0318,-3.0494,-3.0558,-3.0588,-3.0598,-3.0565,-3.0576,-3.0597,-3.0556,-3.0595,-3.0636,-3.0716,-3.0793,-3.0834,-3.0908,-3.0859,-3.0333,-2.9523,-2.8962,-2.7952,-2.7035,-2.6598,-2.6154,-2.5742,-2.5599,-2.5508,-2.5302,-2.4977,-2.4321,-2.3392,-2.2399,-2.121,-1.9943,-1.8303,-1.7356,-1.6658,-1.4933,-1.347,-1.2435,-1.1002,-0.9992,-0.912,-0.8751,-0.8296,-0.7824,-0.7883,-0.799,-0.7563,-0.6966,-0.6258,-0.5542,-0.4897,-0.4463,-0.4463,-0.4463,-0.4463,-0.457,-0.4948,-0.5003,-0.5113,-0.6036,-0.6475,-0.7182,-0.7889,-0.8427,-0.8752,-0.8804,-0.8804,-0.8804,-0.8804,-0.8804,-0.8804,-0.8804,-0.8804,-0.8804,-0.8804,-0.8804,-0.8804,-0.8804,-0.8804,-0.8804,-0.8804,-0.9159,-0.9562,-0.9361,-0.9309,-0.9762,-0.9865,-0.9438,-0.9073,-0.8697,-0.8555,-0.8517,-0.8524,-0.8604,-0.8484,-0.8343,-0.8063,-0.7736,-0.7435,-0.7168,-0.7081,-0.6972,-0.6888,-0.6803,-0.6972,-0.6972,-0.6972,-0.7081,-0.7074,-2.8975,-2.9044,-2.9495,-2.9696,-2.982,-3.0316,-3.0623,-3.0537,-3.0711,-3.0665,-3.0557,-3.0579,-3.0549,-3.0525,-3.0574,-3.064,-3.0681,-3.0754,-3.08,-3.082,-3.0723,-3.0293,-2.9824,-2.8769,-2.7871,-2.7246,-2.6262,-2.5921,-2.5737,-2.5531,-2.5348,-2.5088,-2.4787,-2.4026,-2.3097,-2.2203,-2.0792,-1.9466,-1.8697,-1.7784,-1.6948,-1.6052,-1.511,-1.3747,-1.2801,-1.1935,-1.0939,-1.0246,-0.928,-0.7871,-0.848,-0.8209,-0.7461,-0.6804,-0.615,-0.5437,-0.4787,-0.4463,-0.4463,-0.4463,-0.4463,-0.4515,-0.4625,-0.4787,-0.5273,-0.576,-0.6524,-0.7235,-0.7717,-0.8268,-0.8646,-0.8804,-0.8804,-0.8804,-0.8804,-0.8804,-0.8804,-0.8804,-0.8804,-0.8804,-0.8804,-0.8804,-0.8804,-0.8804,-0.8804,-0.8857,-0.891,-0.9361,-0.9666,-0.9614,-0.9562,-0.9718,-0.9666,-0.9413,-0.9086,-0.8771,-0.8744,-0.8738,-0.8711,-0.8704,-0.8564,-0.837,-0.8063,-0.7762,-0.7508,-0.7255,-0.7005,-0.6972,-0.6979,-0.6972,-0.6972,-0.6972,-0.6985,-0.7148,-0.7188,-2.8975,-2.9044,-2.9514,-2.9751,-3.0045,-3.1052,-3.1207,-3.0709,-3.1367,-3.1133,-3.0683,-3.0527,-3.0505,-3.0518,-3.0568,-3.0623,-3.0723,-3.0853,-3.0866,-3.0801,-3.0078,-3.0254,-3.0391,-2.9961,-2.9258,-2.83,-2.7846,-2.6977,-2.5999,-2.5515,-2.5166,-2.4808,-2.4395,-2.3811,-2.2959,-2.2207,-2.1582,-2.0473,-1.9647,-1.8693,-1.7879,-1.7477,-1.6654,-1.518,-1.3742,-1.2812,-1.2171,-1.1199,-1.0458,-1.0005,-0.9249,-0.8362,-0.7235,-0.675,-0.6041,-0.5113,-0.4677,-0.4463,-0.4463,-0.4463,-0.4463,-0.4515,-0.4838,-0.5113,-0.4842,-0.6253,-0.6853,-0.7235,-0.783,-0.8533,-0.8752,-0.8804,-0.8804,-0.8804,-0.8804,-0.8804,-0.8804,-0.8804,-0.8804,-0.8804,-0.8804,-0.8804,-0.8804,-0.8804,-0.8804,-0.8857,-0.9166,-0.9562,-0.971,-0.9814,-0.9769,-0.9718,-0.9361,-0.9166,-0.9008,-0.8804,-0.8804,-0.8804,-0.8804,-0.8798,-0.8651,-0.8497,-0.8223,-0.7929,-0.7635,-0.7375,-0.7081,-0.6985,-0.6992,-0.6985,-0.7005,-0.7012,-0.7108,-0.7221,-0.7315,-2.8975,-2.9026,-2.9495,-2.9732,-2.9933,-3.0789,-3.096,-3.0698,-3.1018,-3.0979,-3.0583,-3.0467,-3.0467,-3.0487,-3.054,-3.0742,-3.122,-3.1364,-3.1207,-3.0879,-3.0332,-3.041,-3.0723,-3.0749,-3.0096,-2.8959,-2.8364,-2.7419,-2.6464,-2.5835,-2.5374,-2.456,-2.4073,-2.3248,-2.2392,-2.1876,-2.1101,-2.04,-1.9949,-1.9376,-1.8916,-1.8288,-1.7773,-1.6519,-1.5027,-1.4196,-1.4325,-1.2676,-1.1886,-1.1399,-1.0305,-0.8922,-0.7694,-0.6956,-0.6036,-0.5222,-0.4625,-0.4519,-0.4463,-0.4463,-0.4463,-0.4463,-0.4842,-0.4787,-0.4842,-0.6036,-0.6691,-0.6966,-0.783,-0.8804,-0.8804,-0.8804,-0.8804,-0.8804,-0.8804,-0.8804,-0.8804,-0.8804,-0.8804,-0.8804,-0.8804,-0.8804,-0.8804,-0.8804,-0.9316,-0.9569,-0.8962,-0.9316,-0.9917,-0.9969,-0.9666,-0.9458,-0.9106,-0.891,-0.8857,-0.8804,-0.8804,-0.8804,-0.8804,-0.8804,-0.8751,-0.8597,-0.843,-0.8103,-0.7749,-0.7375,-0.7121,-0.7088,-0.7125,-0.7222,-0.7262,-0.7154,-0.7214,-0.7381,-0.7479,-2.8975,-2.9062,-2.9495,-2.9695,-2.9817,-3.0387,-3.0717,-3.0667,-3.0775,-3.1102,-3.0737,-3.0686,-3.0775,-3.0698,-3.0717,-3.1206,-3.1682,-3.1651,-3.1265,-3.1149,-3.0706,-3.0801,-3.0986,-3.08,-3.0385,-2.9667,-2.8844,-2.7899,-2.7144,-2.6477,-2.5593,-2.4579,-2.3741,-2.2975,-2.1864,-2.1383,-2.0991,-2.0277,-2.0104,-1.9732,-1.9442,-1.8727,-1.8249,-1.7531,-1.6164,-1.5628,-1.5504,-1.4266,-1.3052,-1.3014,-1.158,-1.0375,-0.9238,-0.7747,-0.6632,-0.5864,-0.5218,-0.4794,-0.4743,-0.4577,-0.4463,-0.4463,-0.4515,-0.4515,-0.4732,-0.5382,-0.6032,-0.674,-0.7557,-0.8646,-0.8752,-0.8804,-0.8804,-0.8804,-0.8804,-0.8804,-0.8804,-0.8804,-0.8804,-0.8804,-0.8804,-0.8804,-0.8804,-0.8804,-0.9562,-1.002,-0.9361,-0.9113,-0.9718,-1.002,-0.9666,-0.9309,-0.8956,-0.8804,-0.8804,-0.8804,-0.8804,-0.8804,-0.8804,-0.8804,-0.8784,-0.8597,-0.8404,-0.8176,-0.7842,-0.7508,-0.7318,-0.7258,-0.7331,-0.7498,-0.7556,-0.7556,-0.7569,-0.7582,-0.7661,-2.8975,-2.9044,-2.9514,-2.9744,-2.9965,-3.1028,-3.146,-3.1686,-3.2172,-3.2557,-3.2333,-3.1775,-3.1429,-3.1448,-3.1532,-3.1715,-3.1659,-3.1469,-3.1313,-3.138,-3.1053,-3.1053,-3.1298,-3.102,-3.0571,-3.0238,-2.9489,-2.8623,-2.7631,-2.6707,-2.5785,-2.4866,-2.3822,-2.2805,-2.2303,-2.2049,-2.1493,-2.0714,-2.0565,-2.0158,-1.9449,-1.9192,-1.8925,-1.8257,-1.668,-1.6176,-1.6133,-1.5241,-1.4411,-1.4307,-1.3564,-1.2782,-1.1644,-0.971,-0.8165,-0.7143,-0.6018,-0.5336,-0.5195,-0.4746,-0.4574,-0.4463,-0.4463,-0.4463,-0.4677,-0.5273,-0.5764,-0.6195,-0.7117,-0.8156,-0.8752,-0.8804,-0.8804,-0.8804,-0.8804,-0.8804,-0.8804,-0.8804,-0.8804,-0.8804,-0.8804,-0.8804,-0.8804,-0.8857,-0.9309,-0.9718,-0.9465,-0.9113,-0.9368,-0.9614,-0.951,-0.9159,-0.8857,-0.8804,-0.8804,-0.8804,-0.8804,-0.8804,-0.8804,-0.8804,-0.8738,-0.8544,-0.835,-0.8277,-0.8145,-0.7909,-0.77,-0.7524,-0.7629,-0.7778,-0.788,-0.7908,-0.7903,-0.7876,-0.8036,-2.9222,-2.9267,-2.966,-2.9874,-3.0056,-3.0721,-3.1345,-3.1775,-3.2199,-3.2583,-3.2583,-3.2083,-3.1698,-3.1602,-3.1244,-3.12,-3.1282,-3.1942,-3.168,-3.1465,-3.1598,-3.1429,-3.1456,-3.1148,-3.0926,-3.0521,-2.9886,-2.8997,-2.7867,-2.7138,-2.593,-2.4563,-2.3585,-2.289,-2.2275,-2.1969,-2.1628,-2.1103,-2.0764,-2.0382,-1.96,-1.9522,-1.8999,-1.8345,-1.7356,-1.6789,-1.6725,-1.5816,-1.5353,-1.5297,-1.4516,-1.3996,-1.3117,-1.1653,-0.9577,-0.8298,-0.6919,-0.5873,-0.5474,-0.4916,-0.4519,-0.4463,-0.4519,-0.4463,-0.457,-0.4952,-0.5496,-0.6199,-0.6902,-0.799,-0.8699,-0.8752,-0.8804,-0.8804,-0.8804,-0.8804,-0.8804,-0.8804,-0.8804,-0.8804,-0.8804,-0.8804,-0.8804,-0.891,-0.9106,-0.9211,-0.9316,-0.9263,-0.9166,-0.9159,-0.9263,-0.9061,-0.8811,-0.8804,-0.8804,-0.8804,-0.8804,-0.8804,-0.8804,-0.8804,-0.8778,-0.8631,-0.8611,-0.8597,-0.842,-0.8173,-0.8004,-0.7789,-0.7948,-0.8088,-0.811,-0.8137,-0.8161,-0.8203,-0.833,-2.9351,-2.9453,-2.978,-2.9969,-3.0028,-3.0279,-3.0898,-3.1583,-3.1737,-3.2179,-3.2718,-3.2122,-3.1814,-3.173,-3.1279,-3.0917,-3.1036,-3.2349,-3.2017,-3.148,-3.1948,-3.191,-3.1352,-3.1078,-3.1046,-3.0363,-3.0103,-2.9288,-2.8174,-2.7361,-2.6054,-2.4722,-2.3688,-2.2905,-2.2361,-2.2039,-2.1521,-2.1134,-2.0781,-2.055,-2.0128,-1.9419,-1.8902,-1.874,-1.7932,-1.7505,-1.749,-1.6599,-1.625,-1.6089,-1.5463,-1.4664,-1.4437,-1.308,-1.1332,-0.9651,-0.797,-0.6838,-0.6209,-0.5187,-0.4787,-0.4787,-0.457,-0.4515,-0.4574,-0.4849,-0.5344,-0.6426,-0.7241,-0.7996,-0.8646,-0.8804,-0.8804,-0.8804,-0.8804,-0.8804,-0.8804,-0.8804,-0.8804,-0.8804,-0.8804,-0.8804,-0.8804,-0.8804,-0.8956,-0.9061,-0.9113,-0.9113,-0.9015,-0.8962,-0.8962,-0.891,-0.8804,-0.8804,-0.8804,-0.8804,-0.8804,-0.8804,-0.8804,-0.8804,-0.8804,-0.8771,-0.8771,-0.8738,-0.8571,-0.8346,-0.8205,-0.8172,-0.8343,-0.8441,-0.8377,-0.8371,-0.8408,-0.8444,-0.8517,-2.9181,-2.9433,-2.9643,-2.9829,-3.0028,-3.0299,-3.0898,-3.1698,-3.1737,-3.216,-3.2949,-3.2122,-3.2064,-3.222,-3.1867,-3.1612,-3.1679,-3.1861,-3.1903,-3.1453,-3.1827,-3.1853,-3.1379,-3.0775,-3.0586,-3.008,-2.9924,-2.9512,-2.8411,-2.7389,-2.6358,-2.501,-2.3827,-2.2979,-2.2574,-2.2254,-2.1986,-2.1582,-2.143,-2.1007,-2.028,-1.9398,-1.9229,-1.9155,-1.8545,-1.8039,-1.8007,-1.7366,-1.7044,-1.7044,-1.6522,-1.5856,-1.5287,-1.4744,-1.3732,-1.2092,-1.0222,-0.841,-0.7847,-0.6376,-0.5167,-0.5062,-0.4783,-0.457,-0.4739,-0.5136,-0.5686,-0.6475,-0.73,-0.8109,-0.8745,-0.891,-0.8857,-0.8903,-0.9061,-0.8956,-0.891,-0.9368,-0.9263,-0.9049,-0.9109,-0.893,-0.8811,-0.8811,-0.8864,-0.8857,-0.891,-0.891,-0.891,-0.8857,-0.8811,-0.8804,-0.8804,-0.8804,-0.8804,-0.8804,-0.8804,-0.8804,-0.8804,-0.8804,-0.8804,-0.8804,-0.8804,-0.8744,-0.8611,-0.8577,-0.8517,-0.855,-0.8704,-0.8698,-0.862,-0.8633,-0.8725,-0.8744,-0.8684,-2.9373,-2.9607,-2.9946,-3.0142,-3.0241,-3.0336,-3.116,-3.2102,-3.1891,-3.2429,-3.3179,-3.2263,-3.1775,-3.1684,-3.1241,-3.1112,-3.1207,-3.162,-3.1514,-3.1398,-3.1648,-3.1632,-3.0918,-3.0708,-3.0508,-2.9807,-2.9155,-2.8278,-2.7717,-2.7494,-2.6743,-2.4843,-2.4153,-2.345,-2.2886,-2.2443,-2.2044,-2.1598,-2.1102,-2.055,-2.0019,-1.9609,-1.9479,-1.9639,-1.865,-1.8509,-1.8656,-1.7872,-1.7583,-1.7553,-1.6992,-1.6329,-1.5712,-1.4849,-1.3741,-1.3309,-1.1631,-0.9989,-0.8652,-0.6898,-0.5784,-0.5054,-0.4721,-0.4732,-0.5171,-0.5614,-0.644,-0.7777,-0.8072,-0.86,-0.9295,-0.971,-0.9614,-0.9562,-0.9614,-0.9465,-0.9517,-0.9873,-0.9984,-0.9732,-0.9408,-0.9109,-0.8864,-0.8811,-0.8811,-0.8804,-0.8857,-0.8857,-0.8857,-0.8804,-0.8804,-0.8804,-0.8804,-0.8804,-0.8804,-0.8804,-0.8804,-0.8804,-0.8804,-0.8804,-0.8804,-0.8804,-0.8804,-0.8804,-0.8738,-0.8744,-0.8804,-0.8798,-0.8778,-0.8784,-0.8804,-0.8804,-0.8804,-0.8798,-0.8758,-2.9589,-2.9817,-3.0174,-3.0343,-3.0398,-3.0398,-3.1198,-3.241,-3.1698,-3.216,-3.2968,-3.2295,-3.1453,-3.1062,-3.0989,-3.0931,-3.0695,-3.1434,-3.1123,-3.1117,-3.136,-3.1234,-3.054,-3.0376,-3.0254,-2.9626,-2.891,-2.7897,-2.7336,-2.7167,-2.6703,-2.4396,-2.401,-2.3847,-2.3327,-2.2694,-2.2175,-2.171,-2.0843,-2.0261,-1.9945,-1.9747,-1.969,-1.9457,-1.8993,-1.8773,-1.9363,-1.8432,-1.7904,-1.8106,-1.7245,-1.6456,-1.5742,-1.4876,-1.3965,-1.3377,-1.2219,-1.1193,-0.9515,-0.7773,-0.6084,-0.5198,-0.4882,-0.5222,-0.6145,-0.6357,-0.7101,-0.8935,-0.8999,-0.9356,-0.9946,-1.0517,-1.0364,-1.0312,-1.0356,-1.021,-1.0123,-1.0368,-1.011,-0.9449,-0.9169,-0.9109,-0.893,-0.8811,-0.8804,-0.8804,-0.8804,-0.8804,-0.8804,-0.8804,-0.8804,-0.8804,-0.8804,-0.8804,-0.8804,-0.8804,-0.8804,-0.8804,-0.8804,-0.8804,-0.8804,-0.8804,-0.8804,-0.8804,-0.8804,-0.8804,-0.8804,-0.8804,-0.8804,-0.8804,-0.8804,-0.8804,-0.8804,-0.8804,-0.8804,-2.9801,-3.0003,-3.0018,-3.0196,-3.0398,-3.0398,-3.0948,-3.1814,-3.091,-3.1102,-3.1929,-3.1845,-3.1806,-3.1572,-3.1465,-3.1177,-3.0477,-3.1358,-3.0919,-3.0624,-3.078,-3.0566,-3.0011,-2.9719,-2.9607,-2.924,-2.8461,-2.7605,-2.7032,-2.6724,-2.6017,-2.4607,-2.4102,-2.4209,-2.367,-2.2695,-2.1988,-2.1437,-2.0649,-2.0177,-1.9984,-1.9788,-1.9654,-1.9545,-1.9191,-1.9118,-1.9575,-1.8422,-1.8016,-1.8459,-1.7714,-1.6451,-1.5614,-1.4894,-1.4134,-1.3365,-1.2628,-1.1831,-1.079,-0.8695,-0.6929,-0.6015,-0.5797,-0.614,-0.6961,-0.7467,-0.8474,-0.9777,-0.9991,-1.0308,-1.0659,-1.083,-1.1116,-1.0904,-1.0896,-1.0669,-1.0557,-1.0601,-1.0283,-0.9246,-0.909,-0.9468,-0.92,-0.9126,-0.8871,-0.8851,-0.8811,-0.8804,-0.8804,-0.8804,-0.8804,-0.8804,-0.8804,-0.8804,-0.8804,-0.8804,-0.8804,-0.8804,-0.8804,-0.8804,-0.8804,-0.8804,-0.8804,-0.8804,-0.8804,-0.8804,-0.8804,-0.8804,-0.8804,-0.8804,-0.8804,-0.8804,-0.8804,-0.8804,-0.8804,-2.9409,-2.9815,-3.0109,-3.0311,-3.0398,-3.0398,-3.0891,-3.1487,-3.0794,-3.0583,-3.1083,-3.2004,-3.1992,-3.1423,-3.1573,-3.1259,-3.0406,-3.0497,-3.0247,-2.9933,-2.9776,-2.9643,-2.9319,-2.8994,-2.8651,-2.81,-2.745,-2.6428,-2.5173,-2.5482,-2.5132,-2.4341,-2.4218,-2.3568,-2.2992,-2.2183,-2.1268,-2.0667,-2.0203,-1.9823,-1.9434,-1.9339,-1.9369,-1.9619,-1.7933,-1.7437,-1.7346,-1.7152,-1.7303,-1.7587,-1.7678,-1.6762,-1.5426,-1.4765,-1.4042,-1.331,-1.2549,-1.219,-1.1744,-0.9446,-0.7146,-0.6402,-0.6743,-0.7545,-0.7931,-0.8527,-0.9197,-1.0177,-1.1284,-1.1834,-1.18,-1.2169,-1.2373,-1.173,-1.137,-1.1209,-1.1124,-1.1242,-1.1496,-1.0995,-1.064,-1.0614,-1.0091,-0.9448,-0.9186,-0.8898,-0.8844,-0.8804,-0.8804,-0.8804,-0.8804,-0.8804,-0.8804,-0.8804,-0.8804,-0.8804,-0.8804,-0.8804,-0.8804,-0.8804,-0.8804,-0.8804,-0.8804,-0.8804,-0.8804,-0.8804,-0.8804,-0.8804,-0.8804,-0.8804,-0.8804,-0.8804,-0.8804,-0.8804,-0.8804,-2.9257,-2.9722,-3.0112,-3.0323,-3.0398,-3.0398,-3.1025,-3.1756,-3.0871,-3.0621,-3.091,-3.1958,-3.1916,-3.122,-3.1074,-3.0944,-3.0136,-2.9775,-2.946,-2.9044,-2.863,-2.8387,-2.8323,-2.8198,-2.7798,-2.6958,-2.6519,-2.5676,-2.4234,-2.3781,-2.3766,-2.4039,-2.4378,-2.3653,-2.3408,-2.1526,-2.0615,-2.0083,-1.9538,-1.9347,-1.893,-1.8559,-1.8729,-1.8924,-1.7515,-1.6272,-1.6068,-1.6013,-1.6443,-1.676,-1.6896,-1.6699,-1.5583,-1.4447,-1.3622,-1.2992,-1.2458,-1.2065,-1.1377,-0.9735,-0.7654,-0.7618,-0.7835,-0.8593,-0.9213,-0.9864,-1.0144,-1.1076,-1.2438,-1.3238,-1.2825,-1.3152,-1.3223,-1.2681,-1.2614,-1.2443,-1.2148,-1.2144,-1.272,-1.2886,-1.2192,-1.0971,-1.0574,-0.987,-0.9406,-0.9103,-0.9004,-0.8898,-0.8804,-0.8804,-0.8804,-0.8804,-0.8804,-0.8804,-0.8804,-0.8804,-0.8804,-0.8804,-0.8804,-0.8804,-0.8804,-0.8804,-0.8804,-0.8804,-0.8804,-0.8804,-0.8804,-0.8804,-0.8804,-0.8804,-0.8804,-0.8804,-0.8804,-0.8804,-0.8804,-2.9427,-2.9723,-2.9879,-3.0092,-3.0343,-3.0398,-3.1244,-3.2193,-3.1148,-3.0871,-3.1364,-3.1253,-3.1234,-3.1266,-3.0874,-3.0459,-2.9882,-2.913,-2.8671,-2.8388,-2.7746,-2.693,-2.6962,-2.7154,-2.6965,-2.6147,-2.5835,-2.5314,-2.3875,-2.3801,-2.354,-2.3207,-2.3489,-2.3751,-2.5275,-2.338,-2.175,-2.0609,-1.9342,-1.895,-1.8521,-1.7826,-1.7896,-1.7824,-1.6663,-1.5246,-1.4576,-1.4769,-1.527,-1.5767,-1.5501,-1.5292,-1.4946,-1.3681,-1.2757,-1.2081,-1.1834,-1.1351,-1.0591,-0.8962,-0.8786,-0.9241,-0.9271,-0.9904,-1.1114,-1.1341,-1.1156,-1.2201,-1.2965,-1.3321,-1.3513,-1.3805,-1.3777,-1.358,-1.3474,-1.3208,-1.2813,-1.3259,-1.3815,-1.3875,-1.2317,-1.0887,-1.0614,-1.0228,-0.9726,-0.9409,-0.9263,-0.9084,-0.8945,-0.8878,-0.8905,-0.8804,-0.8804,-0.8804,-0.8804,-0.8804,-0.8804,-0.8804,-0.8804,-0.8804,-0.8804,-0.8804,-0.8804,-0.8804,-0.8804,-0.8804,-0.8804,-0.8804,-0.8804,-0.8804,-0.8804,-0.8804,-0.8804,-0.8804,-0.8804,-2.7855,-2.8615,-2.8476,-2.9007,-2.9883,-3.0286,-3.0676,-3.0981,-3.1117,-3.1141,-3.116,-3.1698,-3.1496,-3.1038,-3.0916,-3.0478,-2.9606,-2.9439,-2.8945,-2.8529,-2.7515,-2.7336,-2.7118,-2.6584,-2.6106,-2.5401,-2.5189,-2.469,-2.3102,-2.33,-2.3342,-2.3095,-2.2778,-2.2561,-2.1857,-2.054,-1.9531,-1.8649,-1.8268,-1.821,-1.7827,-1.7107,-1.6744,-1.6986,-1.5154,-1.3764,-1.2857,-1.3286,-1.3792,-1.4123,-1.3749,-1.3733,-1.3545,-1.2496,-1.2012,-1.1454,-1.1087,-1.0091,-1.0161,-0.9931,-1.0329,-1.0425,-1.0847,-1.1431,-1.2071,-1.2725,-1.2977,-1.323,-1.3758,-1.4134,-1.4418,-1.4463,-1.4382,-1.3978,-1.3699,-1.3267,-1.3141,-1.4147,-1.483,-1.4467,-1.342,-1.1701,-1.0861,-1.0547,-1.006,-0.9794,-0.9713,-0.9362,-0.9192,-0.9105,-0.9078,-0.8884,-0.8804,-0.8804,-0.8804,-0.8804,-0.8804,-0.8804,-0.8804,-0.8804,-0.8804,-0.8804,-0.8804,-0.8804,-0.8804,-0.8804,-0.8804,-0.8804,-0.8804,-0.8804,-0.8804,-0.8804,-0.8804,-0.8804,-0.8804,-2.7078,-2.805,-2.7853,-2.8499,-2.96,-2.9808,-2.9902,-3.0278,-3.1207,-3.1256,-3.0884,-3.1707,-3.1504,-3.0646,-3.0552,-3.0526,-2.9392,-2.8957,-2.8762,-2.8388,-2.715,-2.6617,-2.632,-2.6136,-2.526,-2.464,-2.4462,-2.3989,-2.2842,-2.2544,-2.2439,-2.2386,-2.2367,-2.1283,-2.018,-1.9392,-1.9041,-1.8365,-1.8092,-1.7572,-1.6983,-1.6256,-1.5563,-1.4971,-1.3781,-1.2405,-1.1646,-1.1547,-1.1932,-1.2093,-1.205,-1.1981,-1.1611,-1.1051,-1.069,-1.0388,-1.0408,-0.9799,-1.045,-1.1439,-1.1638,-1.1251,-1.2448,-1.3037,-1.3034,-1.3424,-1.3957,-1.4382,-1.4894,-1.533,-1.5628,-1.5573,-1.5103,-1.4683,-1.4382,-1.3932,-1.4026,-1.5042,-1.5264,-1.4934,-1.3969,-1.2364,-1.0954,-1.0759,-1.0388,-1.0247,-1.0107,-0.9786,-0.9479,-0.9399,-0.9265,-0.9031,-0.8844,-0.8804,-0.8804,-0.8804,-0.8804,-0.8804,-0.8857,-0.891,-0.8804,-0.8804,-0.8804,-0.8804,-0.8804,-0.8804,-0.8804,-0.8804,-0.8804,-0.8804,-0.8804,-0.8804,-0.8804,-0.8804,-0.8804,-2.7084,-2.7963,-2.8015,-2.8592,-2.9444,-2.9198,-2.9545,-3.0424,-3.1275,-3.1198,-3.056,-3.056,-3.0306,-3.0104,-2.9888,-2.9567,-2.9235,-2.8399,-2.8239,-2.7625,-2.6677,-2.6005,-2.5677,-2.5494,-2.4918,-2.4324,-2.4082,-2.4154,-2.2883,-2.2634,-2.2181,-2.1454,-2.1318,-2.0434,-1.979,-1.9358,-1.9161,-1.8439,-1.7612,-1.7144,-1.664,-1.5369,-1.451,-1.372,-1.2859,-1.1734,-1.1088,-1.1034,-1.0873,-1.0718,-1.0347,-0.992,-0.933,-0.8452,-0.8672,-0.918,-0.9933,-1.0451,-1.0685,-1.1684,-1.2555,-1.2156,-1.2721,-1.3843,-1.4264,-1.3979,-1.4388,-1.5324,-1.606,-1.671,-1.717,-1.6655,-1.6153,-1.5811,-1.5477,-1.5302,-1.5157,-1.5391,-1.5449,-1.4925,-1.3856,-1.2429,-1.108,-1.0604,-1.0598,-1.0468,-1.0321,-1.0194,-0.9913,-0.9726,-0.9539,-0.9178,-0.8991,-0.8824,-0.8804,-0.8804,-0.9008,-0.9113,-0.9061,-0.9113,-0.8956,-0.9061,-0.9211,-0.9211,-0.891,-0.8811,-0.8804,-0.8804,-0.8804,-0.8804,-0.8804,-0.8804,-0.8804,-0.8804,-0.8804,-2.5541,-2.6191,-2.6514,-2.7353,-2.8593,-2.9428,-3.0065,-3.0513,-3.0775,-3.0717,-3.0598,-2.987,-2.9483,-2.9109,-2.8923,-2.8612,-2.8479,-2.8511,-2.8691,-2.797,-2.6722,-2.6677,-2.635,-2.5768,-2.5193,-2.4862,-2.4659,-2.4304,-2.3463,-2.3021,-2.2252,-2.1542,-2.1049,-2.0435,-1.9908,-1.9457,-1.9008,-1.8319,-1.745,-1.6991,-1.6248,-1.4985,-1.4013,-1.3308,-1.2091,-1.1138,-1.0826,-0.9967,-0.9717,-0.9624,-0.8983,-0.8527,-0.8398,-0.8076,-0.8189,-0.8122,-0.9142,-1.0046,-0.9669,-1.0661,-1.1833,-1.2444,-1.2819,-1.3449,-1.4044,-1.4388,-1.4625,-1.581,-1.7144,-1.7855,-1.7881,-1.7465,-1.7115,-1.6885,-1.6554,-1.6259,-1.613,-1.5864,-1.5806,-1.4885,-1.3815,-1.2509,-1.108,-1.0618,-1.0611,-1.0618,-1.0514,-1.0408,-1.0301,-1.01,-0.9773,-0.9399,-0.9165,-0.8998,-0.8897,-0.8864,-0.9166,-0.9361,-0.9465,-0.9666,-0.9917,-0.9961,-0.9917,-0.9614,-0.9211,-0.8956,-0.8804,-0.8804,-0.8804,-0.8804,-0.8804,-0.8804,-0.8804,-0.8804,-0.8804,-2.482,-2.5523,-2.5791,-2.6827,-2.8468,-2.976,-3.04,-3.053,-3.053,-3.0451,-3.012,-2.9506,-2.8816,-2.8183,-2.7983,-2.7718,-2.7386,-2.7622,-2.7824,-2.7493,-2.6796,-2.6465,-2.6174,-2.5619,-2.4846,-2.4739,-2.4572,-2.401,-2.3437,-2.266,-2.1903,-2.1612,-2.1181,-2.0764,-2.0261,-1.9788,-1.9317,-1.8521,-1.772,-1.7119,-1.6202,-1.5152,-1.4357,-1.3451,-1.1972,-1.1236,-1.0788,-0.9661,-0.9321,-0.9196,-0.8515,-0.8291,-0.8291,-0.828,-0.8463,-0.8617,-0.9506,-1.0328,-1.0528,-1.0523,-1.1495,-1.2258,-1.2886,-1.3249,-1.3666,-1.4019,-1.5026,-1.6266,-1.7752,-1.8821,-1.8501,-1.8232,-1.8112,-1.7981,-1.7611,-1.7169,-1.68,-1.6472,-1.5766,-1.4876,-1.3657,-1.2406,-1.15,-1.0954,-1.0618,-1.0618,-1.0618,-1.0521,-1.0461,-1.0367,-0.9993,-0.9579,-0.9422,-0.924,-0.9166,-0.918,-0.9636,-0.9984,-1.0123,-1.0372,-1.0771,-1.0661,-1.0312,-0.9909,-0.951,-0.9204,-0.891,-0.8804,-0.8804,-0.8804,-0.8804,-0.8804,-0.8804,-0.8804,-0.8804,-2.4764,-2.5624,-2.5721,-2.6959,-2.8845,-2.9934,-3.0433,-3.0594,-3.0489,-3.0119,-2.951,-2.9179,-2.8359,-2.7415,-2.7121,-2.6877,-2.67,-2.6814,-2.7034,-2.6594,-2.5988,-2.5768,-2.5518,-2.4504,-2.4543,-2.4238,-2.4016,-2.3916,-2.3069,-2.2468,-2.2005,-2.1628,-2.1229,-2.0829,-2.0483,-2.0108,-1.9741,-1.9507,-1.8325,-1.7379,-1.6975,-1.6112,-1.5065,-1.445,-1.3156,-1.1917,-1.1285,-1.0636,-0.9957,-0.9319,-0.8834,-0.8608,-0.8484,-0.8681,-0.9,-0.9351,-0.9873,-1.05,-1.0872,-1.0902,-1.1643,-1.2498,-1.3345,-1.3258,-1.3467,-1.3603,-1.455,-1.649,-1.8066,-1.9169,-1.915,-1.8939,-1.8821,-1.8715,-1.8436,-1.8058,-1.7677,-1.7056,-1.6029,-1.5128,-1.4291,-1.3022,-1.1817,-1.1337,-1.085,-1.0737,-1.0618,-1.0618,-1.0667,-1.064,-1.0296,-0.9914,-0.9824,-0.975,-0.9613,-0.9755,-1.0205,-1.0557,-1.0787,-1.1141,-1.1484,-1.1174,-1.0669,-1.0269,-0.9814,-0.9361,-0.9008,-0.891,-0.8804,-0.8804,-0.8804,-0.8804,-0.8804,-0.8804,-0.8804,-2.4655,-2.5084,-2.5854,-2.73,-2.9025,-2.9509,-3.0067,-3.0606,-3.0074,-2.9666,-2.936,-2.8621,-2.7624,-2.6503,-2.6327,-2.6074,-2.5832,-2.608,-2.6521,-2.6245,-2.5621,-2.5335,-2.5648,-2.4847,-2.462,-2.4514,-2.4316,-2.3853,-2.3072,-2.2554,-2.2265,-2.2065,-2.1528,-2.1038,-2.0649,-2.0311,-2.0095,-2.0199,-1.8987,-1.824,-1.8151,-1.6328,-1.4814,-1.4326,-1.3351,-1.2059,-1.1245,-1.0172,-0.9612,-0.9156,-0.8495,-0.8215,-0.8091,-0.8628,-0.8813,-0.8908,-0.9853,-1.0487,-1.0895,-1.1112,-1.1774,-1.2001,-1.252,-1.2948,-1.3175,-1.3204,-1.4234,-1.6418,-1.8108,-1.9177,-1.9747,-1.9579,-1.9475,-1.9359,-1.9254,-1.8874,-1.8447,-1.7423,-1.6331,-1.5605,-1.4852,-1.3795,-1.2541,-1.1695,-1.1197,-1.0905,-1.0674,-1.0618,-1.0807,-1.0822,-1.0737,-1.0404,-1.0437,-1.0324,-1.0272,-1.0368,-1.0854,-1.125,-1.1534,-1.1891,-1.2206,-1.1841,-1.1375,-1.072,-1.0167,-0.9666,-0.9159,-0.8857,-0.8804,-0.8804,-0.8804,-0.8804,-0.8804,-0.8804,-0.8804,-2.47,-2.4969,-2.6344,-2.735,-2.8176,-2.9041,-2.9529,-2.9484,-2.9143,-2.8724,-2.8299,-2.7682,-2.6776,-2.5657,-2.5491,-2.5307,-2.5039,-2.5273,-2.5346,-2.5254,-2.5271,-2.4908,-2.4844,-2.4719,-2.419,-2.3958,-2.3844,-2.3425,-2.3059,-2.2647,-2.2338,-2.2354,-2.1839,-2.1343,-2.0906,-2.0435,-2.0421,-2.0624,-1.9367,-1.9177,-1.9166,-1.7148,-1.5834,-1.5289,-1.4289,-1.287,-1.1859,-1.089,-1.0283,-0.9926,-0.9506,-0.9384,-0.933,-0.9407,-0.9564,-0.9748,-1.0271,-1.057,-1.0987,-1.1499,-1.2061,-1.2347,-1.2772,-1.3564,-1.4188,-1.4342,-1.4832,-1.6912,-1.8612,-1.9722,-1.9798,-1.9695,-1.9643,-1.9631,-1.9527,-1.9254,-1.8608,-1.7776,-1.6976,-1.6343,-1.5633,-1.4883,-1.3606,-1.222,-1.1832,-1.1626,-1.1337,-1.1406,-1.1469,-1.1351,-1.117,-1.1005,-1.1073,-1.128,-1.143,-1.1403,-1.1534,-1.1882,-1.2187,-1.2403,-1.2569,-1.2403,-1.2089,-1.1124,-1.0364,-0.9865,-0.9413,-0.8956,-0.8804,-0.8804,-0.8804,-0.8804,-0.8804,-0.8804,-0.8804,-2.4842,-2.5115,-2.6669,-2.7156,-2.6987,-2.8418,-2.8835,-2.8326,-2.8096,-2.7602,-2.6968,-2.6745,-2.5857,-2.5162,-2.479,-2.453,-2.4414,-2.4614,-2.4428,-2.4392,-2.4355,-2.4208,-2.3911,-2.3537,-2.3425,-2.3197,-2.2997,-2.3241,-2.334,-2.2694,-2.23,-2.2549,-2.2264,-2.1792,-2.108,-2.0855,-2.1059,-2.0872,-2.0312,-2.0166,-1.9271,-1.8056,-1.7311,-1.6554,-1.5573,-1.4067,-1.3174,-1.2258,-1.1469,-1.0912,-1.0485,-1.0295,-1.0266,-1.0206,-1.0504,-1.0726,-1.0963,-1.1457,-1.2044,-1.2767,-1.3198,-1.3542,-1.3912,-1.4417,-1.4946,-1.5508,-1.6033,-1.7305,-1.9029,-1.9773,-1.9786,-1.9991,-1.9991,-1.985,-1.9734,-1.9631,-1.8886,-1.8155,-1.7588,-1.698,-1.6197,-1.5517,-1.4497,-1.3116,-1.2538,-1.2336,-1.2358,-1.2549,-1.261,-1.2435,-1.2232,-1.2078,-1.1963,-1.2186,-1.2313,-1.2289,-1.2138,-1.2353,-1.2618,-1.2774,-1.2881,-1.2666,-1.2147,-1.1166,-1.0466,-1.0012,-0.9413,-0.8857,-0.8804,-0.8804,-0.8804,-0.8804,-0.8804,-0.8804,-0.8804,-2.5053,-2.5231,-2.5685,-2.6176,-2.678,-2.7275,-2.7709,-2.8097,-2.7445,-2.6988,-2.662,-2.5938,-2.5298,-2.4804,-2.4804,-2.4594,-2.4266,-2.419,-2.419,-2.4208,-2.419,-2.3816,-2.3455,-2.3277,-2.3177,-2.2908,-2.2554,-2.2535,-2.2977,-2.2329,-2.2054,-2.2621,-2.1859,-2.165,-2.1904,-2.1667,-2.1323,-2.1204,-2.0513,-1.9935,-2.0563,-1.9472,-1.8148,-1.717,-1.6001,-1.4876,-1.3828,-1.2565,-1.195,-1.1469,-1.1115,-1.0863,-1.0885,-1.1009,-1.1264,-1.1554,-1.182,-1.2218,-1.2853,-1.3418,-1.3698,-1.3769,-1.4198,-1.4958,-1.5506,-1.6137,-1.6973,-1.8232,-1.9506,-1.9812,-1.9991,-2.0484,-2.0584,-2.0144,-1.9888,-1.9786,-1.9423,-1.8754,-1.8119,-1.7258,-1.6332,-1.5758,-1.5186,-1.4148,-1.3432,-1.3226,-1.3039,-1.3236,-1.3347,-1.3278,-1.333,-1.3125,-1.2937,-1.2538,-1.2448,-1.2641,-1.2618,-1.2832,-1.2891,-1.2891,-1.2891,-1.2891,-1.2264,-1.1174,-1.0618,-1.0218,-0.9562,-0.8804,-0.8804,-0.8804,-0.8804,-0.8804,-0.8804,-0.8804,-0.8804]}]]